[[{"header":{"parameterUnit":"m.s-1","parameterCategory":1,"la1":30.6,"la2":29.2853,"lo1":-89.7004,"lo2":-87.6739,"dy":0.0162,"dx":0.0183,"nx":112,"ny":82,"refTime":"2023-09-01T18:00:00:Z","depth":0,"parameterNumber":2,"parameterNumberName":"U-component_of_WINDS"},"data":[0.0,0.0,0.0,0.0,0.0,0.0,0.0,0.0,0.0,0.0,0.0,0.0,0.0,0.0,0.0,0.0,0.0,0.0,0.0,0.0,0.0,0.0,0.0,0.0,0.0,0.0,0.0,0.0,0.0,0.0,0.0,0.0,0.0,0.0,0.0,0.0,0.0,0.0,0.0,0.0,0.0,0.0,0.0,0.0,0.0,0.0,0.0,0.0,0.0,0.0,0.0,0.0,0.0,0.0,0.0,0.0,0.0,0.0,0.0,0.0,0.0,0.0,0.0,0.0,0.0,0.0,0.0,0.0,0.0,0.0,0.0,0.0,0.0,0.0,0.0,0.0,0.0,0.0,0.0,0.0,0.0,0.0,0.0,0.0,0.0,0.0,0.0,0.0,0.0,0.0,0.0,-3.55,-3.55,-3.55,-3.55,-3.55,-3.5312,-3.4913,0.0,0.0,0.0,0.0,0.0,0.0,0.0,0.0,0.0,0.0,0.0,0.0,0.0,0.0,0.0,0.0,0.0,0.0,0.0,0.0,0.0,0.0,0.0,0.0,0.0,0.0,0.0,0.0,0.0,0.0,0.0,0.0,0.0,0.0,0.0,0.0,0.0,0.0,0.0,0.0,0.0,0.0,0.0,0.0,0.0,0.0,0.0,0.0,0.0,0.0,0.0,0.0,0.0,0.0,0.0,0.0,0.0,0.0,0.0,0.0,0.0,0.0,0.0,0.0,0.0,0.0,0.0,0.0,0.0,0.0,0.0,0.0,0.0,0.0,0.0,0.0,0.0,0.0,0.0,0.0,0.0,0.0,0.0,0.0,0.0,0.0,0.0,0.0,0.0,0.0,0.0,0.0,0.0,0.0,0.0,0.0,0.0,0.0,0.0,0.0,0.0,0.0,0.0,0.0,-3.55,-3.55,-3.55,-3.55,-3.55,-3.55,-3.5553,-3.5715,0.0,0.0,0.0,0.0,0.0,0.0,0.0,0.0,0.0,0.0,0.0,0.0,0.0,0.0,0.0,0.0,0.0,0.0,0.0,0.0,0.0,0.0,0.0,0.0,0.0,0.0,0.0,0.0,0.0,0.0,0.0,0.0,0.0,0.0,0.0,0.0,0.0,0.0,0.0,0.0,0.0,0.0,0.0,0.0,0.0,0.0,0.0,0.0,0.0,0.0,0.0,0.0,0.0,0.0,0.0,0.0,0.0,0.0,0.0,0.0,0.0,0.0,0.0,0.0,0.0,0.0,0.0,0.0,0.0,0.0,0.0,0.0,0.0,0.0,0.0,0.0,0.0,0.0,0.0,0.0,0.0,0.0,0.0,0.0,0.0,0.0,0.0,0.0,0.0,0.0,0.0,0.0,0.0,0.0,0.0,0.0,0.0,0.0,0.0,0.0,0.0,0.0,0.0,-3.55,-3.55,-3.55,-3.55,-3.55,-3.55,-3.55,-3.561,-3.5874,-3.5136,0.0,0.0,0.0,0.0,0.0,0.0,0.0,0.0,0.0,0.0,0.0,0.0,0.0,0.0,0.0,0.0,0.0,0.0,0.0,0.0,0.0,0.0,0.0,0.0,0.0,0.0,0.0,0.0,0.0,0.0,0.0,0.0,0.0,0.0,0.0,0.0,0.0,0.0,0.0,0.0,0.0,0.0,0.0,0.0,0.0,0.0,0.0,0.0,0.0,0.0,0.0,0.0,0.0,0.0,0.0,0.0,0.0,0.0,0.0,0.0,0.0,0.0,0.0,0.0,0.0,0.0,0.0,0.0,0.0,0.0,0.0,0.0,0.0,0.0,0.0,0.0,0.0,0.0,0.0,0.0,0.0,0.0,0.0,0.0,0.0,0.0,0.0,0.0,0.0,0.0,0.0,0.0,0.0,0.0,0.0,0.0,0.0,0.0,0.0,0.0,0.0,0.0,-3.55,-3.55,-3.55,-3.55,-3.55,-3.55,-3.55,-3.561,-3.5874,-3.5136,0.0,0.0,0.0,0.0,0.0,0.0,0.0,0.0,0.0,0.0,0.0,0.0,0.0,0.0,0.0,0.0,0.0,0.0,0.0,0.0,0.0,0.0,0.0,0.0,0.0,0.0,0.0,0.0,0.0,0.0,0.0,0.0,0.0,0.0,0.0,0.0,0.0,0.0,0.0,0.0,0.0,0.0,0.0,0.0,0.0,0.0,0.0,0.0,0.0,0.0,0.0,0.0,0.0,0.0,0.0,0.0,0.0,0.0,0.0,0.0,0.0,0.0,0.0,0.0,0.0,0.0,0.0,0.0,0.0,0.0,0.0,0.0,0.0,0.0,0.0,0.0,0.0,0.0,0.0,0.0,0.0,0.0,0.0,0.0,0.0,0.0,0.0,0.0,0.0,0.0,0.0,0.0,0.0,0.0,0.0,0.0,0.0,0.0,0.0,0.0,0.0,0.0,-3.55,-3.55,-3.55,-3.55,-3.55,-3.55,-3.55,-3.561,-3.5874,-3.5136,0.0,0.0,0.0,0.0,0.0,0.0,0.0,0.0,0.0,0.0,0.0,0.0,0.0,0.0,0.0,0.0,0.0,0.0,0.0,0.0,0.0,0.0,0.0,0.0,0.0,0.0,0.0,0.0,0.0,0.0,0.0,0.0,0.0,0.0,0.0,0.0,0.0,0.0,0.0,0.0,0.0,0.0,0.0,0.0,0.0,0.0,0.0,0.0,0.0,0.0,0.0,0.0,0.0,0.0,0.0,0.0,0.0,0.0,0.0,0.0,0.0,0.0,0.0,0.0,0.0,0.0,0.0,0.0,0.0,0.0,0.0,0.0,0.0,0.0,0.0,0.0,0.0,0.0,0.0,0.0,0.0,0.0,0.0,0.0,0.0,0.0,0.0,0.0,0.0,0.0,0.0,0.0,0.0,0.0,0.0,0.0,0.0,0.0,0.0,0.0,0.0,0.0,-3.55,-3.55,0.0,-3.55,-3.55,-3.55,-3.55,-3.5684,-3.6122,0.0,0.0,0.0,0.0,0.0,0.0,0.0,0.0,0.0,0.0,0.0,0.0,0.0,0.0,0.0,0.0,0.0,0.0,0.0,0.0,0.0,0.0,0.0,0.0,0.0,0.0,0.0,0.0,0.0,0.0,0.0,0.0,0.0,0.0,0.0,0.0,0.0,0.0,0.0,0.0,0.0,0.0,0.0,0.0,0.0,0.0,0.0,0.0,0.0,0.0,0.0,0.0,0.0,0.0,0.0,0.0,0.0,0.0,0.0,0.0,0.0,0.0,0.0,0.0,0.0,0.0,0.0,0.0,0.0,0.0,0.0,0.0,0.0,0.0,0.0,0.0,0.0,0.0,0.0,0.0,0.0,0.0,0.0,0.0,0.0,0.0,0.0,0.0,0.0,0.0,0.0,0.0,0.0,0.0,0.0,0.0,0.0,0.0,0.0,0.0,0.0,0.0,-3.55,-3.55,-3.55,0.0,-3.55,-3.55,-3.55,-3.55,-3.5626,-3.5897,0.0,0.0,0.0,0.0,0.0,0.0,0.0,0.0,0.0,0.0,0.0,0.0,0.0,0.0,0.0,0.0,0.0,0.0,0.0,0.0,0.0,0.0,0.0,0.0,0.0,0.0,0.0,0.0,0.0,0.0,0.0,0.0,0.0,0.0,0.0,0.0,0.0,0.0,0.0,0.0,0.0,0.0,0.0,0.0,0.0,0.0,0.0,0.0,0.0,0.0,0.0,0.0,0.0,0.0,0.0,0.0,0.0,0.0,0.0,0.0,0.0,0.0,0.0,0.0,0.0,0.0,0.0,0.0,0.0,0.0,0.0,0.0,0.0,0.0,0.0,0.0,0.0,0.0,0.0,0.0,0.0,0.0,0.0,0.0,0.0,0.0,0.0,0.0,0.0,0.0,0.0,0.0,0.0,0.0,0.0,0.0,0.0,0.0,0.0,0.0,0.0,0.0,-3.55,-3.55,-3.55,-3.55,-3.55,-3.55,-3.55,-3.55,-3.5383,0.0,0.0,0.0,0.0,0.0,0.0,0.0,0.0,0.0,0.0,0.0,0.0,0.0,0.0,0.0,0.0,0.0,0.0,0.0,0.0,0.0,0.0,0.0,0.0,0.0,0.0,0.0,0.0,0.0,0.0,0.0,0.0,0.0,0.0,0.0,0.0,0.0,0.0,0.0,0.0,0.0,0.0,0.0,0.0,0.0,0.0,0.0,0.0,0.0,0.0,0.0,0.0,0.0,0.0,0.0,0.0,0.0,0.0,0.0,0.0,0.0,0.0,0.0,0.0,0.0,0.0,0.0,0.0,0.0,0.0,0.0,0.0,0.0,0.0,0.0,0.0,0.0,0.0,0.0,0.0,0.0,0.0,0.0,0.0,0.0,0.0,0.0,0.0,0.0,0.0,0.0,0.0,0.0,0.0,0.0,0.0,0.0,0.0,0.0,0.0,0.0,0.0,0.0,-3.55,-3.55,-3.55,-3.55,-3.55,-3.55,-3.55,-3.55,-3.5479,-3.5383,0.0,0.0,0.0,0.0,0.0,0.0,0.0,0.0,0.0,0.0,0.0,0.0,0.0,0.0,0.0,0.0,0.0,0.0,0.0,0.0,0.0,0.0,0.0,0.0,0.0,0.0,0.0,0.0,0.0,0.0,0.0,0.0,0.0,0.0,0.0,0.0,0.0,0.0,0.0,0.0,0.0,0.0,0.0,0.0,0.0,0.0,0.0,0.0,0.0,0.0,0.0,0.0,0.0,0.0,0.0,0.0,0.0,0.0,0.0,0.0,0.0,0.0,0.0,0.0,0.0,0.0,0.0,0.0,0.0,0.0,0.0,0.0,0.0,0.0,0.0,0.0,0.0,0.0,0.0,0.0,0.0,0.0,0.0,0.0,0.0,0.0,0.0,0.0,0.0,0.0,0.0,0.0,0.0,0.0,0.0,0.0,0.0,0.0,0.0,0.0,0.0,0.0,-3.55,-3.55,-3.55,-3.55,-3.55,-3.55,-3.55,-3.55,-3.55,-3.55,0.0,0.0,0.0,0.0,0.0,0.0,0.0,0.0,0.0,0.0,0.0,0.0,0.0,0.0,0.0,0.0,0.0,0.0,0.0,0.0,0.0,0.0,0.0,0.0,0.0,0.0,0.0,0.0,0.0,0.0,0.0,0.0,0.0,0.0,0.0,0.0,0.0,0.0,0.0,0.0,0.0,0.0,0.0,0.0,0.0,0.0,0.0,0.0,0.0,0.0,0.0,0.0,0.0,0.0,0.0,0.0,0.0,0.0,0.0,0.0,0.0,0.0,0.0,0.0,0.0,0.0,0.0,0.0,0.0,0.0,0.0,0.0,0.0,0.0,0.0,0.0,0.0,0.0,0.0,0.0,0.0,0.0,0.0,0.0,0.0,0.0,0.0,0.0,0.0,0.0,0.0,0.0,0.0,0.0,0.0,0.0,0.0,0.0,0.0,0.0,0.0,0.0,-3.55,-3.55,-3.55,-3.55,-3.55,-3.55,-3.55,-3.55,-3.55,-3.55,0.0,0.0,0.0,0.0,0.0,0.0,0.0,0.0,0.0,0.0,0.0,0.0,0.0,0.0,0.0,0.0,0.0,0.0,0.0,0.0,0.0,0.0,0.0,0.0,0.0,0.0,0.0,0.0,0.0,0.0,0.0,0.0,0.0,0.0,0.0,0.0,0.0,0.0,0.0,0.0,0.0,0.0,0.0,0.0,0.0,0.0,0.0,0.0,0.0,0.0,0.0,0.0,0.0,0.0,0.0,0.0,0.0,0.0,0.0,0.0,-4.0496,0.0,0.0,0.0,0.0,0.0,0.0,0.0,0.0,0.0,0.0,0.0,0.0,0.0,0.0,0.0,0.0,0.0,0.0,0.0,0.0,0.0,0.0,0.0,0.0,0.0,0.0,0.0,0.0,0.0,0.0,0.0,0.0,0.0,0.0,0.0,0.0,0.0,0.0,0.0,0.0,0.0,-3.55,-3.55,-3.55,-3.55,-3.55,-3.55,-3.55,-3.55,-3.55,-3.55,-3.55,0.0,0.0,0.0,0.0,0.0,0.0,0.0,0.0,0.0,0.0,0.0,0.0,0.0,0.0,0.0,0.0,0.0,0.0,0.0,0.0,0.0,0.0,0.0,0.0,0.0,0.0,0.0,0.0,0.0,0.0,0.0,0.0,0.0,0.0,0.0,0.0,0.0,0.0,0.0,0.0,0.0,0.0,0.0,0.0,0.0,0.0,0.0,0.0,0.0,0.0,0.0,0.0,0.0,0.0,0.0,0.0,0.0,0.0,0.0,0.0,-4.0496,0.0,0.0,0.0,0.0,0.0,0.0,0.0,0.0,0.0,0.0,0.0,0.0,0.0,0.0,0.0,0.0,0.0,0.0,0.0,0.0,0.0,0.0,0.0,0.0,0.0,0.0,0.0,0.0,0.0,0.0,0.0,0.0,0.0,0.0,0.0,0.0,0.0,0.0,0.0,0.0,-3.55,-3.55,-3.55,-3.55,-3.55,-3.55,-3.55,-3.55,-3.55,-3.55,-3.55,0.0,0.0,0.0,0.0,0.0,0.0,0.0,0.0,0.0,0.0,0.0,0.0,0.0,0.0,0.0,0.0,0.0,0.0,0.0,0.0,0.0,0.0,0.0,0.0,0.0,0.0,0.0,0.0,0.0,0.0,0.0,0.0,0.0,0.0,0.0,0.0,0.0,0.0,0.0,0.0,0.0,0.0,0.0,0.0,0.0,0.0,0.0,0.0,0.0,0.0,0.0,0.0,0.0,-3.9308,-3.9469,-3.9498,-3.9498,-3.9534,-3.9634,-4.0138,-4.0389,-4.0422,-4.0481,0.0,0.0,0.0,0.0,0.0,0.0,0.0,0.0,0.0,0.0,0.0,0.0,0.0,0.0,0.0,0.0,0.0,0.0,0.0,0.0,0.0,0.0,0.0,0.0,-3.5996,-3.5976,0.0,0.0,0.0,0.0,0.0,0.0,0.0,0.0,0.0,0.0,0.0,0.0,-3.5528,-3.5528,-3.5515,-3.55,-3.55,-3.55,-3.55,-3.55,-3.55,-3.55,-3.5508,-3.5528,0.0,0.0,0.0,0.0,0.0,0.0,0.0,0.0,0.0,0.0,0.0,0.0,0.0,0.0,0.0,0.0,0.0,0.0,0.0,0.0,0.0,0.0,0.0,0.0,0.0,0.0,0.0,0.0,0.0,0.0,0.0,0.0,-3.6011,-3.6542,0.0,0.0,0.0,0.0,0.0,0.0,0.0,0.0,0.0,0.0,0.0,0.0,0.0,-3.8707,-3.8707,-3.8735,-3.8747,-3.8747,-3.8807,-3.8937,-3.9178,-3.9178,-3.9314,-3.9611,-3.969,0.0,-4.0167,-4.0397,0.0,0.0,0.0,0.0,0.0,0.0,0.0,0.0,0.0,0.0,0.0,0.0,0.0,0.0,0.0,0.0,0.0,0.0,0.0,0.0,0.0,0.0,-3.5911,-3.5911,-3.5951,-3.5996,0.0,-3.5945,-3.588,-3.5875,-3.5764,0.0,0.0,0.0,0.0,0.0,0.0,0.0,-3.5579,-3.5579,-3.5568,-3.552,-3.55,-3.55,-3.55,-3.55,-3.55,-3.55,-3.5544,-3.5579,-3.5579,-3.5579,0.0,0.0,0.0,0.0,0.0,0.0,0.0,0.0,0.0,0.0,0.0,0.0,0.0,0.0,0.0,0.0,0.0,0.0,0.0,0.0,0.0,0.0,0.0,0.0,0.0,0.0,0.0,0.0,0.0,-3.5854,-3.6139,-3.6354,-3.6664,-3.6941,0.0,0.0,0.0,0.0,0.0,0.0,0.0,0.0,0.0,-3.8707,-3.8707,-3.8707,-3.8707,-3.8707,-3.8707,-3.8707,-3.8707,-3.8762,-3.8884,-3.8884,-3.897,-3.91,-3.9244,-3.9401,-3.9564,-3.9863,-4.0101,-4.0286,0.0,0.0,0.0,0.0,-3.8027,-3.7149,-3.6383,-3.5868,0.0,-3.5616,0.0,0.0,0.0,0.0,0.0,0.0,0.0,0.0,0.0,0.0,-3.5797,-3.5797,-3.5861,-3.5946,-3.5946,-3.5957,-3.597,0.0,-3.5885,-3.5797,-3.5762,0.0,0.0,0.0,0.0,-3.5659,-3.5659,-3.5659,-3.5638,-3.5621,-3.5616,-3.5616,-3.5616,-3.5616,-3.5616,-3.5616,-3.5648,-3.5659,-3.5659,-3.5659,-3.5659,0.0,0.0,0.0,0.0,0.0,0.0,0.0,0.0,0.0,0.0,0.0,0.0,0.0,0.0,0.0,0.0,0.0,0.0,0.0,0.0,0.0,0.0,0.0,0.0,0.0,0.0,0.0,0.0,-3.5941,-3.6203,-3.6203,-3.6542,-3.6786,0.0,0.0,0.0,0.0,0.0,0.0,-3.8302,-3.8433,-3.8515,-3.8515,-3.8627,-3.8707,-3.8707,-3.8707,-3.8707,-3.8707,-3.8707,-3.8707,-3.8707,-3.8707,-3.8707,-3.8704,-3.8909,-3.8999,-3.904,-3.9529,-3.9861,-4.0101,-4.0101,-3.9725,-3.9092,-3.8201,-3.7329,-3.6492,-3.5755,-3.55,-3.5501,-3.5556,0.0,-3.5574,-3.5635,0.0,0.0,0.0,0.0,-3.5659,-3.565,-3.5667,-3.5667,-3.5667,-3.5755,-3.5843,-3.5843,-3.5892,-3.5932,0.0,-3.5951,-3.5914,-3.5903,0.0,0.0,0.0,0.0,-3.5755,-3.5755,-3.5755,-3.5749,-3.5707,-3.5707,-3.5707,-3.5707,-3.5707,-3.5707,-3.5707,-3.5726,-3.5755,-3.5755,-3.5755,-3.5755,-3.5755,0.0,0.0,0.0,0.0,0.0,0.0,0.0,0.0,0.0,0.0,0.0,0.0,0.0,0.0,0.0,0.0,0.0,0.0,0.0,0.0,0.0,0.0,0.0,0.0,0.0,0.0,0.0,0.0,0.0,-3.5644,-3.565,0.0,0.0,0.0,0.0,-3.6478,-3.696,-3.7247,-3.7267,-3.7702,-3.7946,-3.7946,-3.843,-3.8707,-3.8707,-3.8707,-3.8707,-3.8707,-3.8707,-3.8707,-3.8707,-3.8707,-3.8707,-3.8707,-3.8704,-3.8719,-3.8792,-3.9705,-4.0091,-4.0101,-4.0101,-3.9614,-3.8802,-3.7869,-3.7001,-3.6243,-3.5686,-3.55,-3.55,-3.5494,-3.5514,-3.5514,-3.5508,-3.5544,0.0,0.0,-3.557,-3.559,-3.5534,-3.555,-3.5621,-3.5621,-3.5659,-3.5713,-3.5713,-3.5717,-3.5763,0.0,-3.5996,-3.5974,-3.591,0.0,-3.5898,-3.5898,-3.5898,-3.5898,-3.5898,-3.5898,-3.5841,-3.5713,-3.5707,-3.5707,-3.5707,-3.5707,-3.5707,-3.5707,-3.5812,-3.5898,-3.5898,-3.5898,-3.5898,-3.5898,-3.5764,0.0,0.0,0.0,0.0,0.0,0.0,0.0,0.0,0.0,0.0,0.0,0.0,0.0,0.0,0.0,0.0,0.0,0.0,0.0,0.0,0.0,0.0,0.0,0.0,0.0,0.0,0.0,0.0,-3.56,-3.56,0.0,-3.56,-3.5783,-3.6032,-3.6374,-3.658,-3.6843,-3.7173,-3.736,-3.7451,-3.7451,-3.7632,-3.7878,-3.8183,-3.8183,-3.8366,-3.8707,-3.8707,-3.8707,-3.8707,-3.8707,-3.8707,-3.8707,-3.8707,-3.8707,-3.8735,-3.9249,-3.9469,-3.9469,-3.9469,-3.9059,-3.8469,-3.8144,-3.7179,-3.6016,-3.5809,-3.5428,-3.5008,-3.519,-3.5361,-3.55,-3.55,-3.5528,-3.5522,-3.552,-3.5528,-3.5522,-3.552,-3.5528,-3.5534,-3.5534,-3.5579,-3.5639,-3.5639,-3.5679,-3.5723,-3.5795,-3.5887,-3.593,-3.5955,-3.5952,-3.5952,-3.5952,-3.5952,-3.5952,-3.5952,-3.5952,-3.595,-3.5902,-3.5882,-3.5882,-3.5882,-3.5882,-3.5882,-3.5882,-3.5948,-3.5952,-3.5952,-3.5952,-3.5952,-3.5952,-3.5925,-3.5869,0.0,0.0,0.0,0.0,0.0,0.0,0.0,0.0,0.0,0.0,0.0,0.0,0.0,0.0,0.0,0.0,0.0,0.0,0.0,0.0,0.0,0.0,0.0,0.0,0.0,0.0,-3.56,-3.56,-3.56,-3.56,-3.56,-3.56,-3.5739,-3.6097,-3.6139,-3.6291,-3.6626,-3.6825,-3.6941,-3.6941,-3.7114,-3.7341,-3.7667,-3.7825,-3.8082,-3.8433,-3.8611,-3.8707,-3.8707,-3.8707,-3.8707,-3.8707,-3.8707,-3.8707,-3.8704,-3.888,-3.8975,-3.8971,-3.9058,-3.8707,-3.8181,-3.8169,-3.7324,-3.6171,-3.6271,-3.5849,-3.5258,-3.5444,-3.5511,-3.55,-3.55,-3.55,-3.55,-3.55,-3.55,-3.55,-3.55,-3.55,-3.55,-3.55,-3.5534,-3.5574,-3.5574,-3.5591,-3.5648,-3.5667,-3.5768,-3.5855,-3.595,-3.5972,-3.5974,-3.5996,-3.5996,-3.5996,-3.5996,-3.5996,-3.5996,-3.5996,-3.5996,-3.5996,-3.5996,-3.5996,-3.5996,-3.5996,-3.5996,-3.5996,-3.5996,-3.5996,-3.5996,-3.5996,-3.5996,-3.5973,-3.5901,0.0,0.0,0.0,0.0,0.0,0.0,0.0,0.0,0.0,0.0,0.0,0.0,0.0,0.0,0.0,0.0,0.0,0.0,0.0,0.0,0.0,0.0,0.0,-3.547,-3.56,-3.56,-3.56,-3.56,-3.56,-3.56,-3.56,-3.56,-3.56,-3.56,-3.56,-3.56,-3.6097,-3.6392,-3.6409,-3.6917,-3.7207,-3.7243,-3.7703,-3.7931,-3.7948,-3.8453,-3.8713,-3.8713,-3.8676,-3.8673,-3.8707,-3.8707,-3.8707,-3.8707,-3.8707,-3.8707,-3.8719,-3.8985,-3.8601,-3.7912,-3.7923,-3.7426,-3.6758,-3.6993,-3.6742,-3.631,-3.631,-3.5977,-3.557,-3.5532,-3.5532,-3.5538,-3.5519,-3.55,-3.55,-3.55,-3.55,-3.55,-3.55,-3.55,-3.55,-3.55,-3.55,-3.5515,-3.5574,-3.5646,-3.5746,-3.5871,-3.59,-3.5914,-3.5976,-3.5996,0.0,-3.5996,-3.5996,-3.5996,-3.5996,-3.5996,-3.5996,-3.5996,-3.5996,-3.5996,-3.5996,-3.5996,-3.5996,-3.5996,-3.5996,-3.5996,-3.5996,-3.5996,-3.5973,-3.5903,0.0,0.0,0.0,0.0,0.0,0.0,0.0,0.0,0.0,0.0,0.0,0.0,0.0,0.0,0.0,0.0,0.0,0.0,0.0,0.0,0.0,0.0,-3.4648,-3.4847,-3.5276,-3.56,-3.56,-3.56,-3.56,-3.56,-3.56,-3.56,-3.56,-3.56,-3.56,-3.56,-3.5739,-3.6082,-3.6667,-3.6823,-3.7331,-3.8202,-3.8332,-3.8599,-3.8974,-3.8611,-3.86,-3.8915,-3.8352,-3.8316,-3.8707,-3.8707,-3.8707,-3.8707,-3.8707,-3.8707,-3.8707,-3.8773,-3.8671,-3.8486,-3.849,-3.7974,-3.721,-3.6703,-3.6546,-3.6578,-3.6578,-3.6742,-3.6842,-3.626,-3.6228,-3.625,-3.5654,-3.55,-3.55,-3.55,-3.55,-3.55,-3.55,-3.55,-3.55,-3.55,-3.55,-3.5514,-3.5528,-3.5534,-3.559,-3.5733,-3.5758,-3.5766,-3.5785,-3.5861,0.0,-3.5938,-3.5973,-3.5996,-3.5996,-3.5996,-3.5996,-3.5996,-3.5996,-3.5996,-3.5996,-3.5996,-3.5996,-3.5996,-3.5996,-3.5996,-3.5996,-3.5996,-3.5996,0.0,0.0,0.0,0.0,0.0,0.0,0.0,0.0,0.0,0.0,0.0,0.0,0.0,0.0,0.0,0.0,0.0,0.0,0.0,0.0,0.0,0.0,-3.3297,-3.3761,-3.3761,-3.4823,-3.56,-3.56,-3.56,-3.56,-3.56,-3.56,-3.56,-3.56,-3.56,-3.5735,-3.6079,-3.6096,-3.6468,-3.7229,-3.7246,-3.7596,-3.83,-3.8513,-3.876,-3.9063,-3.8851,-3.874,-3.8686,-3.8258,-3.8184,0.0,-3.8366,-3.8366,-3.8382,-3.8611,-3.8562,0.0,0.0,0.0,0.0,0.0,-3.8395,-3.7936,-3.7459,-3.7267,-3.7197,-3.7197,-3.726,-3.725,-3.6776,-3.6831,-3.6872,-3.6059,-3.5916,-3.5923,-3.5596,-3.55,-3.55,-3.55,-3.55,-3.55,-3.55,-3.55,-3.55,-3.55,-3.55,0.0,-3.5596,-3.5648,-3.5675,-3.57,-3.5764,-3.5829,-3.5829,-3.5859,-3.59,-3.595,-3.5951,-3.5973,-3.5996,-3.5996,0.0,0.0,0.0,-3.5996,-3.5996,-3.5996,0.0,0.0,0.0,-3.5996,-3.5996,0.0,0.0,0.0,-3.5527,-3.5454,0.0,0.0,0.0,0.0,0.0,0.0,0.0,0.0,0.0,0.0,0.0,0.0,0.0,0.0,0.0,0.0,-3.212,-3.2586,-3.2586,-3.4202,-3.5385,-3.547,-3.5492,-3.5515,-3.56,-3.56,-3.5633,-3.5718,-3.5735,-3.6096,-3.6897,0.0,0.0,0.0,0.0,-3.8075,-3.8159,-3.8557,-3.8777,-3.8777,-3.9171,-3.9039,-3.8448,-3.8292,-3.8105,-3.7933,-3.7861,-3.7825,-3.786,-3.8334,-3.8251,-3.7894,-3.8465,-3.8707,-3.8707,-3.8707,-3.8707,-3.8707,-3.8707,0.0,0.0,-3.7986,-3.7686,-3.7318,-3.7224,-3.7385,-3.7424,-3.6615,-3.6564,-3.6569,-3.5785,-3.558,-3.5568,-3.5512,-3.55,-3.55,-3.55,-3.55,-3.55,-3.55,-3.55,-3.55,-3.55,-3.5552,-3.5606,-3.5679,-3.5682,-3.5689,-3.5689,-3.57,-3.5752,-3.5869,0.0,0.0,-3.5954,-3.5975,-3.5975,-3.5995,-3.5996,-3.5996,-3.5996,-3.5996,-3.5996,-3.5996,-3.5996,-3.5996,-3.5996,-3.5996,-3.5996,-3.5996,-3.583,-3.5735,0.0,0.0,0.0,0.0,0.0,0.0,0.0,0.0,0.0,0.0,0.0,0.0,0.0,0.0,0.0,-3.1511,-3.212,-3.2586,-3.2586,-3.3391,-3.4202,-3.4736,-3.4783,-3.5005,-3.5538,-3.56,-3.5876,-3.6502,-3.6575,-3.6891,-3.7652,-3.7686,-3.8024,-3.8751,-3.8785,-3.9056,-3.9673,-3.9755,-3.9812,-3.9812,0.0,0.0,-3.9376,-3.8187,-3.7854,-3.8191,-3.7589,-3.7341,-3.7341,-3.7451,-3.7433,-3.7433,-3.8334,-3.8707,-3.8707,-3.8707,-3.8707,-3.8707,-3.8707,-3.8643,-3.8556,-3.8556,-3.8632,-3.8581,-3.794,-3.7932,0.0,-3.7179,-3.6984,-3.6888,-3.6288,-3.615,-3.6048,-3.5592,-3.55,-3.55,-3.55,-3.55,-3.55,-3.55,-3.55,-3.55,-3.55,-3.5508,-3.5528,-3.554,-3.5574,-3.5631,-3.5631,-3.5675,-3.5713,-3.5749,-3.5749,-3.5735,-3.5752,-3.5752,-3.5795,-3.5913,-3.5973,-3.5974,-3.5916,-3.5973,-3.5996,-3.5996,-3.5996,-3.5996,-3.5996,-3.5996,-3.5996,-3.5996,-3.5954,-3.5933,0.0,0.0,0.0,0.0,0.0,0.0,0.0,0.0,0.0,0.0,0.0,-3.1511,0.0,0.0,-3.1511,-3.1511,-3.1796,-3.2064,-3.2064,-3.2339,-3.2944,-3.3987,-3.4112,-3.4358,-3.5012,-3.5098,-3.5572,-3.6721,-3.6795,-3.7286,-3.8396,-3.8447,-3.8785,-3.9537,-3.9554,-3.974,-4.0096,-4.0096,-4.0096,-4.0096,-3.974,-3.9481,-3.9303,-3.8191,-3.7771,-3.7866,-3.7116,-3.6803,-3.6803,-3.6803,-3.696,-3.7248,-3.7756,-3.8083,-3.8316,-3.8611,-3.8707,-3.8707,-3.8707,-3.8707,-3.8707,-3.8707,-3.8788,-3.882,-3.8422,-3.85,-3.8527,-3.7735,-3.7598,-3.754,-3.6866,-3.6698,-3.6529,-3.5853,-3.5802,-3.5787,-3.5392,-3.5417,-3.55,-3.55,-3.55,-3.55,-3.55,-3.55,-3.55,-3.55,-3.5541,-3.5552,-3.5552,-3.5582,-3.5616,-3.5642,-3.5646,-3.5671,-3.57,-3.5707,-3.5723,-3.5799,-3.5832,-3.5834,-3.5802,-3.5832,-3.5845,-3.5845,-3.5922,-3.5948,-3.5948,-3.5975,-3.5996,-3.5996,-3.5996,-3.5996,0.0,0.0,0.0,0.0,0.0,0.0,0.0,0.0,-3.1511,-3.1511,-3.1511,-3.1511,-3.1511,-3.1511,-3.1511,-3.1511,-3.1511,-3.1511,-3.1511,-3.1511,-3.1923,-3.305,-3.3313,-3.3659,-3.4333,-3.4659,-3.5361,-3.6703,-3.7064,-3.7811,-3.9123,-3.9208,-3.9503,-4.0079,-4.0096,-4.0096,-4.0096,-4.0096,-4.0096,-4.0096,-4.0096,-3.9791,-3.9174,-3.8311,-3.7791,-3.7538,-3.6624,-3.6228,-3.6228,-3.6228,-3.6501,-3.6904,-3.7001,-3.7285,-3.7667,-3.8218,-3.8483,-3.8546,-3.8546,-3.8611,-3.8707,-3.8707,-3.8707,-3.8707,-3.8707,-3.884,-3.8897,-3.8238,-3.8214,-3.8201,-3.746,-3.7265,-3.7069,-3.6311,-3.6167,-3.6036,-3.5407,-3.5305,-3.5361,-3.5398,-3.5424,-3.5439,-3.5493,-3.55,-3.55,-3.55,-3.55,-3.55,-3.55,-3.55,-3.5515,-3.5571,-3.5588,-3.5596,-3.5659,-3.5667,-3.5687,-3.5667,-3.5686,-3.5696,-3.5678,-3.5696,-3.5707,-3.5707,-3.5805,-3.5869,-3.5869,-3.5923,-3.5953,-3.5975,-3.5975,-3.5995,-3.0208,-3.097,-3.1511,-3.1511,-3.1511,-3.1511,0.0,0.0,-3.1511,-3.1511,-3.1511,-3.1511,-3.1511,-3.1511,-3.1511,-3.1511,-3.1511,-3.1511,-3.1511,-3.1511,-3.1553,-3.171,-3.2327,-3.2975,-3.3633,-3.4847,-3.5935,-3.6746,-3.8019,-3.9114,-3.9943,-3.9977,-4.0011,-4.0096,-4.0096,-4.0096,-4.0096,-4.0096,-4.0096,-4.0096,-4.0096,-4.0062,-3.9943,-3.8531,-3.7879,-3.778,-3.6322,-3.5694,-3.5694,-3.5694,-3.5717,-3.5832,-3.6291,-3.6519,-3.6623,-3.7154,-3.7614,-3.798,-3.798,-3.83,-3.8707,-3.8707,-3.8707,-3.8707,-3.8707,-3.8719,-3.8732,-3.864,-3.8633,-3.8516,-3.7952,-3.7808,-3.7667,-3.71,-3.6427,-3.5922,-3.5838,-3.5264,-3.487,-3.5096,-3.5138,-3.5215,-3.5453,-3.55,-3.55,-3.55,-3.55,-3.55,-3.55,-3.55,-3.5507,-3.5508,-3.5515,-3.5521,-3.5522,-3.5577,-3.5599,-3.5534,-3.5639,-3.5667,-3.5616,-3.5679,-3.5707,-3.5707,-3.5713,-3.572,-3.572,-3.5729,-3.5785,-3.591,-3.591,-3.5946,-2.9919,-3.0554,0.0,0.0,-3.1511,-3.1511,-3.1511,-3.1511,-3.1511,-3.1511,-3.1511,-3.1511,-3.1511,-3.1511,-3.1511,0.0,-3.1511,-3.1511,-3.1511,-3.1511,-3.1511,-3.1511,-3.1768,-3.2244,-3.2933,-3.3879,-3.5079,-3.6684,-3.7742,-3.8832,-4.0037,-4.0096,-4.0096,-4.0096,-4.0096,-4.0096,-4.0096,-4.0096,-4.0096,-4.0096,-4.0096,-4.0096,-4.0045,-3.8565,-3.7415,-3.6512,-3.587,-3.56,-3.56,-3.56,-3.56,-3.5622,-3.5849,-3.5941,-3.6032,-3.6884,-3.7323,-3.7488,-3.7488,-3.7825,-3.8232,-3.8232,-3.8449,-3.8707,-3.8707,-3.8707,-3.8707,-3.8707,-3.8707,-3.8646,-3.8409,-3.8379,-3.82,-3.7487,-3.7187,-3.6812,-3.5869,-3.5528,-3.5281,-3.4946,-3.4879,-3.4908,-3.5027,-3.5025,-3.5088,-3.5239,-3.5391,-3.55,-3.55,-3.55,-3.55,-3.55,-3.55,-3.55,-3.55,-3.5528,-3.5522,-3.5507,-3.5538,-3.5566,-3.5534,-3.5579,-3.5574,-3.5574,-3.5616,-3.5633,-3.5633,-3.5678,-3.5723,-3.5775,-3.5775,-3.5847,-2.9254,0.0,0.0,-3.097,-3.1161,-3.1219,-3.1438,-3.1511,-3.1511,-3.1511,-3.1511,-3.1511,-3.1511,-3.1511,-3.1511,-3.1511,-3.1511,-3.1511,-3.1511,-3.1511,-3.1511,-3.1511,-3.1511,-3.1786,-3.2504,-3.3329,-3.4556,-3.6346,-3.7297,-3.8274,-3.9394,-3.9454,-3.9558,-3.9756,-3.9782,-3.9876,-4.0096,-4.0096,-4.0096,-4.0096,-4.0096,-4.0096,-4.0045,-3.8565,-3.7077,-3.56,-3.56,-3.56,-3.56,-3.56,-3.56,-3.56,-3.56,-3.56,-3.5694,-3.6481,-3.6845,-3.698,-3.698,-3.7304,-3.7702,-3.7702,-3.7964,-3.8302,-3.8449,-3.8481,-3.8496,-3.8658,-3.8707,-3.8707,-3.8707,-3.8707,-3.856,-3.7955,-3.7811,-3.7399,-3.6022,-3.567,-3.5447,-3.469,-3.4561,-3.4582,-3.4684,-3.4694,-3.4773,-3.4963,-3.5147,-3.5327,-3.5486,-3.55,-3.55,-3.55,-3.55,-3.55,-3.55,-3.55,-3.55,-3.55,-3.55,-3.55,-3.55,-3.55,-3.55,-3.55,-3.5546,-3.5566,-3.5566,-3.5611,-3.5655,-3.5663,-3.5663,-3.5733,-2.7769,0.0,-2.9254,-3.0103,-3.0329,-3.0554,-3.1322,-3.1511,-3.1511,-3.1511,-3.1511,-3.1511,-3.1511,-3.1511,-3.1511,-3.1511,-3.1511,-3.1511,-3.1511,-3.1511,-3.1511,-3.1511,-3.1511,-3.175,0.0,-3.3808,-3.4922,-3.5604,-3.6999,-3.7819,-3.7879,-3.7879,-3.8206,-3.8908,-3.8935,-3.9315,-4.0096,-4.0096,-4.0096,-4.0096,-4.0096,-4.0096,-4.0045,-3.8565,-3.7077,-3.56,-3.56,-3.56,-3.56,-3.56,-3.56,-3.56,-3.56,-3.56,-3.56,-3.5644,-3.5985,-3.6416,-3.6416,-3.6783,-3.721,-3.721,-3.7229,-3.7323,-3.779,-3.7911,-3.803,-3.8546,-3.8707,-3.8707,-3.8707,-3.8707,-3.8689,-3.867,-3.8062,-3.7287,-3.6446,-3.562,-3.4865,-3.4308,-3.4211,-3.4323,-3.4643,-3.4694,-3.4694,-3.4704,-3.4714,-3.4917,-3.5432,-3.55,-3.55,-3.55,-3.55,-3.55,-3.55,-3.55,-3.55,-3.55,-3.55,-3.55,-3.55,-3.55,-3.55,-3.55,-3.5507,-3.5507,-3.5507,-3.5514,-3.5547,-3.5596,-3.5596,-3.5648,-2.7537,0.0,-2.833,-2.9223,-2.9442,-2.9504,-2.9797,-2.9858,-2.9858,-2.9858,-3.0299,-3.0703,-3.0703,-3.1161,-3.1511,-3.1511,-3.1511,-3.1511,-3.1511,-3.1511,-3.1511,-3.1511,-3.1511,0.0,0.0,0.0,0.0,-3.5516,-3.6453,-3.7249,-3.7764,-3.7793,-3.7921,-3.8161,-3.8177,-3.8318,-3.8569,-3.8569,-3.8569,-3.8569,-3.8134,-3.7643,-3.7169,-3.6671,-3.5889,-3.4965,-3.5407,-3.56,-3.56,-3.56,-3.56,-3.56,-3.56,-3.56,-3.56,-3.56,-3.5717,-3.5876,-3.5876,-3.6207,-3.6664,-3.6664,-3.6921,-3.7229,-3.7378,-3.7433,-3.747,-3.7649,-3.7929,-3.8167,-3.8167,-3.843,-3.8707,-3.8707,-3.8487,-3.8083,-3.7272,-3.645,-3.5634,-3.4879,-3.431,-3.3961,-3.4074,-3.4099,-3.4153,-3.4334,-3.4551,-3.4841,-3.519,-3.5231,-3.5304,-3.5486,-3.55,-3.55,-3.55,-3.55,-3.55,-3.55,-3.55,-3.55,-3.55,-3.55,-3.55,-3.55,-3.55,-3.55,-3.55,-3.55,-3.5515,-3.5534,-3.5534,-3.556,-2.7129,-2.7263,-2.7484,-2.833,-2.8524,-2.862,-2.8939,-2.9002,-2.9002,-2.9002,-2.9442,-2.9858,-2.9858,-3.0524,-3.1058,-3.1058,-3.1307,-3.1511,-3.1511,-3.1511,-3.1511,-3.1511,-3.1511,-3.2019,0.0,0.0,0.0,-3.5447,-3.5952,-3.643,-3.6951,-3.6981,-3.7086,-3.7352,-3.7368,-3.7515,-3.7793,-3.7793,-3.7793,-3.7806,-3.7126,-3.6421,-3.5705,-3.5448,-3.4945,-3.426,-3.4704,-3.5028,-3.523,-3.523,-3.5385,-3.56,-3.56,-3.56,-3.56,-3.56,-3.56,-3.56,-3.56,-3.5827,-3.6118,-3.6118,-3.6354,-3.6646,-3.6862,-3.6921,-3.6943,-3.7152,-3.7415,-3.7649,-3.7649,-3.8032,-3.8415,-3.8415,-3.8562,-3.8487,-3.7676,-3.7088,-3.6395,-3.5224,-3.4582,-3.4137,-3.3844,-3.3807,-3.3868,-3.4031,-3.4237,-3.4508,-3.4917,-3.4954,-3.507,-3.532,-3.5361,-3.541,-3.5493,-3.5398,-3.5361,-3.5361,-3.5361,-3.5361,-3.5361,-3.5446,-3.55,-3.55,-3.55,-3.55,-3.55,-3.55,-3.55,-3.55,-3.55,-3.5522,-2.6499,-2.6499,-2.6692,-2.7451,-2.7637,-2.7855,-2.8684,-2.8876,-2.8876,-2.8876,-2.8907,-2.8939,0.0,0.0,-3.0299,-3.0299,-3.097,-3.1511,-3.1511,-3.1511,-3.1511,0.0,0.0,0.0,0.0,0.0,0.0,-3.54,0.0,-3.5504,-3.5504,-3.5504,-3.5799,-3.6523,-3.6554,-3.6919,-3.7661,-3.7677,-3.769,-3.7613,-3.6965,-3.6262,-3.5505,-3.4872,-3.4212,-3.3556,-3.3582,-3.3962,-3.4552,-3.4552,-3.4918,-3.5492,-3.5492,-3.5492,-3.5492,-3.5492,-3.5515,-3.5538,-3.5538,-3.5577,-3.56,-3.56,-3.56,-3.5694,-3.6203,-3.6354,-3.6457,-3.6962,-3.7152,-3.7171,-3.7171,-3.7506,-3.7859,-3.7859,-3.8251,-3.8407,-3.7653,-3.7466,-3.6971,-3.5343,-3.499,-3.4692,-3.3935,-3.3807,-3.3807,-3.3807,-3.3807,-3.4018,-3.4601,-3.4674,-3.4774,-3.5062,-3.5088,-3.519,-3.5439,-3.5223,-3.5088,-3.5088,-3.5088,-3.5088,-3.5088,-3.5346,-3.5486,-3.5486,-3.5493,-3.55,-3.55,-3.55,-3.55,-3.55,-3.55,-3.55,-2.6499,-2.6499,-2.6555,-2.6748,-2.6816,-2.685,-2.7095,-2.7129,-2.7129,-2.7129,-2.7604,-2.8019,0.0,0.0,0.0,-3.0299,-3.097,0.0,-3.1511,-3.1511,0.0,-3.1511,0.0,-3.2019,-3.3365,-3.3499,0.0,0.0,-3.5504,-3.5504,-3.5504,-3.5504,-3.5587,-3.5782,-3.5782,-3.5878,-3.6085,-3.6085,-3.5857,-3.5324,-3.4653,-3.3982,-3.3311,-3.32,-3.304,-3.2895,-3.3391,-3.371,-3.3862,-3.3862,-3.3962,-3.4128,-3.4128,-3.4128,-3.4128,-3.4128,-3.4423,-3.4854,-3.4854,-3.5184,-3.56,-3.56,-3.56,-3.5622,-3.5761,-3.5788,-3.5832,-3.5968,-3.6291,-3.6603,-3.6603,-3.6981,-3.7378,-3.7378,-3.747,-3.7524,-3.7327,-3.7086,-3.6596,-3.5566,-3.4695,-3.4045,-3.3844,-3.3807,-3.3807,-3.3807,-3.3807,-3.3928,-3.4288,-3.4334,-3.4445,-3.4764,-3.4793,-3.4841,-3.4908,-3.4832,-3.4793,-3.4793,-3.4793,-3.4793,-3.4793,-3.507,-3.5207,-3.5207,-3.5391,-3.55,-3.55,-3.55,-3.55,-3.55,-3.55,-3.55,-2.6499,-2.6499,-2.6499,-2.6499,-2.6499,-2.6499,-2.6499,-2.6499,-2.6499,-2.6499,-2.685,0.0,-2.7162,0.0,0.0,0.0,0.0,0.0,-3.1438,-3.1511,-3.1511,0.0,-3.1511,0.0,-3.3365,-3.3499,-3.4053,0.0,-3.5504,-3.5504,-3.5504,-3.5504,-3.5504,-3.5504,-3.5504,-3.5504,-3.5504,-3.5205,-3.4861,-3.4503,-3.3514,-3.2871,-3.2482,-3.2226,-3.212,-3.2148,0.0,-3.2853,-3.3172,-3.3172,-3.3339,-3.3582,-3.3582,-3.3582,-3.3582,-3.3582,-3.3836,-3.4161,-3.4161,-3.4592,-3.5207,-3.5492,-3.56,-3.56,-3.56,-3.56,-3.56,-3.56,-3.5827,-3.6054,-3.6054,-3.6457,-3.6843,-3.6843,-3.7038,-3.7209,-3.7209,-3.7058,-3.6576,-3.5431,-3.4568,-3.3927,-3.3591,-3.3694,-3.3807,-3.3807,-3.3807,-3.3855,-3.4012,-3.4018,-3.4153,-3.4453,-3.4486,-3.454,-3.4684,-3.4561,-3.4486,-3.4486,-3.4486,-3.4486,-3.4486,-3.4774,-3.4926,-3.4926,-3.5079,-3.5138,-3.5138,-3.5273,-3.532,-3.5339,-3.5446,-3.55,-2.6499,-2.6499,-2.6499,-2.6499,-2.6499,-2.6499,-2.6499,-2.6499,-2.6499,-2.6499,0.0,-2.6499,-2.6499,-2.7162,-2.7953,-2.8716,0.0,-3.0359,-3.1058,-3.1161,-3.1219,-3.1322,-3.1351,-3.1916,-3.3365,-3.3499,-3.4053,-3.54,-3.5504,-3.5504,-3.5504,-3.5504,-3.5504,-3.5504,-3.5504,-3.5459,-3.537,-3.4771,-3.4414,-3.4234,-3.3066,-3.2437,-3.2333,-3.1765,-3.1511,-3.1511,-3.1511,0.0,-3.2465,-3.2465,-3.2788,-3.3323,-3.3323,-3.3323,-3.3323,-3.3323,-3.3375,-3.3469,-3.3469,-3.3912,-3.4592,-3.5253,-3.5515,-3.56,-3.56,-3.56,-3.56,-3.56,-3.56,-3.56,-3.56,-3.5941,-3.6291,-3.6291,-3.6643,-3.6981,-3.6981,-3.6969,-3.6514,-3.5084,-3.4472,-3.3979,-3.3234,-3.339,-3.362,-3.362,-3.3694,-3.3707,-3.3634,-3.3734,-3.3889,-3.4123,-3.4147,-3.4265,-3.4559,-3.4311,-3.4147,-3.4147,-3.4147,-3.4147,-3.4147,-3.4464,-3.4643,-3.4643,-3.4674,-3.4694,-3.4694,-3.4935,-3.5053,-3.5043,-3.5289,-3.5391,-2.6499,-2.6499,-2.6499,-2.6499,-2.6499,-2.6499,-2.6499,-2.6499,0.0,0.0,-2.6499,-2.6499,-2.6499,-2.7162,-2.7769,-2.7887,0.0,0.0,0.0,0.0,-2.969,0.0,0.0,0.0,0.0,0.0,0.0,0.0,0.0,-3.5504,-3.5504,-3.5504,-3.5504,-3.5504,-3.5504,-3.5235,-3.4698,-3.4563,-3.3918,-3.2856,-3.2617,-3.2198,-3.1675,-3.1555,-3.1511,-3.1511,-3.1511,0.0,-3.1697,-3.1697,-3.1768,-3.1866,-3.1866,-3.1866,-3.1866,-3.1866,-3.2256,-3.2761,-3.2761,-3.3209,-3.3887,-3.4568,-3.5144,-3.56,-3.56,-3.56,-3.56,-3.56,-3.56,-3.56,-3.56,-3.5672,-3.5739,-3.5739,-3.581,-3.5876,-3.5876,-3.5687,-3.5403,-3.4906,-3.4216,-3.3488,-3.2758,-3.2681,-3.2729,-3.2729,-3.306,-3.3151,-3.2777,-3.3343,-3.3815,-3.385,-3.3863,-3.3889,-3.3954,-3.3902,-3.3863,-3.3863,-3.3863,-3.3863,-3.3863,-3.4153,-3.43,-3.43,-3.4561,-3.4694,-3.4694,-3.4763,-3.4764,-3.4764,-3.4832,-3.4851,-2.6499,-2.6499,-2.6499,-2.6499,-2.6499,-2.6499,-2.6499,0.0,0.0,0.0,-2.6499,-2.6499,-2.6499,0.0,0.0,0.0,0.0,0.0,0.0,0.0,0.0,0.0,0.0,0.0,0.0,0.0,0.0,0.0,0.0,-3.4442,-3.5439,-3.5504,-3.5504,-3.5504,-3.5504,-3.5175,-3.4518,-3.4159,-3.3484,-3.2512,-3.2138,-3.1809,-3.1511,-3.1511,-3.1511,-3.1511,-3.1511,0.0,-3.1511,-3.1511,-3.1511,-3.1511,-3.1511,-3.1511,-3.1511,-3.1511,-3.171,-3.2035,-3.2035,-3.2504,-3.3145,-3.3469,-3.4012,-3.456,-3.456,-3.48,-3.5075,-3.5075,-3.5339,-3.56,-3.56,-3.56,-3.56,-3.56,-3.56,-3.56,-3.56,-3.5494,-3.5261,-3.474,-3.4212,-3.363,-3.2896,-3.2632,-3.2501,-3.2501,-3.2697,-3.2745,-3.2534,-3.2872,-3.3118,-3.3118,-3.3346,-3.3494,-3.3494,-3.368,-3.3807,-3.3807,-3.3807,-3.3807,-3.3807,-3.391,-3.3999,-3.3999,-3.416,-3.4232,-3.4232,-3.4375,-3.4434,-3.4434,-3.4622,-3.4694,-2.6499,-2.6499,-2.6499,-2.6499,-2.6499,-2.6499,-2.6499,-2.6499,0.0,0.0,-2.6499,-2.6499,-2.6499,0.0,0.0,0.0,0.0,0.0,0.0,0.0,0.0,0.0,0.0,0.0,0.0,0.0,0.0,0.0,0.0,0.0,-3.51,-3.518,-3.5279,-3.5504,-3.5355,-3.4951,-3.4294,-3.3619,-3.2961,-3.2273,-3.175,-3.1511,-3.1511,-3.1511,-3.1511,-3.1511,-3.1511,0.0,0.0,-3.1511,-3.1511,-3.1511,-3.1511,-3.1511,-3.1511,-3.1511,-3.1511,-3.1511,-3.1511,-3.1881,-3.2355,-3.2355,-3.2906,-3.3582,-3.3582,-3.3962,-3.4382,-3.4382,-3.4776,-3.5207,-3.5339,-3.5293,-3.5224,-3.5362,-3.5492,-3.56,-3.56,-3.56,-3.538,-3.4641,-3.4336,-3.3896,-3.3005,-3.263,-3.2406,-3.2248,-3.2299,-3.2316,-3.223,-3.2299,-3.2316,-3.223,-3.2713,-3.3045,-3.3045,-3.3419,-3.368,-3.368,-3.3748,-3.3807,-3.3807,-3.3807,-3.3807,-3.3807,-3.3807,-3.3807,-3.3807,-3.4006,-3.4111,-3.4123,-3.4386,-3.4516,-2.6499,-2.6499,-2.6499,-2.6499,-2.6499,-2.6499,-2.6499,0.0,0.0,-2.6499,-2.6499,-2.6499,-2.6499,-2.6499,-2.6521,0.0,0.0,-2.6658,0.0,0.0,0.0,0.0,0.0,0.0,0.0,0.0,0.0,0.0,0.0,0.0,-3.4061,-3.4129,-3.4543,-3.5472,-3.4906,-3.4279,-3.3589,-3.2931,-3.2243,-3.1585,-3.1525,-3.1511,-3.1511,-3.1511,-3.1511,-3.1511,-3.1511,0.0,0.0,-3.1511,-3.1511,-3.1511,-3.1511,-3.1511,-3.1511,-3.1511,-3.1511,-3.1511,-3.1511,-3.1524,-3.1611,-3.1611,-3.2516,-3.3582,-3.3582,-3.3633,-3.3684,-3.3684,-3.3735,-3.3912,-3.4528,-3.4235,-3.3937,-3.4568,-3.5161,-3.56,-3.56,-3.56,-3.538,-3.4641,-3.4481,-3.4016,-3.2608,-3.2326,-3.2094,-3.1412,-3.1621,-3.1733,-3.137,-3.164,-3.1715,-3.1351,-3.2074,-3.2567,-3.2567,-3.2999,-3.3258,-3.3258,-3.3592,-3.3807,-3.3807,-3.3807,-3.3807,-3.3807,-3.3807,-3.3807,-3.3807,-3.3815,-3.3842,-3.3842,-3.3868,-3.3881,-2.6499,-2.6499,-2.6499,-2.6499,-2.6499,-2.6499,-2.6499,0.0,-2.6499,-2.6499,-2.6499,-2.6499,-2.6499,-2.6499,-2.6499,-2.6499,-2.6499,0.0,0.0,0.0,0.0,0.0,0.0,0.0,0.0,0.0,0.0,0.0,0.0,0.0,-3.2249,-3.2855,-3.319,-3.3278,-3.3006,-3.2391,-3.1389,-3.1131,-3.0671,-3.0011,-3.0011,-3.0011,-3.0011,-3.0011,-3.0269,-3.0777,-3.0777,0.0,0.0,-3.1511,-3.1511,-3.1511,-3.1511,-3.1511,-3.1511,-3.1511,-3.1511,-3.1511,-3.1511,-3.1511,-3.1511,-3.1511,-3.1894,-3.2339,-3.2339,-3.2652,-3.2986,-3.2986,-3.3287,-3.3659,-3.3937,-3.3811,-3.3659,-3.3937,-3.4186,-3.4399,-3.4399,-3.4399,-3.4317,-3.4022,-3.3935,-3.3567,-3.253,-3.2333,-3.2056,-3.1309,-3.1332,-3.1389,-3.123,-3.1332,-3.1389,-3.121,-3.1732,-3.2074,-3.2074,-3.2517,-3.2777,-3.2777,-3.2934,-3.3011,-3.3011,-3.3011,-3.3011,-3.3011,-3.3011,-3.3166,-3.3451,-3.3451,-3.3564,-3.3807,-3.3807,-3.3807,-2.5687,-2.5838,-2.5978,-2.5687,-2.5838,-2.599,0.0,0.0,-2.5604,-2.5604,-2.5604,-2.5687,-2.5978,-2.606,-2.6164,-2.6465,-2.6499,-2.6499,-2.6499,0.0,0.0,0.0,0.0,0.0,0.0,0.0,0.0,0.0,0.0,0.0,0.0,-3.1229,-3.1621,-3.1778,-3.1598,-3.1003,-3.0012,-2.9785,-2.9481,-2.9002,-2.9002,-2.9002,-2.9002,-2.9002,-2.9317,-2.9919,-2.9919,0.0,0.0,-3.0777,-3.0777,-3.0807,-3.1029,-3.1161,-3.1161,-3.1409,-3.1511,-3.1511,-3.1511,-3.1511,-3.1511,-3.1511,-3.1511,-3.1511,-3.1511,-3.1853,-3.2272,-3.2272,-3.2788,-3.3261,-3.3024,-3.3287,-3.3556,-3.3365,-3.3469,-3.3582,-3.3582,-3.3582,-3.3582,-3.3582,-3.3558,-3.3297,-3.2548,-3.2215,-3.1807,-3.1071,-3.0792,-3.0679,-3.0679,-3.0679,-3.074,-3.0918,-3.1186,-3.1437,-3.1621,-3.2039,-3.2281,-3.2281,-3.2434,-3.2501,-3.2501,-3.2501,-3.2501,-3.2501,-3.2501,-3.2665,-3.2999,-3.2999,-3.3136,-3.3419,-3.3564,-3.3694,-2.3818,-2.4264,-2.4791,-2.3781,-2.4264,-2.4743,0.0,-2.3514,-2.3514,-2.3514,-2.3514,-2.3854,-2.4826,-2.5016,-2.5335,-2.6349,-2.6499,-2.6499,0.0,0.0,0.0,0.0,0.0,0.0,0.0,0.0,0.0,0.0,0.0,0.0,0.0,-2.9252,-2.9803,-3.173,-3.1163,-3.0555,-3.0012,-2.9338,-2.9016,-2.9002,-2.9002,-2.9002,-2.9002,-2.9002,-2.9002,0.0,0.0,0.0,0.0,-2.9034,-2.9034,-2.9097,-2.9981,-3.0299,-3.0419,-3.1219,-3.1511,-3.1511,-3.1511,-3.1511,-3.1511,-3.1511,-3.1511,-3.1511,-3.1511,-3.1511,-3.1496,-3.1496,-3.2035,-3.2437,-3.171,-3.2555,-3.3443,-3.2776,-3.3119,-3.3582,-3.3582,-3.3582,-3.3582,-3.3582,-3.3608,-3.3358,-3.2636,-3.195,-3.1254,-3.0519,-2.9854,-2.9429,-2.9429,-2.9429,-2.9651,-3.0251,-3.0314,-3.0559,-3.1151,-3.1565,-3.1807,-3.1807,-3.223,-3.2501,-3.2501,-3.2501,-3.2501,-3.2501,-3.2501,-3.2501,-3.2517,-3.2517,-3.2517,-3.2517,-3.2999,-3.3422,-2.3588,-2.3745,-2.3891,-2.3599,-2.3745,-2.3891,-2.3551,-2.3514,-2.3514,-2.3514,-2.3514,-2.3599,-2.3927,-2.3963,-2.4072,-2.4397,-2.4433,-2.4696,0.0,0.0,0.0,0.0,0.0,0.0,0.0,0.0,0.0,0.0,0.0,0.0,-2.8637,-2.8461,-2.8642,-2.9256,-2.8698,-2.8161,-2.759,-2.7408,-2.7284,-2.7284,-2.7284,-2.7284,-2.7284,-2.7284,-2.7571,0.0,0.0,0.0,0.0,-2.9002,-2.9002,-2.9034,-2.9286,-2.9411,-2.9442,-2.969,-2.9797,-2.9797,-2.9797,-2.9797,-2.9797,-2.9797,-2.9797,-2.9797,-2.9797,-3.0584,-3.1511,-3.1511,-3.1668,-3.1796,-3.1553,-3.1838,-3.2104,-3.1894,-3.1992,-3.2173,-3.2173,-3.2173,-3.2173,-3.2173,-3.2571,-3.266,-3.1888,-3.1975,-3.1773,-3.0591,-3.0224,-2.9927,-2.947,-2.9406,-2.9473,-2.9651,-2.9673,-3.0102,-3.1114,-3.1329,-3.1389,-3.1389,-3.1524,-3.1601,-3.1601,-3.1601,-3.1601,-3.1601,-3.1601,-3.175,-3.2022,-3.2022,-3.2196,-3.2501,-3.2648,-3.2793,0.0,-2.2664,-2.285,-2.2489,-2.2664,0.0,0.0,-2.2414,-2.2414,-2.2414,-2.2414,-2.2526,-2.2888,-2.2925,-2.3073,-2.3441,-2.3514,0.0,0.0,0.0,0.0,0.0,0.0,0.0,0.0,0.0,0.0,0.0,0.0,0.0,-2.8109,-2.7908,-2.7795,-2.7795,-2.7457,-2.7052,-2.6499,-2.6499,-2.6499,-2.6499,-2.6499,-2.6499,-2.6499,-2.6499,-2.6782,0.0,0.0,0.0,0.0,-2.8051,-2.8051,-2.8084,-2.8395,-2.8524,-2.8556,-2.8876,-2.9002,-2.9002,-2.9002,-2.9002,-2.9002,-2.9002,-2.9002,-2.9002,-2.9002,-2.995,-3.1058,-3.1058,-3.1278,-3.1511,-3.1511,-3.1511,-3.1511,-3.1511,-3.1511,-3.1511,-3.1511,-3.1511,-3.1511,-3.1511,-3.1881,-3.2023,-3.1525,-3.1597,-3.1368,-3.0261,-2.9871,-2.9489,-2.8811,-2.8717,-2.881,-2.9042,-2.9042,-2.9451,-3.0435,-3.072,-3.0858,-3.0858,-3.1075,-3.119,-3.119,-3.119,-3.119,-3.119,-3.119,-3.1312,-3.1565,-3.1565,-3.1806,-3.2248,-3.2248,-3.2333,0.0,-2.1231,-2.1697,0.0,0.0,0.0,-2.0789,-2.0605,0.0,-2.0605,-2.0605,-2.0857,-2.1735,-2.1886,-2.2215,-2.3147,0.0,0.0,0.0,0.0,0.0,0.0,0.0,0.0,0.0,0.0,0.0,0.0,0.0,0.0,-2.7752,-2.7315,-2.7028,-2.7028,-2.7028,-2.6862,-2.6499,-2.6499,-2.6499,-2.6499,-2.6499,-2.6499,-2.6499,-2.6499,-2.6499,0.0,0.0,0.0,0.0,-2.6499,-2.6499,-2.6555,-2.7317,-2.7604,-2.7703,-2.8524,-2.8812,-2.8812,-2.8812,-2.8812,-2.8812,-2.8812,-2.8812,-2.8812,-2.8812,-2.9473,-3.0208,-3.0208,-3.0748,-3.1322,-3.1322,-3.1322,-3.1322,-3.1322,-3.138,-3.1409,-3.1409,-3.1467,-3.1511,-3.1511,-3.1511,-3.1511,-3.1511,-3.0972,-3.0357,-2.9771,-2.9086,-2.8427,-2.7764,-2.763,-2.781,-2.8383,-2.8455,-2.8662,-2.9225,-2.9848,-3.023,-3.023,-3.076,-3.1075,-3.1075,-3.1075,-3.1075,-3.1075,-3.1114,-3.1151,-3.1151,-3.1171,-3.1391,-3.1752,-3.1752,-3.2004,-2.0605,0.0,-2.0895,-2.0644,-2.0789,-2.0857,0.0,-2.0605,-2.0605,-2.0605,0.0,-2.0673,-2.0895,-2.0934,-2.1011,0.0,0.0,0.0,0.0,0.0,0.0,0.0,0.0,0.0,0.0,0.0,0.0,0.0,0.0,-2.4574,-2.4574,-2.4459,-2.439,-2.439,-2.439,-2.5076,-2.6499,-2.6499,-2.6499,-2.6499,-2.6499,-2.6499,-2.6499,-2.6499,-2.6499,0.0,0.0,0.0,-2.6499,-2.6499,-2.6499,-2.6521,-2.6714,-2.6782,-2.6816,-2.7007,-2.7095,-2.7095,-2.7095,-2.7095,-2.7095,-2.7095,-2.7095,-2.7095,-2.7095,-2.8149,-2.9317,-2.9317,-2.9442,-2.9597,-2.9597,-2.9597,-2.9597,-2.9597,-3.0103,-3.0584,-3.0584,-3.1058,-3.1511,-3.1511,-3.1511,-3.1511,-3.1511,-3.1376,-3.1032,-3.0387,-2.9759,-2.9101,-2.8442,-2.7929,-2.7635,-2.781,-2.781,-2.7885,-2.8002,-2.8996,-2.9607,-2.9607,-2.9739,-2.9827,-2.9827,-2.9827,-2.9827,-2.9827,-3.0272,-3.0518,-3.0518,-3.0975,-3.1249,-3.1332,-3.1332,-3.1408,-2.0605,-2.0605,-2.0605,-2.0605,-2.0605,-2.0605,-2.0605,-2.0605,-2.0605,0.0,0.0,0.0,0.0,0.0,0.0,0.0,0.0,0.0,0.0,0.0,0.0,0.0,0.0,0.0,0.0,0.0,0.0,0.0,0.0,-2.3514,-2.3514,-2.3514,-2.3514,-2.3514,-2.3514,-2.4024,-2.5099,-2.5581,-2.5804,-2.5804,-2.628,-2.6499,-2.6499,-2.6499,-2.6499,0.0,0.0,0.0,-2.6499,-2.6499,-2.6499,-2.6499,-2.6499,-2.6499,-2.6499,-2.6499,-2.6499,-2.6499,-2.6499,-2.6499,-2.6499,-2.6499,-2.6499,-2.6499,-2.6499,-2.7129,-2.792,-2.8298,-2.8684,-2.9002,-2.9002,-2.9002,-2.9002,-2.9002,-2.9348,-2.969,-2.969,-3.0042,-3.0359,-3.0359,-3.0359,-3.0359,-3.0359,-3.0359,-3.0262,-2.9986,-2.9661,-2.9256,-2.8659,-2.8263,-2.7944,-2.763,-2.76,-2.76,-2.76,-2.8198,-2.8693,-2.8966,-2.9248,-2.9406,-2.9406,-2.9406,-2.9406,-2.9406,-2.9717,-2.9908,-2.9908,-3.0208,-3.0356,-3.0356,-3.0356,-3.0518,-2.0605,-2.0605,-2.0605,-2.0605,-2.0605,-2.0605,-2.0605,0.0,0.0,0.0,0.0,0.0,0.0,0.0,0.0,0.0,0.0,0.0,0.0,0.0,0.0,0.0,0.0,0.0,0.0,0.0,0.0,0.0,0.0,-2.3047,-2.3047,-2.3047,-2.3047,-2.3047,-2.3047,-2.3047,-2.3047,-2.4192,-2.4779,-2.4791,-2.5616,-2.6047,-2.6047,-2.6047,-2.6047,-2.6047,0.0,0.0,-2.6047,-2.6198,-2.628,-2.628,-2.6452,-2.6499,-2.6499,-2.6499,-2.6499,-2.6499,-2.6499,-2.6499,-2.6452,-2.6314,-2.628,-2.6245,-2.6094,-2.6164,-2.6405,-2.7103,-2.794,-2.862,-2.862,-2.862,-2.862,-2.862,-2.8716,-2.8812,-2.8812,-2.8907,-2.9002,-2.9002,-2.9002,-2.9002,-2.9002,-2.9002,-2.9056,-2.9237,-2.9169,-2.8973,-2.8567,-2.8352,-2.8039,-2.7447,-2.7299,-2.7265,-2.7265,-2.7265,-2.753,-2.8174,-2.8787,-2.9134,-2.9134,-2.9134,-2.9134,-2.9134,-2.9225,-2.9248,-2.9248,-2.9361,-2.9406,-2.9406,-2.9406,-2.9673,-2.0605,-2.0605,-2.0605,-2.0605,-2.0605,-2.0605,-2.0605,-2.0605,0.0,0.0,0.0,0.0,0.0,0.0,0.0,0.0,0.0,0.0,0.0,0.0,0.0,0.0,0.0,0.0,0.0,0.0,0.0,0.0,0.0,0.0,-2.1049,-2.1049,-2.1049,-2.1049,-2.1049,-2.1049,-2.1049,-2.2824,-2.3745,-2.3745,-2.3891,-2.3963,-2.3963,-2.3963,-2.3963,-2.3963,0.0,-2.3963,-2.4036,-2.4898,-2.5229,-2.53,-2.6164,-2.6499,-2.6499,-2.6499,-2.6499,-2.6499,-2.6499,-2.6499,-2.6349,-2.5523,-2.5229,-2.5075,-2.4217,-2.4552,-2.5264,-2.5381,-2.6126,-2.6871,-2.6871,-2.6871,-2.6871,-2.6871,-2.7384,-2.7887,-2.7887,-2.8492,-2.9002,-2.9002,-2.9002,-2.9002,-2.9002,-2.9002,-2.9006,-2.9035,-2.8546,-2.8188,-2.8084,-2.7194,-2.6524,-2.6427,-2.6008,-2.5728,-2.5728,-2.5728,-2.6054,-2.6759,-2.7479,-2.787,-2.787,-2.787,-2.787,-2.787,-2.8367,-2.8654,-2.8654,-2.9157,-2.9406,-2.9406,-2.9406,-2.9451,-2.044,-2.0605,-2.044,-1.9883,-1.9717,-1.9559,-1.8948,-1.9274,-1.9717,0.0,0.0,0.0,0.0,0.0,0.0,0.0,0.0,0.0,0.0,0.0,0.0,0.0,0.0,0.0,0.0,0.0,0.0,0.0,0.0,0.0,-2.0605,-2.0605,-2.0605,-2.0605,-2.0605,-2.0605,-2.0605,-2.1489,-2.2188,-2.2702,-2.3257,-2.3514,-2.3514,-2.3514,-2.3514,-2.3514,0.0,-2.3514,-2.3526,-2.4,-2.4192,-2.4228,-2.4696,-2.4874,-2.4874,-2.4874,-2.4874,-2.4874,-2.4874,-2.4874,-2.4803,-2.4337,-2.4192,-2.4108,-2.3635,-2.3818,-2.4192,-2.4192,-2.5323,-2.6499,-2.6499,-2.6499,-2.6499,-2.6499,-2.6782,-2.704,-2.704,-2.7384,-2.7637,-2.7637,-2.7637,-2.7637,-2.7637,-2.7637,-2.7802,-2.8247,-2.8037,-2.7881,-2.7992,-2.7531,-2.6925,-2.6278,-2.599,-2.5729,-2.5425,-2.5398,-2.5701,-2.6457,-2.7188,-2.76,-2.76,-2.76,-2.76,-2.76,-2.7885,-2.8018,-2.8018,-2.8295,-2.8424,-2.8424,-2.8424,-2.8614,-1.9599,-1.9835,-1.955,-1.851,-1.863,-1.8718,-1.7545,-1.7989,-1.8598,0.0,0.0,0.0,0.0,0.0,0.0,0.0,0.0,0.0,0.0,0.0,0.0,0.0,0.0,0.0,0.0,0.0,0.0,0.0,0.0,0.0,-2.0605,-2.0605,-2.0605,-2.0605,-2.0605,-2.0605,-2.0605,-2.0605,-2.0972,-2.1669,-2.244,-2.2824,-2.2824,-2.2824,-2.2824,-2.2824,-2.2824,-2.2824,-2.2861,-2.3073,-2.3147,-2.3184,-2.3404,-2.3514,-2.3514,-2.3514,-2.3514,-2.3514,-2.3514,-2.3514,-2.3441,-2.322,-2.3147,-2.311,-2.2888,-2.2962,-2.3147,-2.3147,-2.4433,-2.5791,-2.5791,-2.5791,-2.5791,-2.5791,-2.5978,-2.6129,-2.6129,-2.6349,-2.6499,-2.6499,-2.6499,-2.6499,-2.6499,-2.6499,-2.6714,-2.7317,-2.7417,-2.7479,-2.7628,-2.7534,-2.7089,-2.6169,-2.5819,-2.5457,-2.4907,-2.5035,-2.537,-2.596,-2.668,-2.7071,-2.7071,-2.7071,-2.7071,-2.7071,-2.724,-2.7331,-2.7331,-2.7524,-2.76,-2.76,-2.76,-2.786,-1.7504,-1.7536,-1.7293,-1.6232,-1.7488,-1.8718,-1.7545,-1.7374,0.0,-1.7415,0.0,0.0,0.0,0.0,0.0,0.0,0.0,0.0,0.0,0.0,0.0,0.0,0.0,0.0,0.0,0.0,0.0,0.0,0.0,0.0,-2.0605,-2.0605,-2.0605,-2.0605,-2.0605,-2.0605,-2.0605,-2.0605,-2.0644,-2.0712,-2.0789,-2.0828,-2.0828,-2.0828,-2.0828,-2.0828,-2.0828,-2.0828,-2.0867,-2.1735,-2.2103,-2.2215,-2.3147,-2.3514,-2.3514,-2.3514,-2.3514,-2.3514,-2.3514,-2.3514,-2.3331,-2.2403,-2.2103,-2.1962,-2.1088,-2.1413,-2.2103,-2.2103,-2.2888,-2.3708,-2.3708,-2.3708,-2.3708,-2.3708,-2.4445,-2.5123,-2.5123,-2.5838,-2.6499,-2.6499,-2.6499,-2.6499,-2.6499,-2.6499,-2.6521,-2.6589,-2.6589,-2.6577,-2.6607,-2.6127,-2.576,-2.5638,-2.4741,-2.3907,-2.3326,-2.3943,-2.4408,-2.4452,-2.5147,-2.5563,-2.5563,-2.5563,-2.5563,-2.5563,-2.6229,-2.659,-2.659,-2.728,-2.76,-2.76,-2.76,-2.7625,-1.7131,-1.7302,-1.705,-1.5985,-1.6347,-1.6683,0.0,-1.5835,-1.6314,-1.6314,-1.6846,0.0,0.0,0.0,0.0,0.0,0.0,0.0,0.0,0.0,0.0,0.0,0.0,0.0,0.0,0.0,0.0,0.0,0.0,0.0,0.0,-2.0605,-2.0605,-2.0605,-2.0605,-2.0605,-2.0605,-2.0605,-2.0605,-2.0605,-2.0605,-2.0605,-2.0605,-2.0605,-2.0605,-2.0605,-2.0605,-2.0605,-2.0644,-2.0972,-2.1116,-2.1155,-2.1565,-2.1718,-2.1718,-2.1718,-2.1718,-2.1718,-2.1718,-2.1718,-2.1642,-2.127,-2.1116,-2.1039,-2.0712,-2.0857,-2.1116,-2.1116,-2.1413,-2.1973,-2.3195,-2.3514,-2.3514,-2.3514,-2.3781,-2.4072,-2.4072,-2.4361,-2.4624,-2.4624,-2.4624,-2.4624,-2.4624,-2.5134,-2.5581,-2.5581,-2.6094,-2.6499,-2.6499,-2.6298,-2.6034,-2.5636,-2.4632,-2.3916,-2.369,-2.3598,-2.356,-2.356,-2.4724,-2.5398,-2.5398,-2.5398,-2.5398,-2.5398,-2.5673,-2.581,-2.581,-2.6549,-2.6904,-2.693,-2.7382,-2.76,-1.6083,-1.6281,-1.6116,-1.5379,-1.5171,0.0,-1.425,-1.4657,-1.5171,-1.5171,-1.5794,0.0,0.0,0.0,0.0,0.0,0.0,0.0,0.0,0.0,0.0,0.0,0.0,0.0,0.0,0.0,0.0,0.0,0.0,0.0,0.0,-1.9559,-1.9559,-1.9559,-1.9923,-2.0079,-2.0079,-2.044,-2.0605,-2.0605,-2.0605,-2.0605,-2.0605,-2.0605,-2.0605,-2.0605,-2.0605,-2.0605,-2.0605,-2.0605,-2.0605,-2.0605,-2.0605,-2.0605,-2.0605,-2.0605,-2.0605,-2.0605,-2.0605,-2.0605,-2.0605,-2.0605,-2.0605,-2.0605,-2.0605,-2.0605,-2.0605,-2.0605,-2.0605,-2.0905,-2.2226,-2.2601,-2.2601,-2.2601,-2.2813,-2.3036,-2.3036,-2.3294,-2.3514,-2.3514,-2.3514,-2.3514,-2.3514,-2.4072,-2.4528,-2.4528,-2.5099,-2.5534,-2.5534,-2.5838,-2.5918,-2.5628,-2.4673,-2.4038,-2.3998,-2.364,-2.3296,-2.3108,-2.4092,-2.4654,-2.4654,-2.4654,-2.4654,-2.4654,-2.4922,-2.5035,-2.5035,-2.5783,-2.6149,-2.6176,-2.668,-2.6916,-1.4088,-1.4088,-1.4088,0.0,0.0,0.0,-1.4088,-1.4088,-1.4088,-1.4088,0.0,-1.4088,-1.4088,0.0,0.0,0.0,0.0,0.0,0.0,0.0,0.0,0.0,0.0,0.0,0.0,0.0,0.0,0.0,0.0,0.0,0.0,-1.7302,-1.7302,-1.7302,-1.839,-1.8997,-1.8997,-2.004,-2.0566,-2.0566,-2.0566,-2.0566,-2.0605,-2.0605,-2.0605,-2.0605,-2.0605,-2.0605,-2.0605,-2.0605,-2.0605,-2.0605,-2.0605,-2.0605,-2.0605,-2.0605,-2.0605,-2.0605,-2.0605,-2.0605,-2.0605,-2.0605,-2.0605,-2.0605,-2.0605,-2.0605,-2.0605,-2.0605,-2.0605,-2.0605,-2.0605,-2.0605,-2.0605,-2.0605,-2.1298,-2.1989,-2.1989,-2.2776,-2.3478,-2.3478,-2.3478,-2.3478,-2.3478,-2.3478,-2.3478,-2.3478,-2.3478,-2.3514,-2.3514,-2.4373,-2.513,-2.5528,-2.4745,-2.4119,-2.401,-2.3973,-2.3722,-2.3115,-2.3078,-2.3078,-2.3108,-2.3108,-2.3108,-2.3108,-2.3884,-2.4292,-2.4292,-2.5035,-2.5398,-2.5398,-2.5398,-2.5398,-1.4088,-1.4088,0.0,-1.4088,0.0,0.0,0.0,-1.4088,0.0,0.0,-1.4088,-1.4088,0.0,0.0,0.0,0.0,0.0,0.0,0.0,0.0,0.0,0.0,0.0,0.0,0.0,0.0,0.0,0.0,0.0,0.0,0.0,-1.7302,-1.7302,-1.7302,-1.7626,-1.7779,-1.7779,-1.8101,-1.827,-1.827,-1.827,-1.9107,-2.0605,-2.0605,-2.0605,-2.0605,-2.0605,-2.0605,-2.0605,-2.0605,-2.0605,-2.0605,-2.0605,-2.0605,-2.0605,-2.0605,-2.0605,-2.0605,-2.0605,-2.0605,-2.0605,-2.0605,-2.0605,-2.0605,-2.0605,-2.0605,-2.0605,-2.0605,-2.0605,-2.0605,-2.0605,-2.0605,-2.0605,-2.0605,-2.0828,-2.1011,-2.1011,-2.1231,-2.1451,-2.1451,-2.1451,-2.1451,-2.1451,-2.2,-2.244,-2.244,-2.3036,-2.3514,-2.3514,-2.3745,-2.3979,-2.4105,-2.3533,-2.3131,-2.3075,-2.2427,-2.2212,-2.2647,-2.2423,-2.2506,-2.3078,-2.3108,-2.3108,-2.3108,-2.3335,-2.3454,-2.3454,-2.425,-2.4624,-2.4652,-2.5147,-2.5398,-1.4088,-1.4088,0.0,-1.4088,-1.4088,-1.4088,-1.4088,0.0,0.0,0.0,0.0,0.0,0.0,0.0,0.0,0.0,0.0,0.0,0.0,0.0,0.0,0.0,0.0,0.0,0.0,0.0,0.0,0.0,0.0,0.0,0.0,-1.6041,-1.6041,-1.6041,-1.6445,-1.6642,-1.6642,-1.709,-1.7302,-1.7302,-1.7302,-1.798,-1.9274,-1.9274,-1.9274,-1.9274,-1.9274,-1.955,-1.9962,-1.9962,-2.0206,-2.0605,-2.0605,-2.0605,-2.0605,-2.0605,-2.0605,-2.0605,-2.0605,-2.0605,-2.0605,-2.0605,-2.0605,-2.0605,-2.0605,-2.0605,-2.0605,-2.0605,-2.0605,-2.0605,-2.0605,-2.0605,-2.0605,-2.0605,-2.0605,-2.0605,-2.0605,-2.0605,-2.0605,-2.0605,-2.0605,-2.0605,-2.0605,-2.1078,-2.1441,-2.1441,-2.1962,-2.2489,-2.285,-2.2601,-2.2638,-2.3415,-2.2845,-2.2495,-2.2691,-2.2133,-2.1913,-2.2256,-2.1869,-2.1846,-2.2332,-2.2831,-2.3108,-2.3108,-2.3108,-2.3108,-2.3108,-2.3603,-2.3826,-2.3826,-2.4266,-2.4496,-1.4088,-1.4088,0.0,-1.4088,-1.4088,0.0,-1.4088,0.0,0.0,0.0,0.0,0.0,0.0,0.0,0.0,0.0,0.0,0.0,0.0,0.0,0.0,0.0,0.0,0.0,0.0,0.0,0.0,0.0,0.0,0.0,0.0,-1.4088,-1.4088,-1.4088,-1.5061,-1.5538,-1.5538,-1.6519,-1.7017,-1.7017,-1.7017,-1.7017,-1.7017,-1.7212,-1.7302,-1.7302,-1.7302,-1.7908,-1.8838,-1.8838,-1.9402,-2.0284,-2.0284,-2.0284,-2.0284,-2.0284,-2.0284,-2.0323,-2.0401,-2.044,-2.0479,-2.0566,-2.0605,-2.0605,-2.0605,-2.0605,-2.0605,-2.0605,-2.0605,-2.0605,-2.0605,-2.0605,-2.0605,-2.0605,-2.0605,-2.0605,-2.0605,-2.0605,-2.0605,-2.0605,-2.0605,-2.0605,-2.0605,-2.0605,-2.0605,-2.0605,-2.0605,-2.0895,-2.1773,-2.1116,-2.127,-2.3036,-2.2403,-2.2046,-2.2457,-2.2452,-2.2278,-2.1871,-2.1407,-2.1174,-2.1275,-2.2288,-2.2884,-2.2884,-2.2884,-2.2884,-2.2884,-2.2884,-2.2884,-2.2884,-2.2884,-2.2914,-1.4088,-1.4088,0.0,0.0,-1.4088,-1.4088,-1.4088,0.0,0.0,0.0,0.0,0.0,0.0,0.0,0.0,0.0,0.0,0.0,0.0,0.0,0.0,0.0,0.0,0.0,0.0,0.0,0.0,0.0,0.0,0.0,-1.4088,-1.4088,-1.4088,-1.4088,-1.4328,-1.4454,-1.4454,-1.4657,-1.4783,0.0,-1.4783,-1.4783,-1.4866,-1.6527,-1.7302,-1.7302,-1.7302,-1.7455,-1.7666,-1.7666,-1.7779,-1.802,-1.802,-1.802,-1.802,-1.802,-1.802,-1.8149,-1.9036,-1.9362,-1.9481,-2.0323,-2.0605,-2.0605,-2.0605,-2.0605,-2.0605,-2.0605,-2.0605,-2.0605,-2.0605,-2.0605,-2.0605,-2.0605,-2.0605,-2.0605,-2.0605,-2.0605,-2.0605,-2.0605,-2.0605,-2.0605,-2.0605,-2.0605,-2.0605,-2.0605,-2.0605,-2.0673,-2.0895,-2.0712,-2.075,-2.1193,-2.1049,-2.0932,-2.1024,-2.073,-2.0737,-2.1307,-2.0945,-2.104,-2.1719,-2.1344,-2.1132,-2.1132,-2.1132,-2.1132,-2.1132,-2.1132,-2.1132,-2.1132,-2.1132,-2.1479,-1.3245,0.0,0.0,-1.3955,0.0,-1.4088,-1.4088,0.0,0.0,0.0,0.0,0.0,0.0,0.0,0.0,0.0,0.0,0.0,0.0,0.0,0.0,0.0,0.0,0.0,0.0,0.0,0.0,0.0,0.0,-1.4088,-1.4088,-1.4088,-1.4088,-1.4088,-1.4088,-1.4088,-1.4088,-1.4088,-1.4088,-1.4088,-1.4088,-1.4088,-1.413,-1.5269,-1.576,-1.576,-1.576,-1.6075,-1.6519,-1.6519,-1.6846,-1.7302,-1.7302,-1.7302,-1.7302,-1.7302,-1.7302,-1.7374,-1.7989,-1.8189,-1.827,-1.8829,-1.9027,-1.9027,-1.9027,-1.9027,-1.9027,-1.9027,-1.9027,-1.9027,-1.9027,-1.9027,-1.9027,-1.9027,-1.9835,-2.0605,-2.0605,-2.0605,-2.0605,-2.0605,-2.0605,-2.0605,-2.0605,-2.0605,-2.0605,-2.0605,-2.0605,-2.0605,-2.0605,-2.0605,-2.0605,-2.0605,-2.0605,-2.0605,-2.0605,-2.04,-2.0444,-2.0878,-2.0501,-2.0467,-2.0927,-2.0327,-2.025,-2.0872,-2.0714,-2.059,-2.059,-2.059,-2.059,-2.059,-2.059,-2.0846,-1.2029,0.0,-1.2334,-1.3737,-1.3955,0.0,-1.4039,0.0,0.0,0.0,0.0,0.0,0.0,0.0,0.0,0.0,0.0,0.0,0.0,0.0,0.0,0.0,0.0,0.0,0.0,0.0,0.0,0.0,0.0,-1.4088,-1.4088,-1.4088,-1.4088,-1.4088,-1.4088,-1.4088,-1.4088,-1.4088,-1.4088,-1.4088,-1.4088,-1.4088,-1.4088,-1.4088,-1.4088,-1.4088,-1.4088,-1.4615,-1.5421,-1.5421,-1.5951,-1.6731,-1.6731,-1.6731,-1.6731,-1.6731,-1.6731,-1.6772,-1.6968,-1.7009,-1.705,-1.7261,-1.7302,-1.7302,-1.7302,-1.7302,-1.7302,-1.7302,-1.7302,-1.7302,-1.7302,-1.7302,-1.7302,-1.7302,-1.8709,-2.004,-2.004,-2.0196,-2.0323,-2.0323,-2.0323,-2.0323,-2.0323,-2.0323,-2.0401,-2.0566,-2.0605,-2.0605,-2.0605,-2.0605,-2.0605,-2.0605,-2.0605,-2.0605,-2.0605,-2.0605,-2.0605,-2.0605,-2.0225,-2.0029,-2.0029,-1.9619,-1.992,-2.0956,-2.0511,-2.0227,-2.0139,-2.0139,-2.0139,-2.0139,-2.0139,-2.0236,-1.0826,0.0,-1.1343,0.0,-1.3294,-1.2808,0.0,0.0,0.0,0.0,0.0,0.0,0.0,0.0,0.0,0.0,0.0,0.0,0.0,0.0,0.0,0.0,0.0,0.0,0.0,0.0,0.0,0.0,-1.4088,-1.4088,-1.4088,-1.4088,-1.4088,-1.4088,-1.4088,-1.4088,-1.4088,-1.4088,-1.4088,-1.4088,-1.4088,-1.4088,-1.4088,-1.4088,-1.4088,-1.4088,-1.4088,-1.4166,-1.4328,-1.4328,-1.4412,-1.4538,-1.4538,-1.4538,-1.4538,-1.4538,-1.4538,-1.4657,-1.5587,-1.5902,-1.6067,-1.7009,-1.7302,-1.7302,-1.7302,-1.7302,-1.7302,-1.7302,-1.7302,-1.7302,-1.7302,-1.7302,-1.7302,-1.7302,-1.7536,-1.7738,-1.7738,-1.851,-1.9195,-1.9195,-1.9195,-1.9195,-1.9195,-1.9195,-1.952,-2.044,-2.0605,-2.0605,-2.0605,-2.0605,-2.0605,-2.0605,-2.0605,-2.0605,-2.0605,-2.0605,-2.0605,-2.0605,-2.0546,-2.0517,-2.0517,-2.0059,-1.9907,-2.0061,-1.9267,-1.8705,-1.8337,-1.8337,-1.8337,-1.8337,-1.8337,-1.8754,-0.9666,-1.0091,-1.0869,0.0,-1.1735,-1.1472,-1.204,0.0,0.0,0.0,0.0,0.0,0.0,0.0,0.0,0.0,0.0,0.0,0.0,0.0,0.0,0.0,0.0,0.0,0.0,0.0,0.0,0.0,-1.4088,-1.4088,-1.4088,-1.4088,-1.4088,-1.4088,-1.4088,-1.4088,-1.4088,-1.4088,-1.4088,-1.4088,-1.4088,-1.4088,-1.4088,-1.4088,-1.4088,-1.4088,-1.4088,-1.4088,-1.4088,-1.4088,-1.4088,-1.4088,-1.4088,-1.4088,-1.4088,-1.4088,-1.4088,-1.4173,-1.4657,-1.4817,-1.4894,-1.5352,-1.5511,-1.5511,-1.5511,-1.5511,-1.5511,-1.5511,-1.5511,-1.5511,-1.5511,-1.5511,-1.5511,-1.5511,-1.5511,-1.5511,-1.5511,-1.6854,-1.8069,-1.8069,-1.8069,-1.8069,-1.8069,-1.8069,-1.823,-1.8669,-1.8749,-1.8988,-1.9599,-1.9678,-1.9923,-2.0527,-2.0605,-2.0605,-2.0605,-2.0605,-2.0605,-2.0605,-2.0605,-2.0605,-2.0605,-2.0381,-2.0166,-1.9922,-1.9316,-1.8789,-1.8325,-1.8325,-1.8208,-1.8008,-1.8008,-1.8202,0.0,0.0,-0.9874,-1.0438,-1.0394,-1.0221,0.0,0.0,0.0,0.0,0.0,0.0,0.0,0.0,0.0,0.0,0.0,0.0,0.0,0.0,0.0,0.0,0.0,0.0,0.0,0.0,0.0,0.0,-1.4088,-1.4088,-1.4088,-1.4088,-1.4088,-1.4088,-1.4088,-1.4088,-1.4088,-1.4088,-1.4088,-1.4088,-1.4088,-1.4088,-1.4088,-1.4088,-1.4088,-1.4088,-1.4088,-1.4088,-1.4088,-1.4088,-1.4088,-1.4088,-1.4088,-1.4088,-1.4088,-1.4088,-1.4088,-1.4088,-1.4088,-1.4088,-1.4088,-1.4088,-1.4088,-1.4088,-1.4088,-1.4088,-1.4088,-1.4088,-1.4088,-1.4088,-1.4088,-1.4088,-1.4088,-1.4088,-1.4088,-1.4166,-1.4454,-1.5752,-1.6887,-1.6887,-1.6887,-1.6887,-1.6887,-1.6887,-1.6968,-1.7261,-1.7302,-1.7626,-1.847,-1.855,-1.8868,-1.9678,-2.004,-2.0196,-2.0196,-2.0196,-2.0196,-2.0196,-1.9913,-1.9756,-1.9756,-1.9756,-1.9606,-1.9257,-1.8957,-1.8776,-1.8763,-1.8763,-1.8549,-1.813,-1.813,-1.8115,0.0,-0.8101,0.0,-1.0048,-0.9792,0.0,0.0,0.0,0.0,0.0,0.0,0.0,0.0,0.0,0.0,0.0,0.0,0.0,0.0,0.0,0.0,0.0,0.0,0.0,0.0,0.0,0.0,0.0,-1.4088,-1.4088,-1.4088,-1.4088,-1.4088,-1.4088,-1.4088,-1.4088,-1.4088,-1.4088,-1.4088,-1.4088,-1.4088,-1.4088,-1.4088,-1.4088,-1.4088,-1.4088,-1.4088,-1.4088,-1.4088,-1.4088,-1.4088,-1.4088,-1.4088,-1.4088,-1.4088,-1.4088,-1.4088,-1.4088,-1.4088,-1.4088,-1.4088,-1.4088,-1.4088,-1.4088,-1.4088,-1.4088,-1.4088,-1.4088,-1.4088,-1.4088,-1.4088,-1.4088,-1.4088,-1.4088,-1.4088,-1.437,-1.5421,-1.5696,-1.5779,-1.5779,-1.5779,-1.5779,-1.5779,-1.5779,-1.615,-1.7139,-1.7302,-1.7334,-1.7374,-1.7383,-1.7423,-1.7464,-1.843,-1.9076,-1.9076,-1.9076,-1.9076,-1.9076,-1.8069,-1.7464,-1.7464,-1.7464,-1.7447,-1.7431,-1.7414,-1.8039,-1.9248,-1.9248,-1.9023,-1.8568,-1.8568,-1.8354,0.0,0.0,0.0,-0.8141,-0.8057,0.0,0.0,0.0,0.0,0.0,0.0,0.0,0.0,0.0,0.0,0.0,0.0,0.0,0.0,0.0,0.0,0.0,0.0,0.0,0.0,0.0,0.0,0.0,0.0,-1.4088,-1.4088,-1.4088,-1.4088,-1.4088,-1.4088,-1.4088,-1.4088,-1.4088,-1.4088,-1.4088,-1.4088,-1.4088,-1.4088,-1.4088,-1.4088,-1.4088,-1.4088,-1.4088,-1.4088,-1.4088,-1.4088,-1.4088,-1.4088,-1.4088,-1.4088,-1.4088,-1.4088,-1.4088,-1.4088,-1.4088,-1.4088,-1.4088,-1.4088,-1.4088,-1.4088,-1.4088,-1.4088,-1.4088,-1.4088,-1.4088,-1.4088,-1.4088,-1.4088,-1.4088,-1.4088,-1.4208,-1.4573,-1.465,-1.465,-1.465,-1.465,-1.465,-1.465,-1.465,-1.4817,-1.5186,-1.5269,-1.5511,-1.6191,-1.6273,-1.656,-1.7212,-1.7666,-1.7908,-1.7908,-1.7908,-1.7908,-1.7908,-1.7536,-1.7302,-1.7302,-1.7302,-1.7302,-1.7302,-1.7302,-1.7414,-1.7632,-1.8335,-1.8443,-1.8045,-1.844,-1.852,-0.7095,0.0,0.0,0.0,0.0,0.0,0.0,0.0,0.0,0.0,0.0,0.0,0.0,0.0,0.0,0.0,0.0,0.0,0.0,0.0,0.0,0.0,0.0,0.0,0.0,0.0,0.0,0.0,0.0,0.0,-1.4088,-1.4088,-1.4088,-1.4088,-1.4088,-1.4088,-1.4088,-1.4088,-1.4088,-1.4088,-1.4088,-1.4088,-1.4088,-1.4088,-1.4088,-1.4088,-1.4088,-1.4088,-1.4088,-1.4088,-1.4088,-1.4088,-1.4088,-1.4088,-1.4088,-1.4088,-1.4088,-1.4088,-1.4088,-1.4088,-1.4088,-1.4088,-1.4088,-1.4088,-1.4088,-1.4088,-1.4088,-1.4088,-1.4088,-1.4088,-1.4088,-1.4088,-1.4088,-1.4088,-1.4088,-1.4088,-1.4088,-1.4088,-1.4088,-1.4088,-1.4088,-1.4088,-1.4088,-1.4088,-1.4088,-1.4088,-1.4088,-1.437,-1.5054,-1.5179,-1.5421,-1.6165,-1.6568,-1.6764,-1.6764,-1.6764,-1.6764,-1.6764,-1.6445,-1.6247,-1.6247,-1.6247,-1.6247,-1.6247,-1.6247,-1.6083,-1.5851,-1.7288,-1.7773,-1.738,-1.7768,-1.7824,0.0,0.0,0.0,0.0,0.0,0.0,0.0,0.0,0.0,0.0,0.0,0.0,0.0,0.0,0.0,0.0,0.0,0.0,0.0,0.0,0.0,0.0,0.0,0.0,0.0,0.0,0.0,0.0,-1.4004,-1.3997,-1.4039,-1.4088,-1.4088,-1.4088,-1.4088,-1.4088,-1.4088,-1.4088,-1.4088,-1.4088,-1.4088,-1.4088,-1.4088,-1.4088,-1.4088,-1.4088,-1.4088,-1.4088,-1.4088,-1.4088,-1.4088,-1.4088,-1.4088,-1.4088,-1.4088,-1.4088,-1.4088,-1.4088,-1.4088,-1.4088,-1.4088,-1.4088,-1.4088,-1.4088,-1.4088,-1.4088,-1.4088,-1.4088,-1.4088,-1.4088,-1.4088,-1.4088,-1.4088,-1.4088,-1.4088,-1.4088,-1.4088,-1.4088,-1.4088,-1.4088,-1.4088,-1.4088,-1.4088,-1.4088,-1.4088,-1.4088,-1.4088,-1.4088,-1.4088,-1.4088,-1.4088,-1.4088,-1.5012,-1.5655,-1.5655,-1.5655,-1.5655,-1.5655,-1.4692,-1.4088,-1.4088,-1.4088,-1.4088,-1.4088,-1.4088,-1.4088,-1.4088,-1.6198,-1.7064,-1.6671,-1.6702,-1.6308,-0.7095,0.0,0.0,0.0,0.0,0.0,0.0,0.0,0.0,0.0,0.0,0.0,0.0,0.0,0.0,0.0,0.0,0.0,0.0,0.0,0.0,0.0,0.0,0.0,0.0,0.0,0.0,0.0,-1.1563,-1.1949,-1.2766,-1.3646,-1.4088,-1.4088,-1.4088,-1.4088,-1.4088,-1.4088,-1.4088,-1.4088,-1.4088,-1.4088,-1.4088,-1.4088,-1.4088,-1.4088,-1.4088,-1.4088,-1.4088,-1.4088,-1.4088,-1.4088,-1.4088,-1.4088,-1.4088,-1.4088,-1.4088,-1.4088,-1.4088,-1.4088,-1.4088,-1.4088,-1.4088,-1.4088,-1.4088,-1.4088,-1.4088,-1.4088,-1.4088,-1.4088,-1.4088,-1.4088,-1.4088,-1.4088,-1.4088,-1.4088,-1.4088,-1.4088,-1.4088,-1.4088,-1.4088,-1.4088,-1.4088,-1.4088,-1.4088,-1.4088,-1.4088,-1.4088,-1.4088,-1.4088,-1.4088,-1.4088,-1.437,-1.4531,-1.4531,-1.4531,-1.4531,-1.4531,-1.425,-1.4088,-1.4088,-1.4088,-1.4088,-1.4088,-1.4088,-1.4088,-1.4088,-1.5462,-1.6103,-1.5996,-1.646,-1.5931,0.0,0.0,0.0,0.0,0.0,0.0,-0.7095,-0.7095,0.0,0.0,0.0,0.0,0.0,0.0,0.0,0.0,0.0,0.0,0.0,0.0,0.0,0.0,0.0,0.0,0.0,-0.9879,-1.0096,-1.0567,-1.0611,-1.0907,-1.1552,-1.2254,-1.265,-1.265,-1.265,-1.2863,-1.3336,-1.2863,-1.2863,-1.3336,-1.2863,-1.265,-1.265,-1.3124,-1.3075,-1.265,-1.3124,-1.3082,-1.2693,-1.316,-1.3646,-1.4088,-1.4088,-1.4088,-1.4088,-1.4088,-1.4088,-1.4088,-1.4088,-1.4088,-1.4088,-1.4088,-1.4088,-1.4088,-1.4088,-1.4088,-1.4088,-1.4088,-1.4088,-1.4088,-1.4088,-1.4088,-1.4088,-1.4088,-1.4088,-1.4088,-1.4088,-1.4088,-1.4088,-1.4088,-1.4088,-1.4088,-1.4088,-1.4088,-1.4088,-1.4088,-1.4088,-1.4088,-1.4088,-1.4088,-1.4088,-1.4088,-1.4088,-1.4088,-1.4088,-1.4088,-1.4088,-1.4088,-1.4088,-1.4088,-1.4088,-1.4088,-1.4088,-1.4088,-1.4088,-1.4088,-1.4088,-1.4734,-1.5012,-1.5047,-1.5286,-1.4816,0.0,0.0,0.0,0.0,0.0,0.0,-0.7095,-0.7095,-0.7095,0.0,0.0,0.0,0.0,0.0,0.0,0.0,0.0,0.0,0.0,0.0,0.0,0.0,0.0,0.0,-0.8584,-0.8715,-0.9104,-1.0135,-1.0351,-1.0394,-1.0394,-1.0524,-1.0611,-1.0611,-1.0611,-1.1085,-1.2114,-1.1123,-1.1123,-1.2114,-1.108,-1.0611,-1.0611,-1.1638,-1.1552,-1.0654,-1.1681,-1.1552,-1.0697,-1.1681,-1.2808,-1.3906,-1.4039,-1.4088,-1.4088,-1.4088,-1.4088,-1.4088,-1.4088,-1.4088,-1.4088,-1.4088,-1.4088,-1.4088,-1.4088,-1.4088,-1.4088,-1.4088,-1.4088,-1.4088,-1.4088,-1.4088,-1.4088,-1.4088,-1.4088,-1.4088,-1.4088,-1.4088,-1.4088,-1.4088,-1.4088,-1.4088,-1.4088,-1.4088,-1.4088,-1.4088,-1.4088,-1.4088,-1.4088,-1.4088,-1.4088,-1.4088,-1.4088,-1.4088,-1.4088,-1.4088,-1.4088,-1.4088,-1.4088,-1.4088,-1.4088,-1.4088,-1.4088,-1.4088,-1.4088,-1.4088,-1.4088,-1.4088,-1.4088,-1.4082,-1.3773,-1.3493,0.0,0.0,0.0,0.0,0.0,0.0,-0.7095,-0.7095,-0.7095,0.0,0.0,0.0,0.0,0.0,0.0,0.0,0.0,0.0,0.0,0.0,0.0,0.0,0.0,0.0,-0.7448,-0.7445,-0.7533,-0.7749,-0.8667,-0.9235,-0.9235,-1.0096,-1.0611,-1.0611,-1.0611,-1.0697,-1.0907,-1.0697,-1.0697,-1.0907,-1.0697,-1.0611,-1.0611,-1.0826,-1.0826,-1.0611,-1.0826,-1.0826,-1.0611,-1.0826,-1.1601,-1.2766,-1.373,-1.4088,-1.4088,-1.4088,-1.4088,-1.4088,-1.4088,-1.4088,-1.4088,-1.4088,-1.4088,-1.4088,-1.4088,-1.4088,-1.4088,-1.4088,-1.4088,-1.4088,-1.4088,-1.4088,-1.4088,-1.4088,-1.4088,-1.4088,-1.4088,-1.4088,-1.4088,-1.4088,-1.4088,-1.4088,-1.4088,-1.4088,-1.4088,-1.4088,-1.4088,-1.4088,-1.4088,-1.4088,-1.4088,-1.4088,-1.4088,-1.4088,-1.4088,-1.4088,-1.4088,-1.4088,-1.4088,-1.4088,-1.4088,-1.4088,-1.4088,-1.4088,-1.4088,-1.4088,-1.4088,-1.4088,-1.4088,-1.4088,-1.4028,-1.3841,0.0,0.0,0.0,-0.7095,0.0,0.0,0.0,-0.7095,-0.7095,-0.7095,0.0,0.0,0.0,0.0,0.0,0.0,0.0,0.0,0.0,0.0,0.0,0.0,0.0,0.0,-0.7095,-0.7095,-0.7095,-0.7095,-0.7665,-0.8017,-0.8017,-0.8532,-0.8834,-0.8834,-0.8834,-0.9139,-0.9749,-0.9139,-0.9139,-0.9749,-0.9139,-0.8834,-0.8877,-0.9488,-0.9444,-0.8877,-0.9488,-0.9401,-0.8921,-0.9488,-1.0096,-1.074,-1.1912,-1.2345,-1.2345,-1.2345,-1.2345,-1.2431,-1.2991,-1.3203,-1.3294,-1.3906,-1.4088,-1.4088,-1.4088,-1.4088,-1.4088,-1.4088,-1.4088,-1.4088,-1.4088,-1.4088,-1.4088,-1.4088,-1.4088,-1.4088,-1.4088,-1.4088,-1.4088,-1.4088,-1.4088,-1.4088,-1.4088,-1.4088,-1.4088,-1.4088,-1.4088,-1.4088,-1.4088,-1.4088,-1.4088,-1.4088,-1.4088,-1.4088,-1.4088,-1.4088,-1.4088,-1.4088,-1.4088,-1.4088,-1.4088,-1.4088,-1.4088,-1.4088,-1.4088,-1.4088,-1.4088,-1.4088,-1.4088,-1.4088,-1.4088,-1.3928,0.0,0.0,0.0,0.0,0.0,-0.7095,0.0,0.0,0.0,-0.7095,0.0,0.0,0.0,0.0,0.0,0.0,0.0,0.0,0.0,0.0,0.0,0.0,0.0,0.0,0.0,-0.7095,-0.7095,-0.7095,-0.7095,-0.7095,-0.7095,-0.7095,-0.7095,-0.7095,-0.7095,-0.7577,-0.854,-0.7577,-0.7577,-0.854,-0.7577,-0.7095,-0.7139,-0.8105,-0.8017,-0.7139,-0.8145,-0.8017,-0.7183,-0.8149,-0.854,-0.8671,-1.0048,-1.0611,-1.0611,-1.0611,-1.0611,-1.074,-1.1638,-1.1986,-1.2114,-1.3124,-1.3434,-1.3434,-1.3434,-1.3561,-1.3737,-1.3737,-1.3913,-1.4088,-1.4088,-1.4088,-1.4088,-1.4088,-1.4088,-1.4039,-1.3779,-1.3955,-1.4046,-1.3779,-1.3955,-1.4088,-1.4088,-1.4088,-1.4088,-1.4088,-1.4088,-1.4088,-1.4088,-1.4088,-1.4088,-1.4088,-1.4088,-1.4088,-1.4088,-1.4088,-1.4088,-1.4088,-1.4088,-1.4088,-1.4088,-1.4088,-1.4088,-1.4088,-1.4088,-1.4088,-1.4088,-1.4088,-1.4088,-1.4088,-1.4088,-1.3955,0.0,0.0,0.0,0.0,-0.7095,0.0,0.0,0.0,-0.7095,-0.7095,0.0,0.0,0.0,0.0,0.0,0.0,0.0,0.0,0.0,0.0,0.0,0.0,0.0,0.0,0.0,-0.7095,-0.7095,-0.7095,-0.7095,-0.7095,-0.7095,-0.7095,-0.7095,-0.7095,-0.7095,-0.7183,-0.7316,-0.7183,-0.7183,-0.7316,-0.7183,-0.7095,-0.7095,-0.7228,-0.7228,-0.7095,-0.7228,-0.7228,-0.7095,-0.7228,-0.7316,-0.7533,-0.9744,-1.0611,-1.0611,-1.0611,-1.0611,-1.0611,-1.074,-1.0778,-1.0826,-1.0956,-1.0999,-1.0999,-1.0999,-1.1686,-1.2498,-1.2498,-1.3288,-1.4088,-1.4088,-1.4088,-1.4088,-1.4088,-1.4088,-1.3822,-1.2723,-1.3336,-1.3779,-1.2723,-1.3379,-1.4088,-1.4088,-1.4088,-1.4088,-1.4088,-1.4088,-1.4088,-1.4088,-1.4088,-1.4088,-1.4088,-1.4088,-1.4088,-1.4088,-1.4088,-1.4088,-1.4088,-1.4088,-1.4088,-1.4088,-1.4088,-1.4088,-1.4088,-1.4088,-1.4088,-1.4088,-1.4088,-1.4088,-1.4088,-1.4088,-1.4068,0.0,0.0,0.0,0.0,0.0,0.0,-0.7095,0.0,-0.7095,0.0,0.0,0.0,0.0,0.0,0.0,0.0,-0.7058,0.0,0.0,0.0,0.0,0.0,0.0,0.0,0.0,0.0,0.0,0.0,-0.7095,-0.7095,-0.7095,-0.7095,-0.7095,-0.7095,-0.7095,-0.7095,-0.7095,-0.7095,-0.7095,-0.7095,-0.7095,-0.7095,-0.7095,-0.7095,-0.7095,-0.7095,-0.7095,-0.7095,-0.7095,-0.7095,-0.7095,-0.7183,-0.8181,-0.8571,-0.8571,-0.8571,-0.8571,-0.8663,-0.9357,-0.9623,-0.971,-1.0394,-1.0611,-1.0611,-1.0611,-1.0907,-1.1295,-1.1295,-1.1692,-1.2083,-1.2083,-1.2083,-1.2083,-1.2083,-1.2083,-1.1949,-1.1429,-1.1692,-1.1912,-1.1429,-1.1735,-1.2083,-1.2083,-1.3215,-1.4088,-1.4088,-1.4088,-1.4088,-1.4088,-1.4088,-1.4088,-1.4088,-1.4088,-1.4088,-1.4088,-1.4088,-1.4088,-1.4088,-1.3428,-1.3069,-1.3069,-1.3069,-1.3379,-1.4088,-1.4088,-1.4088,-1.4088,-1.4088,-1.4088,-1.4088,-1.4088,-1.4088,-0.7095,0.0,0.0,0.0,0.0,0.0,0.0,0.0,0.0,0.0,0.0,0.0,0.0,0.0,0.0,0.0,0.0,0.0,0.0,0.0,0.0,0.0,0.0,0.0,0.0,0.0,0.0,-0.7095,-0.7095,-0.7095,-0.7095,-0.7095,-0.7095,-0.7095,-0.7095,-0.7095,-0.7095,-0.7095,-0.7095,-0.7095,-0.7095,-0.7095,-0.7095,-0.7095,-0.7095,-0.7095,-0.7095,-0.7095,-0.7095,-0.7095,-0.7095,-0.7095,-0.7095,-0.7095,-0.7095,-0.7095,-0.7095,-0.7228,-0.8105,-0.8408,-0.854,-0.9357,-0.9657,-0.9657,-0.9657,-0.9879,-1.0139,-1.0139,-1.0351,-1.0611,-1.0611,-1.0611,-1.0611,-1.0611,-1.0611,-1.0524,-1.0183,-1.0394,-1.0524,-1.0183,-1.0394,-1.0611,-1.0611,-1.1997,-1.313,-1.313,-1.3428,-1.347,-1.3167,-1.3695,-1.3864,-1.3215,-1.3737,-1.3955,-1.3646,-1.3603,-1.347,-1.3173,-1.2334,-1.1809,-1.1809,-1.1809,-1.2376,-1.3561,-1.3603,-1.3779,-1.4088,-1.4088,-1.3913,-1.3603,-1.3603,-1.3603,0.0,0.0,0.0,-0.7095,0.0,0.0,0.0,0.0,-0.7095,0.0,0.0,0.0,0.0,0.0,0.0,0.0,0.0,0.0,0.0,0.0,0.0,0.0,0.0,0.0,0.0,0.0,0.0,-0.7095,-0.7095,-0.7095,-0.7095,-0.7095,-0.7095,-0.7095,-0.7095,-0.7095,-0.7095,-0.7095,-0.7095,-0.7095,-0.7095,-0.7095,-0.7095,-0.7095,-0.7095,-0.7095,-0.7095,-0.7095,-0.7095,-0.7095,-0.7095,-0.7095,-0.7095,-0.7095,-0.7095,-0.7095,-0.7095,-0.7095,-0.7139,-0.7139,-0.7183,-0.7183,-0.7228,-0.7228,-0.7228,-0.8013,-0.8978,-0.8978,-0.9749,-1.0611,-1.0611,-1.0611,-1.0611,-1.0611,-1.0611,-1.0308,-0.9192,-0.9836,-1.0269,-0.9148,-0.9836,-1.0611,-1.0611,-1.0654,-1.0697,-1.0697,-1.1638,-1.1938,-1.0869,-1.2693,-1.3215,-1.0956,-1.2735,-1.3646,-1.2462,-1.237,-1.1901,-1.0783,-1.0697,-1.0654,-1.0654,-1.0654,-1.1171,-1.2328,-1.237,-1.2942,-1.4088,-1.4088,-1.3512,-1.237,-1.237,-1.237,0.0,0.0,-0.7095,-0.7095,0.0,0.0,0.0,0.0,0.0,0.0,0.0,0.0,0.0,0.0,0.0,0.0,0.0,0.0,0.0,0.0,0.0,0.0,0.0,0.0,0.0,0.0,0.0,-0.7095,-0.7095,-0.7095,-0.7095,-0.7095,-0.7095,-0.7095,-0.7095,-0.7095,-0.7095,-0.7095,-0.7095,-0.7095,-0.7095,-0.7095,-0.7095,-0.7095,-0.7095,-0.7095,-0.7095,-0.7095,-0.7095,-0.7095,-0.7095,-0.7095,-0.7095,-0.7095,-0.7095,-0.7095,-0.7095,-0.7095,-0.7095,-0.7095,-0.7095,-0.7095,-0.7095,-0.7095,-0.7095,-0.7404,-0.7709,-0.7709,-0.7965,-0.8269,-0.8269,-0.8269,-0.8269,-0.8269,-0.8269,-0.8185,-0.7797,-0.8013,-0.8185,-0.7797,-0.8009,-0.8269,-0.8269,-0.8269,-0.879,-1.0351,-1.0907,-1.1037,-1.0654,-1.13,-1.1477,-1.0697,-1.1305,-1.1606,-1.1209,-1.1166,-1.0697,-0.9536,-0.9492,-0.9492,-0.9492,-0.9492,-1.0009,-1.1166,-1.1166,-1.1386,-1.1783,-1.1783,-1.1563,-1.1171,-1.0394,-1.0438,-0.7095,-0.7095,0.0,-0.7095,-0.7095,0.0,-0.7095,0.0,0.0,0.0,0.0,0.0,0.0,0.0,0.0,0.0,0.0,0.0,0.0,-0.7095,0.0,0.0,0.0,0.0,0.0,0.0,-0.7095,-0.7095,-0.7095,-0.7095,0.0,0.0,-0.7095,-0.7095,-0.7095,-0.7095,-0.7095,-0.7095,-0.7095,-0.7095,-0.7095,-0.7095,-0.7095,-0.7095,-0.7095,-0.7095,-0.7095,-0.7095,-0.7095,-0.7095,-0.7095,-0.7095,-0.7095,-0.7095,-0.7095,-0.7095,-0.7095,-0.7095,-0.7095,-0.7095,-0.7095,-0.7095,-0.7095,-0.7095,-0.7095,-0.7095,-0.7095,-0.7095,-0.7095,-0.7095,-0.7095,-0.7095,-0.7095,-0.7095,-0.7095,-0.7095,-0.7095,-0.7095,-0.7095,-0.7095,-0.7095,-0.7095,-0.7095,-0.7095,-0.7617,-0.9139,-0.9705,-0.9836,-0.9396,-1.0091,-1.0265,-0.944,-1.0091,-1.0438,-1.0009,-1.0009,-0.9488,-0.8321,-0.8277,-0.8277,-0.8277,-0.8277,-0.8798,-0.9966,-1.0009,-1.0183,-1.0611,-1.0611,-1.0394,-0.9966,-0.9235,-0.9061]},{"header":{"parameterUnit":"m.s-1","parameterCategory":1,"la1":30.6,"la2":29.2853,"lo1":-89.7004,"lo2":-87.6739,"dy":0.0162,"dx":0.0183,"nx":112,"ny":82,"refTime":"2023-09-01T18:00:00:Z","depth":0,"parameterNumber":3,"parameterNumberName":"V-component_of_WINDS"},"data":[0.0,0.0,0.0,0.0,0.0,0.0,0.0,0.0,0.0,0.0,0.0,0.0,0.0,0.0,0.0,0.0,0.0,0.0,0.0,0.0,0.0,0.0,0.0,0.0,0.0,0.0,0.0,0.0,0.0,0.0,0.0,0.0,0.0,0.0,0.0,0.0,0.0,0.0,0.0,0.0,0.0,0.0,0.0,0.0,0.0,0.0,0.0,0.0,0.0,0.0,0.0,0.0,0.0,0.0,0.0,0.0,0.0,0.0,0.0,0.0,0.0,0.0,0.0,0.0,0.0,0.0,0.0,0.0,0.0,0.0,0.0,0.0,0.0,0.0,0.0,0.0,0.0,0.0,0.0,0.0,0.0,0.0,0.0,0.0,0.0,0.0,0.0,0.0,0.0,0.0,0.0,-0.63,-0.63,-0.63,-0.63,-0.63,-0.7184,-0.9233,0.0,0.0,0.0,0.0,0.0,0.0,0.0,0.0,0.0,0.0,0.0,0.0,0.0,0.0,0.0,0.0,0.0,0.0,0.0,0.0,0.0,0.0,0.0,0.0,0.0,0.0,0.0,0.0,0.0,0.0,0.0,0.0,0.0,0.0,0.0,0.0,0.0,0.0,0.0,0.0,0.0,0.0,0.0,0.0,0.0,0.0,0.0,0.0,0.0,0.0,0.0,0.0,0.0,0.0,0.0,0.0,0.0,0.0,0.0,0.0,0.0,0.0,0.0,0.0,0.0,0.0,0.0,0.0,0.0,0.0,0.0,0.0,0.0,0.0,0.0,0.0,0.0,0.0,0.0,0.0,0.0,0.0,0.0,0.0,0.0,0.0,0.0,0.0,0.0,0.0,0.0,0.0,0.0,0.0,0.0,0.0,0.0,0.0,0.0,0.0,0.0,0.0,0.0,0.0,-0.63,-0.63,-0.63,-0.63,-0.63,-0.63,-0.7274,-0.9486,0.0,0.0,0.0,0.0,0.0,0.0,0.0,0.0,0.0,0.0,0.0,0.0,0.0,0.0,0.0,0.0,0.0,0.0,0.0,0.0,0.0,0.0,0.0,0.0,0.0,0.0,0.0,0.0,0.0,0.0,0.0,0.0,0.0,0.0,0.0,0.0,0.0,0.0,0.0,0.0,0.0,0.0,0.0,0.0,0.0,0.0,0.0,0.0,0.0,0.0,0.0,0.0,0.0,0.0,0.0,0.0,0.0,0.0,0.0,0.0,0.0,0.0,0.0,0.0,0.0,0.0,0.0,0.0,0.0,0.0,0.0,0.0,0.0,0.0,0.0,0.0,0.0,0.0,0.0,0.0,0.0,0.0,0.0,0.0,0.0,0.0,0.0,0.0,0.0,0.0,0.0,0.0,0.0,0.0,0.0,0.0,0.0,0.0,0.0,0.0,0.0,0.0,0.0,-0.63,-0.63,-0.63,-0.63,-0.63,-0.63,-0.63,-0.7285,-0.9571,-0.9456,0.0,0.0,0.0,0.0,0.0,0.0,0.0,0.0,0.0,0.0,0.0,0.0,0.0,0.0,0.0,0.0,0.0,0.0,0.0,0.0,0.0,0.0,0.0,0.0,0.0,0.0,0.0,0.0,0.0,0.0,0.0,0.0,0.0,0.0,0.0,0.0,0.0,0.0,0.0,0.0,0.0,0.0,0.0,0.0,0.0,0.0,0.0,0.0,0.0,0.0,0.0,0.0,0.0,0.0,0.0,0.0,0.0,0.0,0.0,0.0,0.0,0.0,0.0,0.0,0.0,0.0,0.0,0.0,0.0,0.0,0.0,0.0,0.0,0.0,0.0,0.0,0.0,0.0,0.0,0.0,0.0,0.0,0.0,0.0,0.0,0.0,0.0,0.0,0.0,0.0,0.0,0.0,0.0,0.0,0.0,0.0,0.0,0.0,0.0,0.0,0.0,0.0,-0.63,-0.63,-0.63,-0.63,-0.63,-0.63,-0.63,-0.7285,-0.9571,-0.9456,0.0,0.0,0.0,0.0,0.0,0.0,0.0,0.0,0.0,0.0,0.0,0.0,0.0,0.0,0.0,0.0,0.0,0.0,0.0,0.0,0.0,0.0,0.0,0.0,0.0,0.0,0.0,0.0,0.0,0.0,0.0,0.0,0.0,0.0,0.0,0.0,0.0,0.0,0.0,0.0,0.0,0.0,0.0,0.0,0.0,0.0,0.0,0.0,0.0,0.0,0.0,0.0,0.0,0.0,0.0,0.0,0.0,0.0,0.0,0.0,0.0,0.0,0.0,0.0,0.0,0.0,0.0,0.0,0.0,0.0,0.0,0.0,0.0,0.0,0.0,0.0,0.0,0.0,0.0,0.0,0.0,0.0,0.0,0.0,0.0,0.0,0.0,0.0,0.0,0.0,0.0,0.0,0.0,0.0,0.0,0.0,0.0,0.0,0.0,0.0,0.0,0.0,-0.63,-0.63,-0.63,-0.63,-0.63,-0.63,-0.63,-0.7285,-0.9571,-0.9456,0.0,0.0,0.0,0.0,0.0,0.0,0.0,0.0,0.0,0.0,0.0,0.0,0.0,0.0,0.0,0.0,0.0,0.0,0.0,0.0,0.0,0.0,0.0,0.0,0.0,0.0,0.0,0.0,0.0,0.0,0.0,0.0,0.0,0.0,0.0,0.0,0.0,0.0,0.0,0.0,0.0,0.0,0.0,0.0,0.0,0.0,0.0,0.0,0.0,0.0,0.0,0.0,0.0,0.0,0.0,0.0,0.0,0.0,0.0,0.0,0.0,0.0,0.0,0.0,0.0,0.0,0.0,0.0,0.0,0.0,0.0,0.0,0.0,0.0,0.0,0.0,0.0,0.0,0.0,0.0,0.0,0.0,0.0,0.0,0.0,0.0,0.0,0.0,0.0,0.0,0.0,0.0,0.0,0.0,0.0,0.0,0.0,0.0,0.0,0.0,0.0,0.0,-0.63,-0.63,0.0,-0.63,-0.63,-0.63,-0.63,-0.7017,-0.8672,0.0,0.0,0.0,0.0,0.0,0.0,0.0,0.0,0.0,0.0,0.0,0.0,0.0,0.0,0.0,0.0,0.0,0.0,0.0,0.0,0.0,0.0,0.0,0.0,0.0,0.0,0.0,0.0,0.0,0.0,0.0,0.0,0.0,0.0,0.0,0.0,0.0,0.0,0.0,0.0,0.0,0.0,0.0,0.0,0.0,0.0,0.0,0.0,0.0,0.0,0.0,0.0,0.0,0.0,0.0,0.0,0.0,0.0,0.0,0.0,0.0,0.0,0.0,0.0,0.0,0.0,0.0,0.0,0.0,0.0,0.0,0.0,0.0,0.0,0.0,0.0,0.0,0.0,0.0,0.0,0.0,0.0,0.0,0.0,0.0,0.0,0.0,0.0,0.0,0.0,0.0,0.0,0.0,0.0,0.0,0.0,0.0,0.0,0.0,0.0,0.0,0.0,-0.63,-0.63,-0.63,0.0,-0.63,-0.63,-0.63,-0.63,-0.6804,-0.7999,0.0,0.0,0.0,0.0,0.0,0.0,0.0,0.0,0.0,0.0,0.0,0.0,0.0,0.0,0.0,0.0,0.0,0.0,0.0,0.0,0.0,0.0,0.0,0.0,0.0,0.0,0.0,0.0,0.0,0.0,0.0,0.0,0.0,0.0,0.0,0.0,0.0,0.0,0.0,0.0,0.0,0.0,0.0,0.0,0.0,0.0,0.0,0.0,0.0,0.0,0.0,0.0,0.0,0.0,0.0,0.0,0.0,0.0,0.0,0.0,0.0,0.0,0.0,0.0,0.0,0.0,0.0,0.0,0.0,0.0,0.0,0.0,0.0,0.0,0.0,0.0,0.0,0.0,0.0,0.0,0.0,0.0,0.0,0.0,0.0,0.0,0.0,0.0,0.0,0.0,0.0,0.0,0.0,0.0,0.0,0.0,0.0,0.0,0.0,0.0,0.0,0.0,-0.63,-0.63,-0.63,-0.63,-0.63,-0.63,-0.63,-0.63,-0.6718,0.0,0.0,0.0,0.0,0.0,0.0,0.0,0.0,0.0,0.0,0.0,0.0,0.0,0.0,0.0,0.0,0.0,0.0,0.0,0.0,0.0,0.0,0.0,0.0,0.0,0.0,0.0,0.0,0.0,0.0,0.0,0.0,0.0,0.0,0.0,0.0,0.0,0.0,0.0,0.0,0.0,0.0,0.0,0.0,0.0,0.0,0.0,0.0,0.0,0.0,0.0,0.0,0.0,0.0,0.0,0.0,0.0,0.0,0.0,0.0,0.0,0.0,0.0,0.0,0.0,0.0,0.0,0.0,0.0,0.0,0.0,0.0,0.0,0.0,0.0,0.0,0.0,0.0,0.0,0.0,0.0,0.0,0.0,0.0,0.0,0.0,0.0,0.0,0.0,0.0,0.0,0.0,0.0,0.0,0.0,0.0,0.0,0.0,0.0,0.0,0.0,0.0,0.0,-0.63,-0.63,-0.63,-0.63,-0.63,-0.63,-0.63,-0.63,-0.6416,-0.6718,0.0,0.0,0.0,0.0,0.0,0.0,0.0,0.0,0.0,0.0,0.0,0.0,0.0,0.0,0.0,0.0,0.0,0.0,0.0,0.0,0.0,0.0,0.0,0.0,0.0,0.0,0.0,0.0,0.0,0.0,0.0,0.0,0.0,0.0,0.0,0.0,0.0,0.0,0.0,0.0,0.0,0.0,0.0,0.0,0.0,0.0,0.0,0.0,0.0,0.0,0.0,0.0,0.0,0.0,0.0,0.0,0.0,0.0,0.0,0.0,0.0,0.0,0.0,0.0,0.0,0.0,0.0,0.0,0.0,0.0,0.0,0.0,0.0,0.0,0.0,0.0,0.0,0.0,0.0,0.0,0.0,0.0,0.0,0.0,0.0,0.0,0.0,0.0,0.0,0.0,0.0,0.0,0.0,0.0,0.0,0.0,0.0,0.0,0.0,0.0,0.0,0.0,-0.63,-0.63,-0.63,-0.63,-0.63,-0.63,-0.63,-0.63,-0.63,-0.63,0.0,0.0,0.0,0.0,0.0,0.0,0.0,0.0,0.0,0.0,0.0,0.0,0.0,0.0,0.0,0.0,0.0,0.0,0.0,0.0,0.0,0.0,0.0,0.0,0.0,0.0,0.0,0.0,0.0,0.0,0.0,0.0,0.0,0.0,0.0,0.0,0.0,0.0,0.0,0.0,0.0,0.0,0.0,0.0,0.0,0.0,0.0,0.0,0.0,0.0,0.0,0.0,0.0,0.0,0.0,0.0,0.0,0.0,0.0,0.0,0.0,0.0,0.0,0.0,0.0,0.0,0.0,0.0,0.0,0.0,0.0,0.0,0.0,0.0,0.0,0.0,0.0,0.0,0.0,0.0,0.0,0.0,0.0,0.0,0.0,0.0,0.0,0.0,0.0,0.0,0.0,0.0,0.0,0.0,0.0,0.0,0.0,0.0,0.0,0.0,0.0,0.0,-0.63,-0.63,-0.63,-0.63,-0.63,-0.63,-0.63,-0.63,-0.63,-0.63,0.0,0.0,0.0,0.0,0.0,0.0,0.0,0.0,0.0,0.0,0.0,0.0,0.0,0.0,0.0,0.0,0.0,0.0,0.0,0.0,0.0,0.0,0.0,0.0,0.0,0.0,0.0,0.0,0.0,0.0,0.0,0.0,0.0,0.0,0.0,0.0,0.0,0.0,0.0,0.0,0.0,0.0,0.0,0.0,0.0,0.0,0.0,0.0,0.0,0.0,0.0,0.0,0.0,0.0,0.0,0.0,0.0,0.0,0.0,0.0,0.7095,0.0,0.0,0.0,0.0,0.0,0.0,0.0,0.0,0.0,0.0,0.0,0.0,0.0,0.0,0.0,0.0,0.0,0.0,0.0,0.0,0.0,0.0,0.0,0.0,0.0,0.0,0.0,0.0,0.0,0.0,0.0,0.0,0.0,0.0,0.0,0.0,0.0,0.0,0.0,0.0,0.0,-0.63,-0.63,-0.63,-0.63,-0.63,-0.63,-0.63,-0.63,-0.63,-0.63,-0.63,0.0,0.0,0.0,0.0,0.0,0.0,0.0,0.0,0.0,0.0,0.0,0.0,0.0,0.0,0.0,0.0,0.0,0.0,0.0,0.0,0.0,0.0,0.0,0.0,0.0,0.0,0.0,0.0,0.0,0.0,0.0,0.0,0.0,0.0,0.0,0.0,0.0,0.0,0.0,0.0,0.0,0.0,0.0,0.0,0.0,0.0,0.0,0.0,0.0,0.0,0.0,0.0,0.0,0.0,0.0,0.0,0.0,0.0,0.0,0.0,0.7095,0.0,0.0,0.0,0.0,0.0,0.0,0.0,0.0,0.0,0.0,0.0,0.0,0.0,0.0,0.0,0.0,0.0,0.0,0.0,0.0,0.0,0.0,0.0,0.0,0.0,0.0,0.0,0.0,0.0,0.0,0.0,0.0,0.0,0.0,0.0,0.0,0.0,0.0,0.0,0.0,-0.63,-0.63,-0.63,-0.63,-0.63,-0.63,-0.63,-0.63,-0.63,-0.63,-0.63,0.0,0.0,0.0,0.0,0.0,0.0,0.0,0.0,0.0,0.0,0.0,0.0,0.0,0.0,0.0,0.0,0.0,0.0,0.0,0.0,0.0,0.0,0.0,0.0,0.0,0.0,0.0,0.0,0.0,0.0,0.0,0.0,0.0,0.0,0.0,0.0,0.0,0.0,0.0,0.0,0.0,0.0,0.0,0.0,0.0,0.0,0.0,0.0,0.0,0.0,0.0,0.0,0.0,1.1643,1.1085,1.0907,1.0907,1.0778,1.0481,0.8532,0.7577,0.7401,0.7183,0.0,0.0,0.0,0.0,0.0,0.0,0.0,0.0,0.0,0.0,0.0,0.0,0.0,0.0,0.0,0.0,0.0,0.0,0.0,0.0,0.0,0.0,0.0,0.0,0.0118,-0.0235,0.0,0.0,0.0,0.0,0.0,0.0,0.0,0.0,0.0,0.0,0.0,0.0,-0.6025,-0.6025,-0.6103,-0.63,-0.63,-0.63,-0.63,-0.63,-0.63,-0.63,-0.6141,-0.6025,0.0,0.0,0.0,0.0,0.0,0.0,0.0,0.0,0.0,0.0,0.0,0.0,0.0,0.0,0.0,0.0,0.0,0.0,0.0,0.0,0.0,0.0,0.0,0.0,0.0,0.0,0.0,0.0,0.0,0.0,0.0,0.0,1.9756,1.8669,0.0,0.0,0.0,0.0,0.0,0.0,0.0,0.0,0.0,0.0,0.0,0.0,0.0,1.4088,1.4088,1.3955,1.3864,1.3864,1.3695,1.3075,1.2072,1.2072,1.1552,1.0567,1.0265,0.0,0.8584,0.7533,0.0,0.0,0.0,0.0,0.0,0.0,0.0,0.0,0.0,0.0,0.0,0.0,0.0,0.0,0.0,0.0,0.0,0.0,0.0,0.0,0.0,0.0,0.1372,0.1372,0.0667,-0.0039,0.0,-0.0941,-0.1645,-0.1762,-0.2618,0.0,0.0,0.0,0.0,0.0,0.0,0.0,-0.4921,-0.4921,-0.5276,-0.6183,-0.63,-0.63,-0.63,-0.63,-0.63,-0.63,-0.5431,-0.4921,-0.4921,-0.4921,0.0,0.0,0.0,0.0,0.0,0.0,0.0,0.0,0.0,0.0,0.0,0.0,0.0,0.0,0.0,0.0,0.0,0.0,0.0,0.0,0.0,0.0,0.0,0.0,0.0,0.0,0.0,0.0,0.0,2.0079,1.952,1.9076,1.843,1.7868,0.0,0.0,0.0,0.0,0.0,0.0,0.0,0.0,0.0,1.4088,1.4088,1.4088,1.4088,1.4088,1.4088,1.4088,1.4088,1.3822,1.3294,1.3294,1.3039,1.2516,1.1858,1.1252,1.074,0.957,0.8707,0.8105,0.0,0.0,0.0,0.0,0.6705,0.6509,0.5885,0.5641,0.0,0.4334,0.0,0.0,0.0,0.0,0.0,0.0,0.0,0.0,0.0,0.0,0.2425,0.2425,0.1644,0.0902,0.0902,0.0039,-0.0706,0.0,-0.1528,-0.2425,-0.2893,0.0,0.0,0.0,0.0,-0.3787,-0.3787,-0.3787,-0.3982,-0.4453,-0.4491,-0.4491,-0.4491,-0.4491,-0.4491,-0.4491,-0.4062,-0.3787,-0.3787,-0.3787,-0.3787,0.0,0.0,0.0,0.0,0.0,0.0,0.0,0.0,0.0,0.0,0.0,0.0,0.0,0.0,0.0,0.0,0.0,0.0,0.0,0.0,0.0,0.0,0.0,0.0,0.0,0.0,0.0,0.0,1.9923,1.9402,1.9402,1.8669,1.8141,0.0,0.0,0.0,0.0,0.0,0.0,1.4943,1.4657,1.4496,1.4496,1.425,1.4088,1.4088,1.4088,1.4088,1.4088,1.4088,1.4088,1.4088,1.4088,1.4088,1.4039,1.316,1.2766,1.2638,1.0869,0.9662,0.889,0.889,0.8218,0.7289,0.7166,0.7045,0.6846,0.6425,0.63,0.618,0.5354,0.0,0.496,0.4178,0.0,0.0,0.0,0.0,0.3591,0.3865,0.3709,0.3513,0.3513,0.2735,0.1996,0.1996,0.1371,0.0627,0.0,-0.0628,-0.1293,-0.1568,0.0,0.0,0.0,0.0,-0.2735,-0.2735,-0.2735,-0.2813,-0.3085,-0.3085,-0.3085,-0.3085,-0.3085,-0.3085,-0.3085,-0.2851,-0.2735,-0.2735,-0.2735,-0.2735,-0.2735,0.0,0.0,0.0,0.0,0.0,0.0,0.0,0.0,0.0,0.0,0.0,0.0,0.0,0.0,0.0,0.0,0.0,0.0,0.0,0.0,0.0,0.0,0.0,0.0,0.0,0.0,0.0,0.0,0.0,2.0527,2.0479,0.0,0.0,0.0,0.0,1.8838,1.7827,1.722,1.7131,1.615,1.5621,1.5621,1.4608,1.4088,1.4088,1.4088,1.4088,1.4088,1.4088,1.4088,1.4088,1.4088,1.4088,1.4088,1.4039,1.3997,1.3737,1.0361,0.8934,0.889,0.889,0.8646,0.8336,0.8309,0.8161,0.7786,0.6695,0.63,0.63,0.6219,0.6222,0.6222,0.6141,0.5431,0.0,0.0,0.5395,0.4844,0.5867,0.5392,0.4611,0.4611,0.3787,0.3007,0.3007,0.2968,0.2344,0.0,-0.0039,-0.0392,-0.1411,0.0,-0.1685,-0.1685,-0.1685,-0.1685,-0.1685,-0.1685,-0.2035,-0.3007,-0.3085,-0.3085,-0.3085,-0.3085,-0.3085,-0.3085,-0.219,-0.1685,-0.1685,-0.1685,-0.1685,-0.1685,-0.2618,0.0,0.0,0.0,0.0,0.0,0.0,0.0,0.0,0.0,0.0,0.0,0.0,0.0,0.0,0.0,0.0,0.0,0.0,0.0,0.0,0.0,0.0,0.0,0.0,0.0,0.0,0.0,0.0,2.0605,2.0605,0.0,2.0605,2.0245,1.9717,1.9036,1.8638,1.8069,1.7334,1.6927,1.6723,1.6723,1.6363,1.5835,1.5137,1.5137,1.4776,1.4088,1.4088,1.4088,1.4088,1.4088,1.4088,1.4088,1.4088,1.4088,1.3955,1.1906,1.1085,1.1085,1.1085,1.0512,0.968,0.9687,0.9442,0.9022,0.8638,0.8383,0.8122,0.748,0.6834,0.63,0.63,0.6025,0.5825,0.6183,0.6025,0.5825,0.6183,0.6025,0.5747,0.5747,0.4921,0.4139,0.4139,0.3593,0.289,0.215,0.1488,0.0706,-0.0392,-0.0588,-0.0588,-0.0588,-0.0588,-0.0588,-0.0588,-0.0588,-0.0706,-0.1058,-0.1096,-0.1096,-0.1096,-0.1096,-0.1096,-0.1096,-0.0784,-0.0588,-0.0588,-0.0588,-0.0588,-0.0588,-0.0941,-0.1448,0.0,0.0,0.0,0.0,0.0,0.0,0.0,0.0,0.0,0.0,0.0,0.0,0.0,0.0,0.0,0.0,0.0,0.0,0.0,0.0,0.0,0.0,0.0,0.0,0.0,0.0,2.0605,2.0605,2.0605,2.0605,2.0605,2.0605,2.0323,1.9599,1.952,1.9195,1.8461,1.806,1.7868,1.7868,1.7504,1.6968,1.6232,1.5861,1.5338,1.4657,1.4292,1.4088,1.4088,1.4088,1.4088,1.4088,1.4088,1.4088,1.4039,1.3245,1.2899,1.2851,1.2456,1.1742,1.0903,1.0945,1.0702,1.0329,0.9974,0.9438,0.8832,0.8142,0.7184,0.63,0.63,0.63,0.63,0.63,0.63,0.63,0.63,0.63,0.63,0.63,0.5747,0.5237,0.5237,0.4686,0.4062,0.3709,0.2815,0.1761,0.0706,0.0549,0.0432,0.0039,0.0,0.0,0.0,0.0,0.0,0.0,0.0,0.0,0.0,0.0,0.0,0.0,0.0,0.0,0.0,0.0,0.0,0.0,0.0,-0.051,-0.1607,0.0,0.0,0.0,0.0,0.0,0.0,0.0,0.0,0.0,0.0,0.0,0.0,0.0,0.0,0.0,0.0,0.0,0.0,0.0,0.0,0.0,0.0,0.0,2.0789,2.0605,2.0605,2.0605,2.0605,2.0605,2.0605,2.0605,2.0605,2.0605,2.0605,2.0605,2.0605,1.9599,1.9045,1.9054,1.8006,1.7399,1.7367,1.6345,1.5809,1.5767,1.4713,1.4186,1.4186,1.4173,1.4124,1.4088,1.4088,1.4088,1.4088,1.4088,1.4088,1.3997,1.2808,1.2217,1.1999,1.2094,1.198,1.1634,1.0651,0.9417,0.8299,0.8299,0.7442,0.6352,0.6345,0.6345,0.6306,0.6303,0.63,0.63,0.63,0.63,0.63,0.63,0.63,0.63,0.63,0.63,0.5983,0.496,0.3904,0.2852,0.1841,0.1646,0.1293,0.0235,0.0079,0.0,0.0039,0.0039,0.0,0.0,0.0,0.0,0.0,0.0,0.0,0.0,0.0,0.0,0.0,0.0,0.0,0.0,0.0,-0.051,-0.1568,0.0,0.0,0.0,0.0,0.0,0.0,0.0,0.0,0.0,0.0,0.0,0.0,0.0,0.0,0.0,0.0,0.0,0.0,0.0,0.0,0.0,0.0,2.1914,2.1669,2.1039,2.0605,2.0605,2.0605,2.0605,2.0605,2.0605,2.0605,2.0605,2.0605,2.0605,2.0605,2.0323,2.0311,2.0587,2.0306,1.9902,1.9412,1.9112,1.8566,1.7813,1.7191,1.6484,1.5673,1.5398,1.4852,1.4088,1.4088,1.4088,1.4088,1.4088,1.4088,1.4088,1.373,1.3552,1.3487,1.3536,1.3354,1.2994,1.2548,1.1655,1.0748,1.0748,0.9417,0.7789,0.7707,0.7083,0.6433,0.6327,0.63,0.63,0.63,0.63,0.63,0.63,0.63,0.63,0.63,0.63,0.6222,0.5906,0.5628,0.4844,0.3008,0.2696,0.2579,0.2306,0.1644,0.0,0.1176,0.0471,0.0,0.0,0.0,0.0,0.0,0.0,0.0,0.0,0.0,0.0,0.0,0.0,0.0,0.0,0.0,-0.0157,0.0,0.0,0.0,0.0,0.0,0.0,0.0,0.0,0.0,0.0,0.0,0.0,0.0,0.0,0.0,0.0,0.0,0.0,0.0,0.0,0.0,0.0,2.3916,2.3257,2.3257,2.1707,2.0605,2.0605,2.0605,2.0605,2.0605,2.0605,2.0605,2.0605,2.0605,2.0683,2.083,2.084,2.1055,2.1494,2.1504,2.1325,2.0903,2.0424,1.9909,1.9264,1.8583,1.7808,1.7022,1.6784,1.5963,0.0,1.4776,1.4776,1.4734,1.4292,1.437,0.0,0.0,0.0,0.0,0.0,1.3975,1.3808,1.3634,1.2832,1.1862,1.1862,1.064,0.9158,0.9042,0.8207,0.7251,0.7132,0.6738,0.6375,0.6317,0.63,0.63,0.63,0.63,0.63,0.63,0.63,0.63,0.63,0.63,0.0,0.4647,0.4062,0.3632,0.3163,0.2618,0.2231,0.2231,0.1683,0.1136,0.0706,0.0667,0.0471,0.0039,0.0,0.0,0.0,0.0,0.0,0.0,0.0,0.0,0.0,0.0,0.0,0.0,0.0,0.0,0.0,-0.264,-0.3063,0.0,0.0,0.0,0.0,0.0,0.0,0.0,0.0,0.0,0.0,0.0,0.0,0.0,0.0,0.0,0.0,2.5664,2.5004,2.5004,2.2638,2.0895,2.0789,2.075,2.0712,2.0605,2.0605,2.0625,2.0674,2.0683,2.084,2.1249,0.0,0.0,0.0,0.0,2.1982,2.2031,2.1044,2.051,2.051,1.953,1.8778,1.8339,1.8213,1.7365,1.5955,1.5876,1.5861,1.5827,1.4859,1.5019,1.5745,1.4573,1.4088,1.4088,1.4088,1.4088,1.4088,1.4088,0.0,0.0,1.2343,1.1477,1.0437,1.0411,0.9582,0.8597,0.8453,0.7688,0.686,0.6592,0.6514,0.6472,0.6342,0.63,0.63,0.63,0.63,0.63,0.63,0.63,0.63,0.63,0.5512,0.4569,0.3593,0.3357,0.3279,0.3279,0.3163,0.2774,0.188,0.0,0.0,0.0431,0.0353,0.0314,0.0196,0.0079,0.0039,0.0157,0.0079,0.0,0.0,0.0,0.0,0.0,0.0,0.0,-0.0039,-0.1878,-0.2734,0.0,0.0,0.0,0.0,0.0,0.0,0.0,0.0,0.0,0.0,0.0,0.0,0.0,0.0,0.0,2.6499,2.5664,2.5004,2.5004,2.3818,2.2638,2.1811,2.1735,2.1451,2.0673,2.0605,2.0713,2.1074,2.1064,2.1299,2.1738,2.1758,2.1953,2.2373,2.2393,2.2549,2.2847,2.2664,2.2524,2.2524,0.0,0.0,2.0334,1.9615,1.8668,1.7505,1.713,1.6968,1.6968,1.6772,1.6813,1.6813,1.4859,1.4088,1.4088,1.4088,1.4088,1.4088,1.4088,1.3922,1.3701,1.3701,1.2879,1.1888,1.1781,1.0921,0.0,0.9832,0.9651,0.924,0.8128,0.7849,0.758,0.6557,0.63,0.63,0.63,0.63,0.63,0.63,0.63,0.63,0.63,0.6141,0.5906,0.5709,0.496,0.4375,0.4375,0.3632,0.3007,0.2813,0.2813,0.2734,0.25,0.25,0.215,0.1333,0.0471,0.0392,0.1254,0.0471,0.0,0.0,0.0,0.0,0.0,0.0,0.0,0.0,-0.0431,-0.0588,0.0,0.0,0.0,0.0,0.0,0.0,0.0,0.0,0.0,0.0,0.0,2.6499,0.0,0.0,2.6499,2.6499,2.6094,2.5734,2.5734,2.5323,2.4433,2.2925,2.2739,2.2366,2.1403,2.1298,2.1268,2.1201,2.119,2.1473,2.2168,2.2197,2.2393,2.2769,2.2779,2.2886,2.3091,2.3091,2.3091,2.3091,2.2886,2.2394,2.1674,2.1061,2.0031,1.8776,1.8354,1.8149,1.8149,1.8149,1.7827,1.7172,1.6124,1.5387,1.4852,1.4292,1.4088,1.4088,1.4088,1.4088,1.4088,1.4088,1.3688,1.3178,1.3136,1.2278,1.1321,1.1178,1.0737,1.0147,0.9406,0.9192,0.8981,0.8195,0.761,0.72,0.708,0.6644,0.63,0.63,0.63,0.63,0.63,0.63,0.63,0.63,0.5828,0.5512,0.5512,0.504,0.4491,0.3943,0.3904,0.3671,0.3163,0.3085,0.289,0.2386,0.1839,0.18,0.2347,0.1839,0.1565,0.1565,0.1058,0.0784,0.0784,0.0275,0.0,0.0,0.0,0.0,0.0,0.0,0.0,0.0,0.0,0.0,0.0,0.0,2.6499,2.6499,2.6499,2.6499,2.6499,2.6499,2.6499,2.6499,2.6499,2.6499,2.6499,2.6499,2.5908,2.4289,2.3927,2.3404,2.2403,2.2187,2.1989,2.162,2.1507,2.1775,2.2588,2.2637,2.275,2.3081,2.3091,2.3091,2.3091,2.3091,2.3091,2.3091,2.3091,2.2916,2.2617,2.2119,2.1218,2.0012,1.9525,1.9313,1.9313,1.9313,1.8749,1.79,1.7698,1.709,1.6232,1.5103,1.458,1.4412,1.4412,1.4292,1.4088,1.4088,1.4088,1.4088,1.4088,1.3421,1.2638,1.2517,1.182,1.1044,1.0653,1.0554,1.0455,0.99,0.9143,0.8444,0.8215,0.7504,0.6834,0.6641,0.6606,0.6528,0.6338,0.63,0.63,0.63,0.63,0.63,0.63,0.63,0.5983,0.5118,0.5002,0.4647,0.3787,0.3513,0.3515,0.3709,0.3318,0.3202,0.3396,0.3202,0.3085,0.3085,0.2308,0.188,0.188,0.1019,0.051,0.0314,0.0314,0.0196,2.7802,2.704,2.6499,2.6499,2.6499,2.6499,0.0,0.0,2.6499,2.6499,2.6499,2.6499,2.6499,2.6499,2.6499,2.6499,2.6499,2.6499,2.6499,2.6499,2.6418,2.6198,2.537,2.4456,2.3441,2.2901,2.2728,2.3017,2.2619,2.2526,2.3003,2.3023,2.3042,2.3091,2.3091,2.3091,2.3091,2.3091,2.3091,2.3091,2.3091,2.3071,2.3003,2.2246,2.1814,2.1593,2.076,2.0401,2.0401,2.0401,2.0362,2.0118,1.9195,1.8758,1.851,1.7374,1.6355,1.5538,1.5538,1.4894,1.4088,1.4088,1.4088,1.4088,1.4088,1.3997,1.3906,1.3873,1.3776,1.3403,1.2194,1.1875,1.1606,1.042,0.9846,0.9541,0.9477,0.9202,0.8694,0.7821,0.7629,0.7365,0.6451,0.63,0.63,0.63,0.63,0.63,0.63,0.63,0.6261,0.6141,0.6103,0.6064,0.5944,0.5079,0.4924,0.5867,0.4139,0.3513,0.4491,0.3593,0.3085,0.3085,0.3007,0.2929,0.2929,0.2812,0.2306,0.1411,0.1411,0.0902,2.8084,2.7451,0.0,0.0,2.6499,2.6499,2.6499,2.6499,2.6499,2.6499,2.6499,2.6499,2.6499,2.6499,2.6499,0.0,2.6499,2.6499,2.6499,2.6499,2.6499,2.6499,2.6129,2.5476,2.448,2.4445,2.4166,2.337,2.3412,2.339,2.3115,2.3091,2.3091,2.3091,2.3091,2.3091,2.3091,2.3091,2.3091,2.3091,2.3091,2.3091,2.3062,2.2266,2.1602,2.1134,2.0762,2.0605,2.0605,2.0605,2.0605,2.0566,2.0128,1.9923,1.9717,1.794,1.7009,1.6642,1.6642,1.591,1.5012,1.5012,1.4615,1.4088,1.4088,1.4088,1.4088,1.4088,1.4088,1.3971,1.3413,1.3262,1.306,1.2361,1.1636,1.0992,1.0667,1.002,0.9371,0.8794,0.8656,0.8542,0.8127,0.8046,0.7859,0.7249,0.6679,0.63,0.63,0.63,0.63,0.63,0.63,0.63,0.63,0.5906,0.5825,0.6261,0.547,0.5157,0.5628,0.5198,0.496,0.496,0.4334,0.4021,0.4021,0.3396,0.289,0.2462,0.2462,0.1918,2.8748,0.0,0.0,2.704,2.685,2.6782,2.6555,2.6499,2.6499,2.6499,2.6499,2.6499,2.6499,2.6499,2.6499,2.6499,2.6499,2.6499,2.6499,2.6499,2.6499,2.6499,2.6499,2.626,2.5682,2.5864,2.557,2.4458,2.4686,2.4619,2.4082,2.4059,2.3887,2.3594,2.3551,2.343,2.3091,2.3091,2.3091,2.3091,2.3091,2.3091,2.3062,2.2266,2.1406,2.0605,2.0605,2.0605,2.0605,2.0605,2.0605,2.0605,2.0605,2.0605,2.0401,1.8789,1.802,1.7787,1.7787,1.705,1.615,1.615,1.5628,1.4943,1.4615,1.4531,1.4489,1.4166,1.4088,1.4088,1.4088,1.4088,1.4035,1.3814,1.3112,1.2378,1.1878,1.1119,1.0374,0.9825,0.9707,0.9631,0.9334,0.9296,0.9074,0.8313,0.7591,0.6907,0.6377,0.63,0.63,0.63,0.63,0.63,0.63,0.63,0.63,0.63,0.63,0.63,0.63,0.63,0.63,0.63,0.555,0.5157,0.5157,0.4373,0.3826,0.3552,0.3552,0.3008,3.0238,0.0,2.8748,2.7887,2.767,2.7451,2.6692,2.6499,2.6499,2.6499,2.6499,2.6499,2.6499,2.6499,2.6499,2.6499,2.6499,2.6499,2.6499,2.6499,2.6499,2.6499,2.6499,2.67,0.0,2.6772,2.6676,2.7135,2.6697,2.6419,2.64,2.64,2.5891,2.4787,2.4745,2.4211,2.3091,2.3091,2.3091,2.3091,2.3091,2.3091,2.3062,2.2266,2.1406,2.0605,2.0605,2.0605,2.0605,2.0605,2.0605,2.0605,2.0605,2.0605,2.0605,2.0527,1.9844,1.8957,1.8957,1.8189,1.7253,1.7253,1.7212,1.7009,1.5992,1.5655,1.5413,1.4412,1.4088,1.4088,1.4088,1.4088,1.4082,1.4075,1.3806,1.3479,1.322,1.292,1.2304,1.1023,1.0746,1.0453,0.9485,0.9296,0.9296,0.9258,0.9221,0.8504,0.6567,0.63,0.63,0.63,0.63,0.63,0.63,0.63,0.63,0.63,0.63,0.63,0.63,0.63,0.63,0.63,0.6261,0.6261,0.6261,0.6222,0.567,0.4647,0.4647,0.4062,3.045,0.0,2.9659,2.878,2.8556,2.8492,2.8214,2.8149,2.8149,2.8149,2.7703,2.7284,2.7284,2.685,2.6499,2.6499,2.6499,2.6499,2.6499,2.6499,2.6499,2.6499,2.6499,0.0,0.0,0.0,0.0,2.7314,2.747,2.725,2.6565,2.6524,2.6307,2.5922,2.5933,2.5724,2.5347,2.5347,2.5347,2.5347,2.4942,2.4621,2.4311,2.3026,2.2101,2.1479,2.0857,2.0605,2.0605,2.0605,2.0605,2.0605,2.0605,2.0605,2.0605,2.0605,2.0362,2.004,2.004,1.9353,1.843,1.843,1.7908,1.7212,1.6887,1.6764,1.6683,1.6322,1.5711,1.5179,1.5179,1.4608,1.4088,1.4088,1.4008,1.3861,1.352,1.3267,1.2882,1.2266,1.194,1.1694,1.136,1.1285,1.1056,1.0415,0.9744,0.8808,0.748,0.7288,0.7022,0.6377,0.63,0.63,0.63,0.63,0.63,0.63,0.63,0.63,0.63,0.63,0.63,0.63,0.63,0.63,0.63,0.63,0.6103,0.5747,0.5747,0.5196,3.0866,3.0748,3.0524,2.9659,2.9473,2.938,2.9066,2.9002,2.9002,2.9002,2.8556,2.8149,2.8149,2.7484,2.6939,2.6939,2.6679,2.6499,2.6499,2.6499,2.6499,2.6499,2.6499,2.6927,0.0,0.0,0.0,2.8195,2.8533,2.8398,2.7718,2.7678,2.7504,2.7075,2.7087,2.6883,2.6524,2.6524,2.6524,2.6472,2.5876,2.5384,2.4943,2.3798,2.2966,2.2515,2.1897,2.1413,2.1116,2.1116,2.0895,2.0605,2.0605,2.0605,2.0605,2.0605,2.0605,2.0605,2.0605,2.0167,1.9559,1.9559,1.9076,1.8421,1.8029,1.7908,1.7819,1.7423,1.6805,1.6273,1.6273,1.5462,1.465,1.465,1.437,1.4008,1.3666,1.3453,1.3247,1.2864,1.263,1.2425,1.2318,1.2305,1.2077,1.1428,1.0795,0.9895,0.8504,0.8351,0.7936,0.6945,0.6834,0.6683,0.6338,0.6641,0.6834,0.6834,0.6834,0.6834,0.6834,0.649,0.63,0.63,0.63,0.63,0.63,0.63,0.63,0.63,0.63,0.5944,3.1511,3.1511,3.1322,3.0554,3.0359,3.0133,2.9317,2.9129,2.9129,2.9129,2.9097,2.9066,0.0,0.0,2.7703,2.7703,2.704,2.6499,2.6499,2.6499,2.6499,0.0,0.0,0.0,0.0,0.0,0.0,2.9704,0.0,2.9792,2.9792,2.9792,2.9314,2.8215,2.8176,2.7695,2.6678,2.6689,2.6637,2.6644,2.6004,2.5509,2.5092,2.4532,2.4011,2.3551,2.3514,2.2962,2.2065,2.2065,2.1555,2.075,2.075,2.075,2.075,2.075,2.0712,2.0673,2.0673,2.0644,2.0605,2.0605,2.0605,2.0401,1.9402,1.9076,1.8877,1.7779,1.7423,1.7383,1.7383,1.6601,1.5779,1.5779,1.5019,1.4169,1.3844,1.3729,1.3548,1.2995,1.2822,1.267,1.2351,1.2305,1.2305,1.2305,1.2305,1.1589,0.9636,0.9372,0.8993,0.7974,0.7859,0.748,0.6528,0.7326,0.7859,0.7859,0.7859,0.7859,0.7859,0.6911,0.6377,0.6377,0.6338,0.63,0.63,0.63,0.63,0.63,0.63,0.63,3.1511,3.1511,3.1438,3.1248,3.119,3.1161,3.0896,3.0866,3.0866,3.0866,3.0389,2.9981,0.0,0.0,0.0,2.7703,2.704,0.0,2.6499,2.6499,0.0,2.6499,0.0,2.6927,2.7996,2.8109,0.0,0.0,2.9792,2.9792,2.9792,2.9792,2.9663,2.9365,2.9365,2.9248,2.8961,2.8961,2.8714,2.8287,2.775,2.7213,2.6675,2.536,2.4729,2.4564,2.3818,2.3331,2.311,2.311,2.2962,2.275,2.275,2.275,2.275,2.275,2.2301,2.1621,2.1621,2.1193,2.0605,2.0605,2.0605,2.0566,2.0284,2.0196,2.0118,1.9835,1.9195,1.855,1.855,1.7738,1.6887,1.6887,1.6683,1.6462,1.6376,1.5551,1.4739,1.437,1.3275,1.2392,1.2318,1.2305,1.2305,1.2305,1.2305,1.1848,1.0565,1.0415,1.004,0.9031,0.8917,0.8808,0.8542,0.8765,0.8917,0.8917,0.8917,0.8917,0.8917,0.7936,0.7403,0.7403,0.6679,0.63,0.63,0.63,0.63,0.63,0.63,0.63,3.1511,3.1511,3.1511,3.1511,3.1511,3.1511,3.1511,3.1511,3.1511,3.1511,3.1161,0.0,3.0837,0.0,0.0,0.0,0.0,0.0,2.6555,2.6499,2.6499,0.0,2.6499,0.0,2.7996,2.8109,2.8574,0.0,2.9792,2.9792,2.9792,2.9792,2.9792,2.9792,2.9792,2.9792,2.9792,2.9541,2.9252,2.8888,2.8122,2.7582,2.7256,2.6154,2.5664,2.5629,0.0,2.4588,2.4156,2.4156,2.3891,2.3514,2.3514,2.3514,2.3514,2.3514,2.3147,2.2664,2.2664,2.2038,2.1155,2.075,2.0605,2.0605,2.0605,2.0605,2.0605,2.0605,2.0167,1.9678,1.9678,1.8877,1.8069,1.8069,1.7666,1.7302,1.7302,1.6693,1.6046,1.5498,1.423,1.3151,1.2936,1.2556,1.2305,1.2305,1.2305,1.2114,1.1545,1.1465,1.1056,1.0083,0.997,0.9782,0.9334,0.9707,0.997,0.997,0.997,0.997,0.997,0.8993,0.8466,0.8466,0.7897,0.7629,0.7629,0.7176,0.6945,0.6949,0.649,0.63,3.1511,3.1511,3.1511,3.1511,3.1511,3.1511,3.1511,3.1511,3.1511,3.1511,0.0,3.1511,3.1511,3.0837,3.0042,2.9286,0.0,2.7637,2.6939,2.685,2.6782,2.6692,2.6658,2.7019,2.7996,2.8109,2.8574,2.9704,2.9792,2.9792,2.9792,2.9792,2.9792,2.9792,2.9792,2.9754,2.9679,2.9176,2.8813,2.8662,2.7745,2.7278,2.719,2.6713,2.6499,2.6499,2.6499,0.0,2.5194,2.5194,2.4707,2.3879,2.3879,2.3879,2.3879,2.3879,2.3806,2.3708,2.3708,2.3036,2.2038,2.1078,2.0712,2.0605,2.0605,2.0605,2.0605,2.0605,2.0605,2.0605,2.0605,1.9923,1.9195,1.9195,1.847,1.7738,1.7738,1.7584,1.7221,1.636,1.5348,1.4423,1.3979,1.3237,1.2696,1.2696,1.2556,1.2519,1.2659,1.2445,1.1959,1.1087,1.1013,1.064,0.9787,1.049,1.1013,1.1013,1.1013,1.1013,1.1013,1.0045,0.9485,0.9485,0.9372,0.9296,0.9296,0.8428,0.8012,0.797,0.7099,0.6679,3.1511,3.1511,3.1511,3.1511,3.1511,3.1511,3.1511,3.1511,0.0,0.0,3.1511,3.1511,3.1511,3.0837,3.0238,3.0103,0.0,0.0,0.0,0.0,2.8298,0.0,0.0,0.0,0.0,0.0,0.0,0.0,0.0,2.9792,2.9792,2.9792,2.9792,2.9792,2.9792,2.9566,2.9051,2.8938,2.8461,2.757,2.7369,2.7077,2.6637,2.6537,2.6499,2.6499,2.6499,0.0,2.6245,2.6245,2.6129,2.5978,2.5978,2.5978,2.5978,2.5978,2.5429,2.4743,2.4743,2.4072,2.3073,2.2075,2.1221,2.0605,2.0605,2.0605,2.0605,2.0605,2.0605,2.0605,2.0605,2.044,2.0323,2.0323,2.0157,2.004,2.004,1.9125,1.7893,1.6463,1.5864,1.5438,1.5015,1.4807,1.47,1.47,1.3991,1.3774,1.4593,1.3302,1.2224,1.207,1.2033,1.1959,1.1774,1.1922,1.2033,1.2033,1.2033,1.2033,1.2033,1.1056,1.0527,1.0527,0.9707,0.9296,0.9296,0.9112,0.9031,0.9031,0.8846,0.877,3.1511,3.1511,3.1511,3.1511,3.1511,3.1511,3.1511,0.0,0.0,0.0,3.1511,3.1511,3.1511,0.0,0.0,0.0,0.0,0.0,0.0,0.0,0.0,0.0,0.0,0.0,0.0,0.0,0.0,0.0,0.0,3.0809,2.9869,2.9792,2.9792,2.9792,2.9792,2.9515,2.89,2.8599,2.8097,2.7281,2.7027,2.6751,2.6499,2.6499,2.6499,2.6499,2.6499,0.0,2.6499,2.6499,2.6499,2.6499,2.6499,2.6499,2.6499,2.6499,2.6198,2.5769,2.5769,2.5111,2.4192,2.3708,2.2888,2.2124,2.2124,2.1745,2.1336,2.1336,2.0972,2.0605,2.0605,2.0605,2.0605,2.0605,2.0605,2.0605,2.0605,2.0082,1.9295,1.8326,1.7479,1.6767,1.6312,1.5652,1.5199,1.5199,1.4772,1.4665,1.5128,1.4378,1.3803,1.3803,1.3346,1.3025,1.3025,1.2592,1.2305,1.2305,1.2305,1.2305,1.2305,1.1842,1.1583,1.1583,1.1099,1.0875,1.0875,1.0346,1.0078,1.0078,0.9561,0.9296,3.1511,3.1511,3.1511,3.1511,3.1511,3.1511,3.1511,3.1511,0.0,0.0,3.1511,3.1511,3.1511,0.0,0.0,0.0,0.0,0.0,0.0,0.0,0.0,0.0,0.0,0.0,0.0,0.0,0.0,0.0,0.0,0.0,3.0177,3.0113,2.9998,2.9792,2.9666,2.9327,2.8712,2.821,2.7657,2.714,2.67,2.6499,2.6499,2.6499,2.6499,2.6499,2.6499,0.0,0.0,2.6499,2.6499,2.6499,2.6499,2.6499,2.6499,2.6499,2.6499,2.6499,2.6499,2.599,2.5335,2.5335,2.4516,2.3514,2.3514,2.2962,2.2328,2.2328,2.1783,2.1155,2.0972,2.1049,2.1165,2.0934,2.075,2.0605,2.0605,2.0605,2.0478,2.0,1.9033,1.8165,1.7595,1.6626,1.5893,1.5816,1.5623,1.5587,1.5763,1.5623,1.5587,1.5763,1.4736,1.4027,1.4027,1.3164,1.2592,1.2592,1.2409,1.2305,1.2305,1.2305,1.2305,1.2305,1.2305,1.2305,1.2305,1.1502,1.1124,1.1087,1.0308,0.9938,3.1511,3.1511,3.1511,3.1511,3.1511,3.1511,3.1511,0.0,0.0,3.1511,3.1511,3.1511,3.1511,3.1511,3.1467,0.0,0.0,3.1351,0.0,0.0,0.0,0.0,0.0,0.0,0.0,0.0,0.0,0.0,0.0,0.0,3.1143,3.1068,3.0696,2.983,2.9289,2.87,2.8185,2.7632,2.7115,2.6562,2.6512,2.6499,2.6499,2.6499,2.6499,2.6499,2.6499,0.0,0.0,2.6499,2.6499,2.6499,2.6499,2.6499,2.6499,2.6499,2.6499,2.6499,2.6499,2.6452,2.6349,2.6349,2.5063,2.3514,2.3514,2.3441,2.3368,2.3368,2.3294,2.3036,2.2103,2.2553,2.2999,2.2075,2.1231,2.0605,2.0605,2.0605,2.0478,2.0,1.9808,1.9442,1.8637,1.8383,1.8158,1.7817,1.7035,1.6784,1.7613,1.7001,1.6819,1.7647,1.6123,1.5057,1.5057,1.4135,1.3564,1.3564,1.2769,1.2305,1.2305,1.2305,1.2305,1.2305,1.2305,1.2305,1.2305,1.2224,1.215,1.215,1.2077,1.204,3.1511,3.1511,3.1511,3.1511,3.1511,3.1511,3.1511,0.0,3.1511,3.1511,3.1511,3.1511,3.1511,3.1511,3.1511,3.1511,3.1511,0.0,0.0,0.0,0.0,0.0,0.0,0.0,0.0,0.0,0.0,0.0,0.0,0.0,3.2961,3.2357,3.1703,3.0897,3.0645,3.0073,2.9143,2.8904,2.8538,2.7986,2.7986,2.7986,2.7986,2.7986,2.7736,2.7229,2.7229,0.0,0.0,2.6499,2.6499,2.6499,2.6499,2.6499,2.6499,2.6499,2.6499,2.6499,2.6499,2.6499,2.6499,2.6499,2.5943,2.5323,2.5323,2.4886,2.4409,2.4409,2.3963,2.3404,2.2999,2.3184,2.3404,2.2999,2.2627,2.2339,2.2339,2.2339,2.2285,2.2094,2.136,2.062,2.0032,1.9188,1.8461,1.8076,1.7681,1.7579,1.794,1.7681,1.7579,1.7974,1.6828,1.6035,1.6035,1.5163,1.4593,1.4593,1.4235,1.4055,1.4055,1.4055,1.4055,1.4055,1.4055,1.3738,1.3135,1.3135,1.2842,1.2305,1.2305,1.2305,3.2076,3.1979,3.1866,3.2076,3.1979,3.1881,0.0,0.0,3.2117,3.2117,3.2117,3.2076,3.1866,3.1824,3.1739,3.1539,3.1511,3.1511,3.1511,0.0,0.0,0.0,0.0,0.0,0.0,0.0,0.0,0.0,0.0,0.0,0.0,3.3636,3.2673,3.164,3.1461,3.0868,2.9816,2.9656,2.9352,2.9002,2.9002,2.9002,2.9002,2.9002,2.8684,2.8084,2.8084,0.0,0.0,2.7229,2.7229,2.7196,2.6973,2.685,2.685,2.6589,2.6499,2.6499,2.6499,2.6499,2.6499,2.6499,2.6499,2.6499,2.6499,2.6025,2.5441,2.5441,2.4707,2.4,2.4325,2.3963,2.3551,2.3854,2.3708,2.3514,2.3514,2.3514,2.3514,2.3514,2.2688,2.1882,2.1492,2.0425,1.9492,1.9087,1.8869,1.8754,1.8754,1.8754,1.8654,1.8395,1.7779,1.7292,1.7035,1.6149,1.5614,1.5614,1.534,1.5199,1.5199,1.5199,1.5199,1.5199,1.5199,1.4843,1.4135,1.4135,1.381,1.3164,1.2842,1.2556,3.3391,3.3093,3.2749,3.3417,3.3093,3.2761,0.0,3.3582,3.3582,3.3582,3.3582,3.3365,3.2722,3.2602,3.2355,3.1611,3.1511,3.1511,0.0,0.0,0.0,0.0,0.0,0.0,0.0,0.0,0.0,0.0,0.0,0.0,0.0,3.4861,3.3612,3.1661,3.1095,3.0488,2.9816,2.9274,2.9016,2.9002,2.9002,2.9002,2.9002,2.9002,2.9002,0.0,0.0,0.0,0.0,2.8971,2.8971,2.8907,2.8019,2.7703,2.7571,2.6782,2.6499,2.6499,2.6499,2.6499,2.6499,2.6499,2.6499,2.6499,2.6499,2.6499,2.6487,2.6487,2.5769,2.5229,2.6198,2.4981,2.3745,2.4755,2.4228,2.3514,2.3514,2.3514,2.3514,2.3514,2.3478,2.3358,2.2958,2.2372,2.1833,2.1419,2.0904,2.0558,2.0558,2.0558,2.0236,1.9365,1.9266,1.8911,1.8076,1.7139,1.6602,1.6602,1.572,1.5199,1.5199,1.5199,1.5199,1.5199,1.5199,1.5199,1.5163,1.5163,1.5163,1.5163,1.4135,1.3208,3.3531,3.3443,3.3339,3.3547,3.3443,3.3339,3.3556,3.3582,3.3582,3.3582,3.3582,3.3547,3.3313,3.3287,3.3209,3.2971,3.2944,3.2772,0.0,0.0,0.0,0.0,0.0,0.0,0.0,0.0,0.0,0.0,0.0,0.0,3.4128,3.3918,3.3535,3.2922,3.2295,3.1622,3.098,3.0776,3.0703,3.0703,3.0703,3.0703,3.0703,3.0703,3.0419,0.0,0.0,0.0,0.0,2.9002,2.9002,2.8971,2.8716,2.8588,2.8556,2.8298,2.8214,2.8214,2.8214,2.8214,2.8214,2.8214,2.8214,2.8214,2.8214,2.7417,2.6499,2.6499,2.628,2.6094,2.6418,2.6013,2.5652,2.5943,2.5791,2.5534,2.5534,2.5534,2.5534,2.5534,2.4992,2.4389,2.3921,2.3178,2.2351,2.152,2.1261,2.1004,2.0635,2.059,2.0494,2.0236,2.0204,1.9595,1.81,1.7725,1.7579,1.7579,1.7295,1.7113,1.7113,1.7113,1.7113,1.7113,1.7113,1.6793,1.614,1.614,1.5834,1.5199,1.4879,1.4557,0.0,3.4161,3.4037,3.4301,3.4161,0.0,0.0,3.435,3.435,3.435,3.435,3.4276,3.4012,3.3987,3.3887,3.3633,3.3582,0.0,0.0,0.0,0.0,0.0,0.0,0.0,0.0,0.0,0.0,0.0,0.0,0.0,3.3499,3.326,3.3125,3.3125,3.2721,3.2168,3.1511,3.1511,3.1511,3.1511,3.1511,3.1511,3.1511,3.1511,3.1219,0.0,0.0,0.0,0.0,2.995,2.995,2.9919,2.9597,2.9473,2.9442,2.9129,2.9002,2.9002,2.9002,2.9002,2.9002,2.9002,2.9002,2.9002,2.9002,2.8051,2.6939,2.6939,2.6714,2.6499,2.6499,2.6499,2.6499,2.6499,2.6499,2.6499,2.6499,2.6499,2.6499,2.6499,2.599,2.5472,2.5188,2.4465,2.3638,2.2803,2.2509,2.2171,2.1612,2.1542,2.1416,2.1101,2.1101,2.0526,1.911,1.8687,1.8496,1.8496,1.8168,1.8008,1.8008,1.8008,1.8008,1.8008,1.8008,1.7716,1.7139,1.7139,1.6645,1.5728,1.5728,1.5552,0.0,3.5161,3.4807,0.0,0.0,0.0,3.547,3.56,0.0,3.56,3.56,3.5407,3.4783,3.4688,3.4455,3.3836,0.0,0.0,0.0,0.0,0.0,0.0,0.0,0.0,0.0,0.0,0.0,0.0,0.0,0.0,3.3517,3.2916,3.257,3.257,3.257,3.2226,3.1511,3.1511,3.1511,3.1511,3.1511,3.1511,3.1511,3.1511,3.1511,0.0,0.0,0.0,0.0,3.1511,3.1511,3.1438,3.0673,3.0389,3.0299,2.9473,2.9192,2.9192,2.9192,2.9192,2.9192,2.9192,2.9192,2.9192,2.9192,2.8524,2.7802,2.7802,2.7263,2.6692,2.6692,2.6692,2.6692,2.6692,2.6624,2.6589,2.6589,2.6521,2.6499,2.6499,2.6499,2.6499,2.6499,2.6047,2.5473,2.4926,2.4406,2.3853,2.3246,2.3133,2.2823,2.2075,2.1982,2.1647,2.0846,1.9944,1.9398,1.9398,1.862,1.8168,1.8168,1.8168,1.8168,1.8168,1.81,1.8076,1.8076,1.8042,1.7535,1.6706,1.6706,1.6219,3.56,0.0,3.5385,3.5577,3.547,3.5407,0.0,3.56,3.56,3.56,0.0,3.5538,3.5385,3.5362,3.5316,0.0,0.0,0.0,0.0,0.0,0.0,0.0,0.0,0.0,0.0,0.0,0.0,0.0,0.0,3.3592,3.3592,3.3434,3.334,3.334,3.334,3.2753,3.1511,3.1511,3.1511,3.1511,3.1511,3.1511,3.1511,3.1511,3.1511,0.0,0.0,0.0,3.1511,3.1511,3.1511,3.1467,3.1278,3.1219,3.119,3.0999,3.0896,3.0896,3.0896,3.0896,3.0896,3.0896,3.0896,3.0896,3.0896,2.9858,2.8684,2.8684,2.8556,2.8395,2.8395,2.8395,2.8395,2.8395,2.7887,2.7417,2.7417,2.6939,2.6499,2.6499,2.6499,2.6499,2.6499,2.6386,2.6097,2.5498,2.4971,2.4418,2.3866,2.3384,2.3035,2.2823,2.2823,2.2732,2.2525,2.1164,2.0301,2.0301,2.0107,1.9977,1.9977,1.9977,1.9977,1.9977,1.9332,1.8977,1.8977,1.8337,1.7906,1.7681,1.7681,1.7545,3.56,3.56,3.56,3.56,3.56,3.56,3.56,3.56,3.56,0.0,0.0,0.0,0.0,0.0,0.0,0.0,0.0,0.0,0.0,0.0,0.0,0.0,0.0,0.0,0.0,0.0,0.0,0.0,0.0,3.3582,3.3582,3.3582,3.3582,3.3582,3.3582,3.3219,3.2489,3.216,3.2007,3.2007,3.1668,3.1511,3.1511,3.1511,3.1511,0.0,0.0,0.0,3.1511,3.1511,3.1511,3.1511,3.1511,3.1511,3.1511,3.1511,3.1511,3.1511,3.1511,3.1511,3.1511,3.1511,3.1511,3.1511,3.1511,3.0866,3.0072,2.969,2.9317,2.9002,2.9002,2.9002,2.9002,2.9002,2.8652,2.8298,2.8298,2.7953,2.7637,2.7637,2.7637,2.7637,2.7637,2.7637,2.7308,2.6355,2.5955,2.532,2.4155,2.3715,2.3396,2.3133,2.3108,2.3108,2.3108,2.2279,2.1573,2.1239,2.0814,2.059,2.059,2.059,2.059,2.059,2.0139,1.989,1.989,1.9431,1.9199,1.9199,1.9199,1.8977,3.56,3.56,3.56,3.56,3.56,3.56,3.56,0.0,0.0,0.0,0.0,0.0,0.0,0.0,0.0,0.0,0.0,0.0,0.0,0.0,0.0,0.0,0.0,0.0,0.0,0.0,0.0,0.0,0.0,3.3928,3.3928,3.3928,3.3928,3.3928,3.3928,3.3928,3.3928,3.3145,3.2734,3.2749,3.2132,3.1809,3.1809,3.1809,3.1809,3.1809,0.0,0.0,3.1809,3.171,3.1668,3.1668,3.1524,3.1511,3.1511,3.1511,3.1511,3.1511,3.1511,3.1511,3.1524,3.164,3.1668,3.1697,3.1796,3.1739,3.1538,3.0837,3.0027,2.938,2.938,2.938,2.938,2.938,2.9286,2.9192,2.9192,2.9097,2.9002,2.9002,2.9002,2.9002,2.9002,2.9002,2.8616,2.7384,2.7142,2.6491,2.4833,2.4484,2.416,2.365,2.3522,2.3442,2.3442,2.3442,2.31,2.231,2.1447,2.0974,2.0974,2.0974,2.0974,2.0974,2.0846,2.0814,2.0814,2.0655,2.059,2.059,2.059,2.0204,3.56,3.56,3.56,3.56,3.56,3.56,3.56,3.56,0.0,0.0,0.0,0.0,0.0,0.0,0.0,0.0,0.0,0.0,0.0,0.0,0.0,0.0,0.0,0.0,0.0,0.0,0.0,0.0,0.0,0.0,3.5293,3.5293,3.5293,3.5293,3.5293,3.5293,3.5293,3.4078,3.3443,3.3443,3.3339,3.3287,3.3287,3.3287,3.3287,3.3287,0.0,3.3287,3.3235,3.2668,3.2437,3.2382,3.1739,3.1511,3.1511,3.1511,3.1511,3.1511,3.1511,3.1511,3.1611,3.2231,3.2437,3.2532,3.3103,3.2879,3.241,3.2269,3.1694,3.1117,3.1117,3.1117,3.1117,3.1117,3.0614,3.0103,3.0103,2.9504,2.9002,2.9002,2.9002,2.9002,2.9002,2.9002,2.8943,2.872,2.8298,2.7882,2.7598,2.6665,2.6009,2.5913,2.5391,2.5063,2.5063,2.5063,2.4724,2.3989,2.316,2.272,2.272,2.272,2.272,2.272,2.2063,2.169,2.169,2.0942,2.059,2.059,2.059,2.0526,3.5672,3.56,3.5672,3.5963,3.6032,3.6118,3.6399,3.6249,3.6032,0.0,0.0,0.0,0.0,0.0,0.0,0.0,0.0,0.0,0.0,0.0,0.0,0.0,0.0,0.0,0.0,0.0,0.0,0.0,0.0,0.0,3.56,3.56,3.56,3.56,3.56,3.56,3.56,3.4981,3.4496,3.4137,3.3761,3.3582,3.3582,3.3582,3.3582,3.3582,0.0,3.3582,3.3598,3.3261,3.3145,3.3119,3.2772,3.2637,3.2637,3.2637,3.2637,3.2637,3.2637,3.2637,3.2691,3.3039,3.3145,3.3182,3.3521,3.3391,3.3145,3.3145,3.2339,3.1511,3.1511,3.1511,3.1511,3.1511,3.1219,3.097,3.097,3.0614,3.0359,3.0359,3.0359,3.0359,3.0359,3.0359,3.0208,2.9766,2.948,2.9062,2.8299,2.7712,2.7102,2.6451,2.6104,2.5785,2.5425,2.5398,2.5091,2.435,2.3531,2.3108,2.3108,2.3108,2.3108,2.3108,2.2732,2.2537,2.2537,2.2156,2.1959,2.1959,2.1959,2.171,3.6097,3.5968,3.6101,3.6623,3.6563,3.6539,3.7095,3.6882,3.66,0.0,0.0,0.0,0.0,0.0,0.0,0.0,0.0,0.0,0.0,0.0,0.0,0.0,0.0,0.0,0.0,0.0,0.0,0.0,0.0,0.0,3.56,3.56,3.56,3.56,3.56,3.56,3.56,3.56,3.5339,3.4847,3.4309,3.4078,3.4078,3.4078,3.4078,3.4078,3.4078,3.4078,3.4053,3.3887,3.3836,3.3811,3.3659,3.3582,3.3582,3.3582,3.3582,3.3582,3.3582,3.3582,3.3633,3.3786,3.3836,3.3862,3.4012,3.3962,3.3836,3.3836,3.2944,3.1992,3.1992,3.1992,3.1992,3.1992,3.1866,3.1768,3.1768,3.1611,3.1511,3.1511,3.1511,3.1511,3.1511,3.1511,3.1278,3.0673,3.0584,3.0186,2.9114,2.8826,2.836,2.7456,2.7089,2.6651,2.5961,2.5755,2.5425,2.4851,2.4076,2.3636,2.3636,2.3636,2.3636,2.3636,2.3471,2.3395,2.3395,2.3198,2.3108,2.3108,2.3108,2.2763,3.7114,3.7078,3.7192,3.7667,3.7079,3.6539,3.7095,3.7154,0.0,3.7135,0.0,0.0,0.0,0.0,0.0,0.0,0.0,0.0,0.0,0.0,0.0,0.0,0.0,0.0,0.0,0.0,0.0,0.0,0.0,0.0,3.56,3.56,3.56,3.56,3.56,3.56,3.56,3.56,3.5577,3.5515,3.547,3.5447,3.5447,3.5447,3.5447,3.5447,3.5447,3.5447,3.5424,3.4783,3.4528,3.4455,3.3836,3.3582,3.3582,3.3582,3.3582,3.3582,3.3582,3.3582,3.371,3.4333,3.4528,3.464,3.527,3.5028,3.4528,3.4528,3.4012,3.3469,3.3469,3.3469,3.3469,3.3469,3.296,3.252,3.252,3.1979,3.1511,3.1511,3.1511,3.1511,3.1511,3.1511,3.1467,3.1409,3.1409,3.1394,3.1291,3.0726,3.0294,3.0218,2.9161,2.8178,2.7493,2.6826,2.6404,2.6336,2.5646,2.5231,2.5231,2.5231,2.5231,2.5231,2.4567,2.4205,2.4205,2.3454,2.3108,2.3108,2.3108,2.3078,3.7267,3.7209,3.7304,3.7772,3.7596,3.747,0.0,3.7878,3.7632,3.7632,3.7396,0.0,0.0,0.0,0.0,0.0,0.0,0.0,0.0,0.0,0.0,0.0,0.0,0.0,0.0,0.0,0.0,0.0,0.0,0.0,0.0,3.56,3.56,3.56,3.56,3.56,3.56,3.56,3.56,3.56,3.56,3.56,3.56,3.56,3.56,3.56,3.56,3.56,3.5577,3.5339,3.523,3.5207,3.4934,3.484,3.484,3.484,3.484,3.484,3.484,3.484,3.4887,3.5138,3.523,3.5276,3.5515,3.5407,3.523,3.523,3.5028,3.4657,3.3827,3.3582,3.3582,3.3582,3.3417,3.3209,3.3209,3.2997,3.2826,3.2826,3.2826,3.2826,3.2826,3.2461,3.216,3.216,3.1796,3.1511,3.1511,3.1271,3.0957,3.0552,2.9355,2.8502,2.8233,2.7569,2.7163,2.7163,2.6054,2.5398,2.5398,2.5398,2.5398,2.5398,2.5119,2.4979,2.4979,2.4221,2.3855,2.3826,2.3335,2.3108,3.7773,3.7667,3.7738,3.8065,3.8148,0.0,3.8627,3.8433,3.8148,3.8148,3.7895,0.0,0.0,0.0,0.0,0.0,0.0,0.0,0.0,0.0,0.0,0.0,0.0,0.0,0.0,0.0,0.0,0.0,0.0,0.0,0.0,3.6118,3.6118,3.6118,3.5941,3.5854,3.5854,3.5672,3.56,3.56,3.56,3.56,3.56,3.56,3.56,3.56,3.56,3.56,3.56,3.56,3.56,3.56,3.56,3.56,3.56,3.56,3.56,3.56,3.56,3.56,3.56,3.56,3.56,3.56,3.56,3.56,3.56,3.56,3.56,3.5402,3.4471,3.4227,3.4227,3.4227,3.4062,3.3912,3.3912,3.3735,3.3582,3.3582,3.3582,3.3582,3.3582,3.3209,3.2922,3.2922,3.2489,3.2173,3.2173,3.1979,3.1511,3.061,2.9931,2.929,2.8663,2.8173,2.7824,2.76,2.664,2.6094,2.6094,2.6094,2.6094,2.6094,2.5864,2.5755,2.5755,2.5007,2.4652,2.4624,2.4076,2.3813,3.8707,3.8707,3.8707,0.0,0.0,0.0,3.8707,3.8707,3.8707,3.8707,0.0,3.8707,3.8707,0.0,0.0,0.0,0.0,0.0,0.0,0.0,0.0,0.0,0.0,0.0,0.0,0.0,0.0,0.0,0.0,0.0,0.0,3.7209,3.7209,3.7209,3.6684,3.6395,3.6395,3.5876,3.5622,3.5622,3.5622,3.5622,3.56,3.56,3.56,3.56,3.56,3.56,3.56,3.56,3.56,3.56,3.56,3.56,3.56,3.56,3.56,3.56,3.56,3.56,3.56,3.56,3.56,3.56,3.56,3.56,3.56,3.56,3.56,3.56,3.56,3.56,3.56,3.56,3.5098,3.46,3.46,3.4087,3.3608,3.3608,3.3608,3.3608,3.3608,3.3608,3.3608,3.3608,3.3608,3.3582,3.3582,3.3013,3.2093,3.0694,3.1178,3.0801,2.8805,2.8633,2.8334,2.767,2.7625,2.7625,2.76,2.76,2.76,2.76,2.6878,2.651,2.651,2.5755,2.5398,2.5398,2.5398,2.5398,3.8707,3.8707,0.0,3.8707,0.0,0.0,0.0,3.8707,0.0,0.0,3.8707,3.8707,0.0,0.0,0.0,0.0,0.0,0.0,0.0,0.0,0.0,0.0,0.0,0.0,0.0,0.0,0.0,0.0,0.0,0.0,0.0,3.7209,3.7209,3.7209,3.7057,3.6962,3.6962,3.6805,3.6744,3.6744,3.6744,3.6316,3.56,3.56,3.56,3.56,3.56,3.56,3.56,3.56,3.56,3.56,3.56,3.56,3.56,3.56,3.56,3.56,3.56,3.56,3.56,3.56,3.56,3.56,3.56,3.56,3.56,3.56,3.56,3.56,3.56,3.56,3.56,3.56,3.5447,3.5316,3.5316,3.5161,3.5005,3.5005,3.5005,3.5005,3.5005,3.4616,3.4309,3.4309,3.3912,3.3582,3.3582,3.3443,3.3156,3.2725,3.2465,3.2057,3.147,3.0516,2.9678,2.9052,2.8507,2.8042,2.7625,2.76,2.76,2.76,2.7382,2.728,2.728,2.6522,2.6176,2.6149,2.5646,2.5398,3.8707,3.8707,0.0,3.8707,3.8707,3.8707,3.8707,0.0,0.0,0.0,0.0,0.0,0.0,0.0,0.0,0.0,0.0,0.0,0.0,0.0,0.0,0.0,0.0,0.0,0.0,0.0,0.0,0.0,0.0,0.0,0.0,3.7791,3.7791,3.7791,3.7596,3.7488,3.7488,3.7285,3.7209,3.7209,3.7209,3.6865,3.6249,3.6249,3.6249,3.6249,3.6249,3.6101,3.592,3.592,3.5805,3.56,3.56,3.56,3.56,3.56,3.56,3.56,3.56,3.56,3.56,3.56,3.56,3.56,3.56,3.56,3.56,3.56,3.56,3.56,3.56,3.56,3.56,3.56,3.56,3.56,3.56,3.56,3.56,3.56,3.56,3.56,3.56,3.5253,3.4988,3.4988,3.464,3.4301,3.4037,3.4227,3.4202,3.3675,3.3475,3.3193,3.2632,3.1831,3.1079,3.0423,2.969,2.9123,2.8777,2.8006,2.76,2.76,2.76,2.76,2.76,2.7152,2.693,2.693,2.6481,2.6269,3.8707,3.8707,0.0,3.8707,3.8707,0.0,3.8707,0.0,0.0,0.0,0.0,0.0,0.0,0.0,0.0,0.0,0.0,0.0,0.0,0.0,0.0,0.0,0.0,0.0,0.0,0.0,0.0,0.0,0.0,0.0,0.0,3.8707,3.8707,3.8707,3.8234,3.798,3.798,3.7542,3.734,3.734,3.734,3.734,3.734,3.7229,3.7209,3.7209,3.7209,3.6921,3.6478,3.6478,3.6203,3.5761,3.5761,3.5761,3.5761,3.5761,3.5761,3.5739,3.5694,3.5672,3.565,3.5622,3.56,3.56,3.56,3.56,3.56,3.56,3.56,3.56,3.56,3.56,3.56,3.56,3.56,3.56,3.56,3.56,3.56,3.56,3.56,3.56,3.56,3.56,3.56,3.56,3.56,3.5385,3.4759,3.523,3.5138,3.3912,3.4333,3.4192,3.2983,3.2821,3.249,3.1822,3.1074,3.0665,3.0596,2.8786,2.776,2.776,2.776,2.776,2.776,2.776,2.776,2.776,2.776,2.7735,3.8707,3.8707,0.0,0.0,3.8707,3.8707,3.8707,0.0,0.0,0.0,0.0,0.0,0.0,0.0,0.0,0.0,0.0,0.0,0.0,0.0,0.0,0.0,0.0,0.0,0.0,0.0,0.0,0.0,0.0,0.0,3.8707,3.8707,3.8707,3.8707,3.8578,3.853,3.853,3.8433,3.8385,0.0,3.8385,3.8385,3.8352,3.756,3.7209,3.7209,3.7209,3.7116,3.7038,3.7038,3.6962,3.6845,3.6845,3.6845,3.6845,3.6845,3.6845,3.6803,3.6374,3.6224,3.6161,3.5739,3.56,3.56,3.56,3.56,3.56,3.56,3.56,3.56,3.56,3.56,3.56,3.56,3.56,3.56,3.56,3.56,3.56,3.56,3.56,3.56,3.56,3.56,3.56,3.56,3.56,3.5538,3.5385,3.5515,3.5492,3.5184,3.5293,3.5272,3.499,3.4415,3.3839,3.3205,3.2485,3.1864,3.1381,2.9854,2.9019,2.9019,2.9019,2.9019,2.9019,2.9019,2.9019,2.9019,2.9019,2.8764,3.888,0.0,0.0,3.8735,0.0,3.8707,3.8707,0.0,0.0,0.0,0.0,0.0,0.0,0.0,0.0,0.0,0.0,0.0,0.0,0.0,0.0,0.0,0.0,0.0,0.0,0.0,0.0,0.0,0.0,3.8707,3.8707,3.8707,3.8707,3.8707,3.8707,3.8707,3.8707,3.8707,3.8707,3.8707,3.8707,3.8707,3.8692,3.8152,3.793,3.793,3.793,3.7755,3.7542,3.7542,3.7396,3.7209,3.7209,3.7209,3.7209,3.7209,3.7209,3.7154,3.6882,3.6783,3.6744,3.646,3.6357,3.6357,3.6357,3.6357,3.6357,3.6357,3.6357,3.6357,3.6357,3.6357,3.6357,3.6357,3.5968,3.56,3.56,3.56,3.56,3.56,3.56,3.56,3.56,3.56,3.56,3.56,3.56,3.56,3.56,3.56,3.56,3.56,3.56,3.56,3.56,3.5245,3.488,3.4576,3.3868,3.3317,3.3007,3.1907,3.0887,2.9948,2.9582,2.9406,2.9406,2.9406,2.9406,2.9406,2.9406,2.9225,3.9192,0.0,3.9117,3.8792,3.8735,0.0,3.8704,0.0,0.0,0.0,0.0,0.0,0.0,0.0,0.0,0.0,0.0,0.0,0.0,0.0,0.0,0.0,0.0,0.0,0.0,0.0,0.0,0.0,0.0,3.8707,3.8707,3.8707,3.8707,3.8707,3.8707,3.8707,3.8707,3.8707,3.8707,3.8707,3.8707,3.8707,3.8707,3.8707,3.8707,3.8707,3.8707,3.8449,3.8048,3.8048,3.7808,3.7469,3.7469,3.7469,3.7469,3.7469,3.7469,3.7451,3.7341,3.7323,3.7304,3.7228,3.7209,3.7209,3.7209,3.7209,3.7209,3.7209,3.7209,3.7209,3.7209,3.7209,3.7209,3.7209,3.6522,3.5876,3.5876,3.5788,3.5739,3.5739,3.5739,3.5739,3.5739,3.5739,3.5694,3.5622,3.56,3.56,3.56,3.56,3.56,3.56,3.56,3.56,3.56,3.56,3.56,3.56,3.503,3.4692,3.4692,3.3981,3.2827,3.1216,3.0338,2.9847,2.9717,2.9717,2.9717,2.9717,2.9717,2.9651,3.9541,0.0,3.9396,0.0,3.8884,3.8985,0.0,0.0,0.0,0.0,0.0,0.0,0.0,0.0,0.0,0.0,0.0,0.0,0.0,0.0,0.0,0.0,0.0,0.0,0.0,0.0,0.0,0.0,3.8707,3.8707,3.8707,3.8707,3.8707,3.8707,3.8707,3.8707,3.8707,3.8707,3.8707,3.8707,3.8707,3.8707,3.8707,3.8707,3.8707,3.8707,3.8707,3.8658,3.8578,3.8578,3.8546,3.8499,3.8499,3.8499,3.8499,3.8499,3.8499,3.8433,3.7981,3.7807,3.7737,3.7323,3.7209,3.7209,3.7209,3.7209,3.7209,3.7209,3.7209,3.7209,3.7209,3.7209,3.7209,3.7209,3.7078,3.6981,3.6981,3.6623,3.6291,3.6291,3.6291,3.6291,3.6291,3.6291,3.6139,3.5672,3.56,3.56,3.56,3.56,3.56,3.56,3.56,3.56,3.56,3.56,3.56,3.56,3.5498,3.5447,3.5447,3.4742,3.4221,3.3972,3.2627,3.1597,3.0975,3.0975,3.0975,3.0975,3.0975,3.0679,3.988,3.9735,3.9529,0.0,3.9301,3.9358,3.9229,0.0,0.0,0.0,0.0,0.0,0.0,0.0,0.0,0.0,0.0,0.0,0.0,0.0,0.0,0.0,0.0,0.0,0.0,0.0,0.0,0.0,3.8707,3.8707,3.8707,3.8707,3.8707,3.8707,3.8707,3.8707,3.8707,3.8707,3.8707,3.8707,3.8707,3.8707,3.8707,3.8707,3.8707,3.8707,3.8707,3.8707,3.8707,3.8707,3.8707,3.8707,3.8707,3.8707,3.8707,3.8707,3.8707,3.8676,3.8433,3.835,3.83,3.8118,3.8033,3.8033,3.8033,3.8033,3.8033,3.8033,3.8033,3.8033,3.8033,3.8033,3.8033,3.8033,3.8033,3.8033,3.8033,3.7414,3.6843,3.6843,3.6843,3.6843,3.6843,3.6843,3.6764,3.6542,3.6501,3.6378,3.6097,3.6054,3.5941,3.5644,3.56,3.56,3.56,3.56,3.56,3.56,3.56,3.56,3.56,3.5301,3.4928,3.4506,3.3457,3.2544,3.1819,3.1819,3.1616,3.119,3.119,3.1055,0.0,0.0,3.9789,3.9645,3.9656,3.9701,0.0,0.0,0.0,0.0,0.0,0.0,0.0,0.0,0.0,0.0,0.0,0.0,0.0,0.0,0.0,0.0,0.0,0.0,0.0,0.0,0.0,0.0,3.8707,3.8707,3.8707,3.8707,3.8707,3.8707,3.8707,3.8707,3.8707,3.8707,3.8707,3.8707,3.8707,3.8707,3.8707,3.8707,3.8707,3.8707,3.8707,3.8707,3.8707,3.8707,3.8707,3.8707,3.8707,3.8707,3.8707,3.8707,3.8707,3.8707,3.8707,3.8707,3.8707,3.8707,3.8707,3.8707,3.8707,3.8707,3.8707,3.8707,3.8707,3.8707,3.8707,3.8707,3.8707,3.8707,3.8707,3.8658,3.853,3.7912,3.7378,3.7378,3.7378,3.7378,3.7378,3.7378,3.7341,3.7228,3.7209,3.7057,3.6643,3.6603,3.644,3.6054,3.5876,3.5788,3.5788,3.5788,3.5788,3.5788,3.5924,3.6011,3.6011,3.6011,3.5737,3.5193,3.4644,3.3786,3.2581,3.2581,3.2209,3.1481,3.1481,3.1376,0.0,4.0267,0.0,3.9746,3.9829,0.0,0.0,0.0,0.0,0.0,0.0,0.0,0.0,0.0,0.0,0.0,0.0,0.0,0.0,0.0,0.0,0.0,0.0,0.0,0.0,0.0,0.0,0.0,3.8707,3.8707,3.8707,3.8707,3.8707,3.8707,3.8707,3.8707,3.8707,3.8707,3.8707,3.8707,3.8707,3.8707,3.8707,3.8707,3.8707,3.8707,3.8707,3.8707,3.8707,3.8707,3.8707,3.8707,3.8707,3.8707,3.8707,3.8707,3.8707,3.8707,3.8707,3.8707,3.8707,3.8707,3.8707,3.8707,3.8707,3.8707,3.8707,3.8707,3.8707,3.8707,3.8707,3.8707,3.8707,3.8707,3.8707,3.8562,3.8048,3.7893,3.7859,3.7859,3.7859,3.7859,3.7859,3.7859,3.7702,3.7284,3.7209,3.7173,3.7154,3.7171,3.7152,3.7133,3.6664,3.6354,3.6354,3.6354,3.6354,3.6354,3.6843,3.7133,3.7133,3.7133,3.7098,3.7063,3.7027,3.5789,3.3339,3.3339,3.2949,3.2242,3.2242,3.187,0.0,0.0,0.0,4.0239,4.0276,0.0,0.0,0.0,0.0,0.0,0.0,0.0,0.0,0.0,0.0,0.0,0.0,0.0,0.0,0.0,0.0,0.0,0.0,0.0,0.0,0.0,0.0,0.0,0.0,3.8707,3.8707,3.8707,3.8707,3.8707,3.8707,3.8707,3.8707,3.8707,3.8707,3.8707,3.8707,3.8707,3.8707,3.8707,3.8707,3.8707,3.8707,3.8707,3.8707,3.8707,3.8707,3.8707,3.8707,3.8707,3.8707,3.8707,3.8707,3.8707,3.8707,3.8707,3.8707,3.8707,3.8707,3.8707,3.8707,3.8707,3.8707,3.8707,3.8707,3.8707,3.8707,3.8707,3.8707,3.8707,3.8707,3.8643,3.8465,3.8415,3.8415,3.8415,3.8415,3.8415,3.8415,3.8415,3.835,3.8185,3.8152,3.8033,3.7685,3.7649,3.7524,3.7229,3.7038,3.6921,3.6921,3.6921,3.6921,3.6921,3.7078,3.7209,3.7209,3.7209,3.7209,3.7209,3.7209,3.6509,3.5076,3.4757,3.4235,3.3495,3.2675,3.2158,4.0496,0.0,0.0,0.0,0.0,0.0,0.0,0.0,0.0,0.0,0.0,0.0,0.0,0.0,0.0,0.0,0.0,0.0,0.0,0.0,0.0,0.0,0.0,0.0,0.0,0.0,0.0,0.0,0.0,0.0,3.8707,3.8707,3.8707,3.8707,3.8707,3.8707,3.8707,3.8707,3.8707,3.8707,3.8707,3.8707,3.8707,3.8707,3.8707,3.8707,3.8707,3.8707,3.8707,3.8707,3.8707,3.8707,3.8707,3.8707,3.8707,3.8707,3.8707,3.8707,3.8707,3.8707,3.8707,3.8707,3.8707,3.8707,3.8707,3.8707,3.8707,3.8707,3.8707,3.8707,3.8707,3.8707,3.8707,3.8707,3.8707,3.8707,3.8707,3.8707,3.8707,3.8707,3.8707,3.8707,3.8707,3.8707,3.8707,3.8707,3.8707,3.8562,3.8216,3.8167,3.8048,3.7738,3.7542,3.7433,3.7433,3.7433,3.7433,3.7433,3.7596,3.7703,3.7703,3.7703,3.7703,3.7703,3.7703,3.7433,3.6895,3.6244,3.5551,3.4765,3.3952,3.3259,0.0,0.0,0.0,0.0,0.0,0.0,0.0,0.0,0.0,0.0,0.0,0.0,0.0,0.0,0.0,0.0,0.0,0.0,0.0,0.0,0.0,0.0,0.0,0.0,0.0,0.0,0.0,0.0,3.8738,3.8719,3.8704,3.8707,3.8707,3.8707,3.8707,3.8707,3.8707,3.8707,3.8707,3.8707,3.8707,3.8707,3.8707,3.8707,3.8707,3.8707,3.8707,3.8707,3.8707,3.8707,3.8707,3.8707,3.8707,3.8707,3.8707,3.8707,3.8707,3.8707,3.8707,3.8707,3.8707,3.8707,3.8707,3.8707,3.8707,3.8707,3.8707,3.8707,3.8707,3.8707,3.8707,3.8707,3.8707,3.8707,3.8707,3.8707,3.8707,3.8707,3.8707,3.8707,3.8707,3.8707,3.8707,3.8707,3.8707,3.8707,3.8707,3.8707,3.8707,3.8707,3.8707,3.8707,3.8232,3.7911,3.7911,3.7911,3.7911,3.7911,3.8399,3.8707,3.8707,3.8707,3.8707,3.8707,3.8707,3.8707,3.8707,3.7703,3.6803,3.6059,3.6023,3.5173,4.0496,0.0,0.0,0.0,0.0,0.0,0.0,0.0,0.0,0.0,0.0,0.0,0.0,0.0,0.0,0.0,0.0,0.0,0.0,0.0,0.0,0.0,0.0,0.0,0.0,0.0,0.0,0.0,3.9352,3.9236,3.8999,3.8803,3.8707,3.8707,3.8707,3.8707,3.8707,3.8707,3.8707,3.8707,3.8707,3.8707,3.8707,3.8707,3.8707,3.8707,3.8707,3.8707,3.8707,3.8707,3.8707,3.8707,3.8707,3.8707,3.8707,3.8707,3.8707,3.8707,3.8707,3.8707,3.8707,3.8707,3.8707,3.8707,3.8707,3.8707,3.8707,3.8707,3.8707,3.8707,3.8707,3.8707,3.8707,3.8707,3.8707,3.8707,3.8707,3.8707,3.8707,3.8707,3.8707,3.8707,3.8707,3.8707,3.8707,3.8707,3.8707,3.8707,3.8707,3.8707,3.8707,3.8707,3.8562,3.8481,3.8481,3.8481,3.8481,3.8481,3.8627,3.8707,3.8707,3.8707,3.8707,3.8707,3.8707,3.8707,3.8707,3.8032,3.7595,3.7343,3.6435,3.5366,0.0,0.0,0.0,0.0,0.0,0.0,4.0496,4.0496,0.0,0.0,0.0,0.0,0.0,0.0,0.0,0.0,0.0,0.0,0.0,0.0,0.0,0.0,0.0,0.0,0.0,3.9808,3.9754,3.9611,3.9599,3.9498,3.9314,3.9163,3.9078,3.9078,3.9078,3.9008,3.8869,3.9008,3.9008,3.8869,3.9008,3.9078,3.9078,3.8942,3.8937,3.9078,3.8942,3.8956,3.9064,3.8909,3.8803,3.8707,3.8707,3.8707,3.8707,3.8707,3.8707,3.8707,3.8707,3.8707,3.8707,3.8707,3.8707,3.8707,3.8707,3.8707,3.8707,3.8707,3.8707,3.8707,3.8707,3.8707,3.8707,3.8707,3.8707,3.8707,3.8707,3.8707,3.8707,3.8707,3.8707,3.8707,3.8707,3.8707,3.8707,3.8707,3.8707,3.8707,3.8707,3.8707,3.8707,3.8707,3.8707,3.8707,3.8707,3.8707,3.8707,3.8707,3.8707,3.8707,3.8707,3.8707,3.8707,3.8707,3.8707,3.8707,3.8707,3.8382,3.8232,3.8198,3.7133,3.6102,0.0,0.0,0.0,0.0,0.0,0.0,4.0496,4.0496,4.0496,0.0,0.0,0.0,0.0,0.0,0.0,0.0,0.0,0.0,0.0,0.0,0.0,0.0,0.0,0.0,4.0167,4.0139,4.0032,3.9724,3.9668,3.9656,3.9656,3.9622,3.9599,3.9599,3.9599,3.9469,3.9165,3.9438,3.9438,3.9165,3.945,3.9599,3.9599,3.9289,3.9314,3.9587,3.9276,3.9314,3.9576,3.9276,3.8985,3.8732,3.8704,3.8707,3.8707,3.8707,3.8707,3.8707,3.8707,3.8707,3.8707,3.8707,3.8707,3.8707,3.8707,3.8707,3.8707,3.8707,3.8707,3.8707,3.8707,3.8707,3.8707,3.8707,3.8707,3.8707,3.8707,3.8707,3.8707,3.8707,3.8707,3.8707,3.8707,3.8707,3.8707,3.8707,3.8707,3.8707,3.8707,3.8707,3.8707,3.8707,3.8707,3.8707,3.8707,3.8707,3.8707,3.8707,3.8707,3.8707,3.8707,3.8707,3.8707,3.8707,3.8707,3.8707,3.8707,3.8707,3.8707,3.8689,3.797,3.7199,0.0,0.0,0.0,0.0,0.0,0.0,4.0496,4.0496,4.0496,0.0,0.0,0.0,0.0,0.0,0.0,0.0,0.0,0.0,0.0,0.0,0.0,0.0,0.0,0.0,4.0433,4.0414,4.0397,4.0336,4.0129,4.0002,4.0002,3.9754,3.9599,3.9599,3.9599,3.9576,3.9498,3.9576,3.9576,3.9498,3.9576,3.9599,3.9599,3.9541,3.9541,3.9599,3.9541,3.9541,3.9599,3.9541,3.932,3.8999,3.8773,3.8707,3.8707,3.8707,3.8707,3.8707,3.8707,3.8707,3.8707,3.8707,3.8707,3.8707,3.8707,3.8707,3.8707,3.8707,3.8707,3.8707,3.8707,3.8707,3.8707,3.8707,3.8707,3.8707,3.8707,3.8707,3.8707,3.8707,3.8707,3.8707,3.8707,3.8707,3.8707,3.8707,3.8707,3.8707,3.8707,3.8707,3.8707,3.8707,3.8707,3.8707,3.8707,3.8707,3.8707,3.8707,3.8707,3.8707,3.8707,3.8707,3.8707,3.8707,3.8707,3.8707,3.8707,3.8707,3.8707,3.8707,3.8542,3.8028,0.0,0.0,0.0,4.0496,0.0,0.0,0.0,4.0496,4.0496,4.0496,0.0,0.0,0.0,0.0,0.0,0.0,0.0,0.0,0.0,0.0,0.0,0.0,0.0,0.0,4.0496,4.0496,4.0496,4.0496,4.0372,4.0304,4.0304,4.0138,4.0053,4.0053,4.0053,3.9984,3.984,3.9984,3.9984,3.984,3.9984,4.0053,4.0043,3.9903,3.9913,4.0043,3.9903,3.9924,4.0034,3.9903,3.9754,3.9564,3.9268,3.9154,3.9154,3.9154,3.9154,3.9127,3.8966,3.8894,3.8884,3.8732,3.8707,3.8707,3.8707,3.8707,3.8707,3.8707,3.8707,3.8707,3.8707,3.8707,3.8707,3.8707,3.8707,3.8707,3.8707,3.8707,3.8707,3.8707,3.8707,3.8707,3.8707,3.8707,3.8707,3.8707,3.8707,3.8707,3.8707,3.8707,3.8707,3.8707,3.8707,3.8707,3.8707,3.8707,3.8707,3.8707,3.8707,3.8707,3.8707,3.8707,3.8707,3.8707,3.8707,3.8707,3.8707,3.8707,3.8707,3.8707,3.8707,3.8267,0.0,0.0,0.0,0.0,0.0,4.0496,0.0,0.0,0.0,4.0496,0.0,0.0,0.0,0.0,0.0,0.0,0.0,0.0,0.0,0.0,0.0,0.0,0.0,0.0,0.0,4.0496,4.0496,4.0496,4.0496,4.0496,4.0496,4.0496,4.0496,4.0496,4.0496,4.0389,4.0177,4.0389,4.0389,4.0177,4.0389,4.0496,4.0489,4.0286,4.0304,4.0489,4.0258,4.0304,4.0481,4.0278,4.0177,4.0148,3.9746,3.9599,3.9599,3.9599,3.9599,3.9564,3.9289,3.9205,3.9165,3.8942,3.8877,3.8877,3.8877,3.8833,3.8792,3.8792,3.875,3.8707,3.8707,3.8707,3.8707,3.8707,3.8707,3.8704,3.8777,3.8735,3.8723,3.8777,3.8735,3.8707,3.8707,3.8707,3.8707,3.8707,3.8707,3.8707,3.8707,3.8707,3.8707,3.8707,3.8707,3.8707,3.8707,3.8707,3.8707,3.8707,3.8707,3.8707,3.8707,3.8707,3.8707,3.8707,3.8707,3.8707,3.8707,3.8707,3.8707,3.8707,3.8707,3.834,0.0,0.0,0.0,0.0,4.0496,0.0,0.0,0.0,4.0496,4.0496,0.0,0.0,0.0,0.0,0.0,0.0,0.0,0.0,0.0,0.0,0.0,0.0,0.0,0.0,0.0,4.0496,4.0496,4.0496,4.0496,4.0496,4.0496,4.0496,4.0496,4.0496,4.0496,4.0481,4.0457,4.0481,4.0481,4.0457,4.0481,4.0496,4.0496,4.0473,4.0473,4.0496,4.0473,4.0473,4.0496,4.0473,4.0457,4.0397,3.9821,3.9599,3.9599,3.9599,3.9599,3.9599,3.9564,3.9534,3.9541,3.9505,3.9493,3.9493,3.9493,3.9295,3.9044,3.9044,3.8865,3.8707,3.8707,3.8707,3.8707,3.8707,3.8707,3.8762,3.9013,3.8869,3.8777,3.9013,3.8855,3.8707,3.8707,3.8707,3.8707,3.8707,3.8707,3.8707,3.8707,3.8707,3.8707,3.8707,3.8707,3.8707,3.8707,3.8707,3.8707,3.8707,3.8707,3.8707,3.8707,3.8707,3.8707,3.8707,3.8707,3.8707,3.8707,3.8707,3.8707,3.8707,3.8707,3.8652,0.0,0.0,0.0,0.0,0.0,0.0,4.0496,0.0,4.0496,0.0,0.0,0.0,0.0,0.0,0.0,0.0,4.0285,0.0,0.0,0.0,0.0,0.0,0.0,0.0,0.0,0.0,0.0,0.0,4.0496,4.0496,4.0496,4.0496,4.0496,4.0496,4.0496,4.0496,4.0496,4.0496,4.0496,4.0496,4.0496,4.0496,4.0496,4.0496,4.0496,4.0496,4.0496,4.0496,4.0496,4.0496,4.0496,4.0481,4.0211,4.011,4.011,4.011,4.011,4.011,3.9934,3.9891,3.987,3.9656,3.9599,3.9599,3.9599,3.9498,3.9389,3.9389,3.9314,3.9216,3.9216,3.9216,3.9216,3.9216,3.9216,3.9236,3.9371,3.9314,3.9268,3.9371,3.9301,3.9216,3.9216,3.8931,3.8707,3.8707,3.8707,3.8707,3.8707,3.8707,3.8707,3.8707,3.8707,3.8707,3.8707,3.8707,3.8707,3.8707,3.8859,3.8919,3.8919,3.8919,3.8855,3.8707,3.8707,3.8707,3.8707,3.8707,3.8707,3.8707,3.8707,3.8707,4.0496,0.0,0.0,0.0,0.0,0.0,0.0,0.0,0.0,0.0,0.0,0.0,0.0,0.0,0.0,0.0,0.0,0.0,0.0,0.0,0.0,0.0,0.0,0.0,0.0,0.0,0.0,4.0496,4.0496,4.0496,4.0496,4.0496,4.0496,4.0496,4.0496,4.0496,4.0496,4.0496,4.0496,4.0496,4.0496,4.0496,4.0496,4.0496,4.0496,4.0496,4.0496,4.0496,4.0496,4.0496,4.0496,4.0496,4.0496,4.0496,4.0496,4.0496,4.0496,4.0473,4.0286,4.0204,4.0177,3.9934,3.9842,3.9842,3.9842,3.9808,3.9742,3.9742,3.9668,3.9599,3.9599,3.9599,3.9599,3.9599,3.9599,3.9622,3.9731,3.9656,3.9622,3.9731,3.9656,3.9599,3.9599,3.9242,3.896,3.896,3.8859,3.8844,3.8927,3.8807,3.8747,3.8931,3.8792,3.8735,3.8803,3.8818,3.8844,3.8946,3.9117,3.9238,3.9238,3.9238,3.9104,3.8833,3.8818,3.8777,3.8707,3.8707,3.875,3.8818,3.8818,3.8818,0.0,0.0,0.0,4.0496,0.0,0.0,0.0,0.0,4.0496,0.0,0.0,0.0,0.0,0.0,0.0,0.0,0.0,0.0,0.0,0.0,0.0,0.0,0.0,0.0,0.0,0.0,0.0,4.0496,4.0496,4.0496,4.0496,4.0496,4.0496,4.0496,4.0496,4.0496,4.0496,4.0496,4.0496,4.0496,4.0496,4.0496,4.0496,4.0496,4.0496,4.0496,4.0496,4.0496,4.0496,4.0496,4.0496,4.0496,4.0496,4.0496,4.0496,4.0496,4.0496,4.0496,4.0489,4.0489,4.0481,4.0481,4.0473,4.0473,4.0473,4.0285,4.0081,4.0081,3.984,3.9599,3.9599,3.9599,3.9599,3.9599,3.9599,3.9679,4.0012,3.9819,3.9709,4.0022,3.9819,3.9599,3.9599,3.9587,3.9576,3.9576,3.9289,3.9199,3.9529,3.9064,3.8931,3.9505,3.905,3.8803,3.9077,3.9085,3.9231,3.9552,3.9576,3.9587,3.9587,3.9587,3.9445,3.9099,3.9085,3.8961,3.8707,3.8707,3.8829,3.9085,3.9085,3.9085,0.0,0.0,4.0496,4.0496,0.0,0.0,0.0,0.0,0.0,0.0,0.0,0.0,0.0,0.0,0.0,0.0,0.0,0.0,0.0,0.0,0.0,0.0,0.0,0.0,0.0,0.0,0.0,4.0496,4.0496,4.0496,4.0496,4.0496,4.0496,4.0496,4.0496,4.0496,4.0496,4.0496,4.0496,4.0496,4.0496,4.0496,4.0496,4.0496,4.0496,4.0496,4.0496,4.0496,4.0496,4.0496,4.0496,4.0496,4.0496,4.0496,4.0496,4.0496,4.0496,4.0496,4.0496,4.0496,4.0496,4.0496,4.0496,4.0496,4.0496,4.0441,4.0364,4.0364,4.0274,4.0193,4.0193,4.0193,4.0193,4.0193,4.0193,4.023,4.0347,4.0285,4.023,4.0347,4.0266,4.0193,4.0193,4.0193,4.0063,3.9668,3.9498,3.9462,3.9587,3.9408,3.9377,3.9576,3.9427,3.9339,3.9414,3.9426,3.9576,3.9912,3.9922,3.9922,3.9922,3.9922,3.9775,3.9426,3.9426,3.9383,3.9307,3.9307,3.9352,3.9445,3.9656,3.9645,4.0496,4.0496,0.0,4.0496,4.0496,0.0,4.0496,0.0,0.0,0.0,0.0,0.0,0.0,0.0,0.0,0.0,0.0,0.0,0.0,4.0496,0.0,0.0,0.0,0.0,0.0,0.0,4.0496,4.0496,4.0496,4.0496,0.0,0.0,4.0496,4.0496,4.0496,4.0496,4.0496,4.0496,4.0496,4.0496,4.0496,4.0496,4.0496,4.0496,4.0496,4.0496,4.0496,4.0496,4.0496,4.0496,4.0496,4.0496,4.0496,4.0496,4.0496,4.0496,4.0496,4.0496,4.0496,4.0496,4.0496,4.0496,4.0496,4.0496,4.0496,4.0496,4.0496,4.0496,4.0496,4.0496,4.0496,4.0496,4.0496,4.0496,4.0496,4.0496,4.0496,4.0496,4.0496,4.0496,4.0496,4.0496,4.0496,4.0496,4.0362,3.9984,3.9851,3.9819,3.9905,3.9735,3.969,3.9894,3.9735,3.9645,3.9775,3.9775,3.9903,4.0223,4.0232,4.0232,4.0232,4.0232,4.0101,3.9786,3.9775,3.9731,3.9599,3.9599,3.9656,3.9786,4.0002,4.0042]}]]